[[{"header":{"parameterUnit":"m.s-1","parameterCategory":1,"la1":30.6,"la2":29.2853,"lo1":-89.7004,"lo2":-87.6739,"dy":0.0162,"dx":0.0183,"nx":112,"ny":82,"refTime":"2023-04-04T12:00:00:Z","depth":0,"parameterNumber":2,"parameterNumberName":"U-component_of_WINDS"},"data":[0.0,0.0,0.0,0.0,0.0,0.0,0.0,0.0,0.0,0.0,0.0,0.0,0.0,0.0,0.0,0.0,0.0,0.0,0.0,0.0,0.0,0.0,0.0,0.0,0.0,0.0,0.0,0.0,0.0,0.0,0.0,0.0,0.0,0.0,0.0,0.0,0.0,0.0,0.0,0.0,0.0,0.0,0.0,0.0,0.0,0.0,0.0,0.0,0.0,0.0,0.0,0.0,0.0,0.0,0.0,0.0,0.0,0.0,0.0,0.0,0.0,0.0,0.0,0.0,0.0,0.0,0.0,0.0,0.0,0.0,0.0,0.0,0.0,0.0,0.0,0.0,0.0,0.0,0.0,0.0,0.0,0.0,0.0,0.0,0.0,0.0,0.0,0.0,0.0,0.0,0.0,3.239,3.2523,3.211,3.0682,3.0981,3.0886,3.0089,0.0,0.0,0.0,0.0,0.0,0.0,0.0,0.0,0.0,0.0,0.0,0.0,0.0,0.0,0.0,0.0,0.0,0.0,0.0,0.0,0.0,0.0,0.0,0.0,0.0,0.0,0.0,0.0,0.0,0.0,0.0,0.0,0.0,0.0,0.0,0.0,0.0,0.0,0.0,0.0,0.0,0.0,0.0,0.0,0.0,0.0,0.0,0.0,0.0,0.0,0.0,0.0,0.0,0.0,0.0,0.0,0.0,0.0,0.0,0.0,0.0,0.0,0.0,0.0,0.0,0.0,0.0,0.0,0.0,0.0,0.0,0.0,0.0,0.0,0.0,0.0,0.0,0.0,0.0,0.0,0.0,0.0,0.0,0.0,0.0,0.0,0.0,0.0,0.0,0.0,0.0,0.0,0.0,0.0,0.0,0.0,0.0,0.0,0.0,0.0,0.0,0.0,0.0,0.0,3.2327,3.1041,3.1935,3.2247,3.1317,3.1317,3.1317,3.1168,0.0,0.0,0.0,0.0,0.0,0.0,0.0,0.0,0.0,0.0,0.0,0.0,0.0,0.0,0.0,0.0,0.0,0.0,0.0,0.0,0.0,0.0,0.0,0.0,0.0,0.0,0.0,0.0,0.0,0.0,0.0,0.0,0.0,0.0,0.0,0.0,0.0,0.0,0.0,0.0,0.0,0.0,0.0,0.0,0.0,0.0,0.0,0.0,0.0,0.0,0.0,0.0,0.0,0.0,0.0,0.0,0.0,0.0,0.0,0.0,0.0,0.0,0.0,0.0,0.0,0.0,0.0,0.0,0.0,0.0,0.0,0.0,0.0,0.0,0.0,0.0,0.0,0.0,0.0,0.0,0.0,0.0,0.0,0.0,0.0,0.0,0.0,0.0,0.0,0.0,0.0,0.0,0.0,0.0,0.0,0.0,0.0,0.0,0.0,0.0,0.0,0.0,0.0,3.3441,3.2408,3.1311,3.1886,3.2107,3.1602,3.1696,3.1737,3.1623,3.1014,0.0,0.0,0.0,0.0,0.0,0.0,0.0,0.0,0.0,0.0,0.0,0.0,0.0,0.0,0.0,0.0,0.0,0.0,0.0,0.0,0.0,0.0,0.0,0.0,0.0,0.0,0.0,0.0,0.0,0.0,0.0,0.0,0.0,0.0,0.0,0.0,0.0,0.0,0.0,0.0,0.0,0.0,0.0,0.0,0.0,0.0,0.0,0.0,0.0,0.0,0.0,0.0,0.0,0.0,0.0,0.0,0.0,0.0,0.0,0.0,0.0,0.0,0.0,0.0,0.0,0.0,0.0,0.0,0.0,0.0,0.0,0.0,0.0,0.0,0.0,0.0,0.0,0.0,0.0,0.0,0.0,0.0,0.0,0.0,0.0,0.0,0.0,0.0,0.0,0.0,0.0,0.0,0.0,0.0,0.0,0.0,0.0,0.0,0.0,0.0,0.0,0.0,3.3516,3.2616,3.1886,3.2128,3.2245,3.206,3.2204,3.2266,3.2109,3.1912,0.0,0.0,0.0,0.0,0.0,0.0,0.0,0.0,0.0,0.0,0.0,0.0,0.0,0.0,0.0,0.0,0.0,0.0,0.0,0.0,0.0,0.0,0.0,0.0,0.0,0.0,0.0,0.0,0.0,0.0,0.0,0.0,0.0,0.0,0.0,0.0,0.0,0.0,0.0,0.0,0.0,0.0,0.0,0.0,0.0,0.0,0.0,0.0,0.0,0.0,0.0,0.0,0.0,0.0,0.0,0.0,0.0,0.0,0.0,0.0,0.0,0.0,0.0,0.0,0.0,0.0,0.0,0.0,0.0,0.0,0.0,0.0,0.0,0.0,0.0,0.0,0.0,0.0,0.0,0.0,0.0,0.0,0.0,0.0,0.0,0.0,0.0,0.0,0.0,0.0,0.0,0.0,0.0,0.0,0.0,0.0,0.0,0.0,0.0,0.0,0.0,0.0,3.3317,3.2435,3.2185,3.2684,3.302,3.2998,3.302,3.302,3.2998,3.2998,0.0,0.0,0.0,0.0,0.0,0.0,0.0,0.0,0.0,0.0,0.0,0.0,0.0,0.0,0.0,0.0,0.0,0.0,0.0,0.0,0.0,0.0,0.0,0.0,0.0,0.0,0.0,0.0,0.0,0.0,0.0,0.0,0.0,0.0,0.0,0.0,0.0,0.0,0.0,0.0,0.0,0.0,0.0,0.0,0.0,0.0,0.0,0.0,0.0,0.0,0.0,0.0,0.0,0.0,0.0,0.0,0.0,0.0,0.0,0.0,0.0,0.0,0.0,0.0,0.0,0.0,0.0,0.0,0.0,0.0,0.0,0.0,0.0,0.0,0.0,0.0,0.0,0.0,0.0,0.0,0.0,0.0,0.0,0.0,0.0,0.0,0.0,0.0,0.0,0.0,0.0,0.0,0.0,0.0,0.0,0.0,0.0,0.0,0.0,0.0,0.0,0.0,3.456,3.3601,0.0,3.3092,3.324,3.3124,3.3219,3.3304,3.3304,0.0,0.0,0.0,0.0,0.0,0.0,0.0,0.0,0.0,0.0,0.0,0.0,0.0,0.0,0.0,0.0,0.0,0.0,0.0,0.0,0.0,0.0,0.0,0.0,0.0,0.0,0.0,0.0,0.0,0.0,0.0,0.0,0.0,0.0,0.0,0.0,0.0,0.0,0.0,0.0,0.0,0.0,0.0,0.0,0.0,0.0,0.0,0.0,0.0,0.0,0.0,0.0,0.0,0.0,0.0,0.0,0.0,0.0,0.0,0.0,0.0,0.0,0.0,0.0,0.0,0.0,0.0,0.0,0.0,0.0,0.0,0.0,0.0,0.0,0.0,0.0,0.0,0.0,0.0,0.0,0.0,0.0,0.0,0.0,0.0,0.0,0.0,0.0,0.0,0.0,0.0,0.0,0.0,0.0,0.0,0.0,0.0,0.0,0.0,0.0,0.0,0.0,3.6255,3.5014,3.3911,0.0,3.3219,3.3261,3.3124,3.324,3.3292,3.3292,0.0,0.0,0.0,0.0,0.0,0.0,0.0,0.0,0.0,0.0,0.0,0.0,0.0,0.0,0.0,0.0,0.0,0.0,0.0,0.0,0.0,0.0,0.0,0.0,0.0,0.0,0.0,0.0,0.0,0.0,0.0,0.0,0.0,0.0,0.0,0.0,0.0,0.0,0.0,0.0,0.0,0.0,0.0,0.0,0.0,0.0,0.0,0.0,0.0,0.0,0.0,0.0,0.0,0.0,0.0,0.0,0.0,0.0,0.0,0.0,0.0,0.0,0.0,0.0,0.0,0.0,0.0,0.0,0.0,0.0,0.0,0.0,0.0,0.0,0.0,0.0,0.0,0.0,0.0,0.0,0.0,0.0,0.0,0.0,0.0,0.0,0.0,0.0,0.0,0.0,0.0,0.0,0.0,0.0,0.0,0.0,0.0,0.0,0.0,0.0,0.0,0.0,3.6178,3.4374,3.3102,3.3102,3.3102,3.3102,3.3102,3.3102,3.3102,0.0,0.0,0.0,0.0,0.0,0.0,0.0,0.0,0.0,0.0,0.0,0.0,0.0,0.0,0.0,0.0,0.0,0.0,0.0,0.0,0.0,0.0,0.0,0.0,0.0,0.0,0.0,0.0,0.0,0.0,0.0,0.0,0.0,0.0,0.0,0.0,0.0,0.0,0.0,0.0,0.0,0.0,0.0,0.0,0.0,0.0,0.0,0.0,0.0,0.0,0.0,0.0,0.0,0.0,0.0,0.0,0.0,0.0,0.0,0.0,0.0,0.0,0.0,0.0,0.0,0.0,0.0,0.0,0.0,0.0,0.0,0.0,0.0,0.0,0.0,0.0,0.0,0.0,0.0,0.0,0.0,0.0,0.0,0.0,0.0,0.0,0.0,0.0,0.0,0.0,0.0,0.0,0.0,0.0,0.0,0.0,0.0,0.0,0.0,0.0,0.0,0.0,0.0,3.542,3.4024,3.3102,3.3102,3.3102,3.3102,3.3102,3.3102,3.3102,3.3102,0.0,0.0,0.0,0.0,0.0,0.0,0.0,0.0,0.0,0.0,0.0,0.0,0.0,0.0,0.0,0.0,0.0,0.0,0.0,0.0,0.0,0.0,0.0,0.0,0.0,0.0,0.0,0.0,0.0,0.0,0.0,0.0,0.0,0.0,0.0,0.0,0.0,0.0,0.0,0.0,0.0,0.0,0.0,0.0,0.0,0.0,0.0,0.0,0.0,0.0,0.0,0.0,0.0,0.0,0.0,0.0,0.0,0.0,0.0,0.0,0.0,0.0,0.0,0.0,0.0,0.0,0.0,0.0,0.0,0.0,0.0,0.0,0.0,0.0,0.0,0.0,0.0,0.0,0.0,0.0,0.0,0.0,0.0,0.0,0.0,0.0,0.0,0.0,0.0,0.0,0.0,0.0,0.0,0.0,0.0,0.0,0.0,0.0,0.0,0.0,0.0,0.0,3.5061,3.389,3.3102,3.3102,3.3102,3.3102,3.3102,3.3102,3.3102,3.3102,0.0,0.0,0.0,0.0,0.0,0.0,0.0,0.0,0.0,0.0,0.0,0.0,0.0,0.0,0.0,0.0,0.0,0.0,0.0,0.0,0.0,0.0,0.0,0.0,0.0,0.0,0.0,0.0,0.0,0.0,0.0,0.0,0.0,0.0,0.0,0.0,0.0,0.0,0.0,0.0,0.0,0.0,0.0,0.0,0.0,0.0,0.0,0.0,0.0,0.0,0.0,0.0,0.0,0.0,0.0,0.0,0.0,0.0,0.0,0.0,0.0,0.0,0.0,0.0,0.0,0.0,0.0,0.0,0.0,0.0,0.0,0.0,0.0,0.0,0.0,0.0,0.0,0.0,0.0,0.0,0.0,0.0,0.0,0.0,0.0,0.0,0.0,0.0,0.0,0.0,0.0,0.0,0.0,0.0,0.0,0.0,0.0,0.0,0.0,0.0,0.0,0.0,3.489,3.3839,3.3102,3.3102,3.3102,3.3102,3.3102,3.3102,3.3102,3.3102,0.0,0.0,0.0,0.0,0.0,0.0,0.0,0.0,0.0,0.0,0.0,0.0,0.0,0.0,0.0,0.0,0.0,0.0,0.0,0.0,0.0,0.0,0.0,0.0,0.0,0.0,0.0,0.0,0.0,0.0,0.0,0.0,0.0,0.0,0.0,0.0,0.0,0.0,0.0,0.0,0.0,0.0,0.0,0.0,0.0,0.0,0.0,0.0,0.0,0.0,0.0,0.0,0.0,0.0,0.0,0.0,0.0,0.0,0.0,0.0,3.652,0.0,0.0,0.0,0.0,0.0,0.0,0.0,0.0,0.0,0.0,0.0,0.0,0.0,0.0,0.0,0.0,0.0,0.0,0.0,0.0,0.0,0.0,0.0,0.0,0.0,0.0,0.0,0.0,0.0,0.0,0.0,0.0,0.0,0.0,0.0,0.0,0.0,0.0,0.0,0.0,0.0,3.4079,3.3462,3.3102,3.3102,3.3102,3.3102,3.3102,3.3102,3.3102,3.3102,3.3102,0.0,0.0,0.0,0.0,0.0,0.0,0.0,0.0,0.0,0.0,0.0,0.0,0.0,0.0,0.0,0.0,0.0,0.0,0.0,0.0,0.0,0.0,0.0,0.0,0.0,0.0,0.0,0.0,0.0,0.0,0.0,0.0,0.0,0.0,0.0,0.0,0.0,0.0,0.0,0.0,0.0,0.0,0.0,0.0,0.0,0.0,0.0,0.0,0.0,0.0,0.0,0.0,0.0,0.0,0.0,0.0,0.0,0.0,0.0,0.0,3.7142,0.0,0.0,0.0,0.0,0.0,0.0,0.0,0.0,0.0,0.0,0.0,0.0,0.0,0.0,0.0,0.0,0.0,0.0,0.0,0.0,0.0,0.0,0.0,0.0,0.0,0.0,0.0,0.0,0.0,0.0,0.0,0.0,0.0,0.0,0.0,0.0,0.0,0.0,0.0,0.0,3.3755,3.3356,3.3102,3.3102,3.3102,3.3102,3.3102,3.3102,3.3102,3.3102,3.3102,0.0,0.0,0.0,0.0,0.0,0.0,0.0,0.0,0.0,0.0,0.0,0.0,0.0,0.0,0.0,0.0,0.0,0.0,0.0,0.0,0.0,0.0,0.0,0.0,0.0,0.0,0.0,0.0,0.0,0.0,0.0,0.0,0.0,0.0,0.0,0.0,0.0,0.0,0.0,0.0,0.0,0.0,0.0,0.0,0.0,0.0,0.0,0.0,0.0,0.0,0.0,0.0,0.0,3.6866,3.7261,3.7839,3.8571,3.8357,3.7505,3.8174,3.7596,3.6307,3.7715,0.0,0.0,0.0,0.0,0.0,0.0,0.0,0.0,0.0,0.0,0.0,0.0,0.0,0.0,0.0,0.0,0.0,0.0,0.0,0.0,0.0,0.0,0.0,0.0,3.7791,3.6958,0.0,0.0,0.0,0.0,0.0,0.0,0.0,0.0,0.0,0.0,0.0,0.0,3.3662,3.3334,3.3102,3.3102,3.3102,3.3102,3.3102,3.3102,3.3102,3.3102,3.3102,3.3102,0.0,0.0,0.0,0.0,0.0,0.0,0.0,0.0,0.0,0.0,0.0,0.0,0.0,0.0,0.0,0.0,0.0,0.0,0.0,0.0,0.0,0.0,0.0,0.0,0.0,0.0,0.0,0.0,0.0,0.0,0.0,0.0,3.0612,3.0196,0.0,0.0,0.0,0.0,0.0,0.0,0.0,0.0,0.0,0.0,0.0,0.0,0.0,3.6199,3.605,3.6943,3.7301,3.7124,3.7379,3.764,3.7895,3.802,3.8366,3.8941,3.904,0.0,3.7419,3.803,0.0,0.0,0.0,0.0,0.0,0.0,0.0,0.0,0.0,0.0,0.0,0.0,0.0,0.0,0.0,0.0,0.0,0.0,0.0,0.0,0.0,0.0,3.8059,3.8234,3.7025,3.5815,0.0,3.6027,3.6237,3.6389,3.6408,0.0,0.0,0.0,0.0,0.0,0.0,0.0,3.3462,3.324,3.3102,3.3102,3.3102,3.3102,3.3102,3.3102,3.3102,3.3102,3.3102,3.3102,3.3102,3.3102,0.0,0.0,0.0,0.0,0.0,0.0,0.0,0.0,0.0,0.0,0.0,0.0,0.0,0.0,0.0,0.0,0.0,0.0,0.0,0.0,0.0,0.0,0.0,0.0,0.0,0.0,0.0,0.0,0.0,3.0939,3.1303,3.1063,3.1028,3.1146,0.0,0.0,0.0,0.0,0.0,0.0,0.0,0.0,0.0,3.5775,3.6498,3.6867,3.6903,3.7682,3.7857,3.7437,3.7897,3.8139,3.8264,3.8637,3.9011,3.9368,3.9491,3.9329,3.9018,3.926,3.9492,3.9688,0.0,0.0,0.0,0.0,3.9108,3.9085,3.9002,3.9196,0.0,4.0133,0.0,0.0,0.0,0.0,0.0,0.0,0.0,0.0,0.0,0.0,3.8348,3.8221,3.6869,3.5595,3.5595,3.4999,3.465,0.0,3.5708,3.5882,3.5373,0.0,0.0,0.0,0.0,3.3492,3.342,3.3219,3.3102,3.3102,3.3102,3.3102,3.3102,3.3102,3.3102,3.3102,3.3102,3.3102,3.3102,3.3102,3.3102,0.0,0.0,0.0,0.0,0.0,0.0,0.0,0.0,0.0,0.0,0.0,0.0,0.0,0.0,0.0,0.0,0.0,0.0,0.0,0.0,0.0,0.0,0.0,0.0,0.0,0.0,0.0,0.0,3.1615,3.202,3.1886,3.1821,3.2084,0.0,0.0,0.0,0.0,0.0,0.0,3.476,3.5515,3.6317,3.7081,3.7602,3.7916,3.8013,3.8449,3.843,3.7935,3.8405,3.8618,3.8692,3.921,3.9529,3.9733,3.9955,4.0242,4.0488,4.0272,4.0021,3.9791,4.0098,4.0221,4.0185,3.9654,3.9461,3.948,3.9622,3.9955,4.0378,4.0728,0.0,4.1319,4.0994,0.0,0.0,0.0,0.0,3.8605,3.9257,3.9171,3.8866,3.8719,3.7411,3.6162,3.609,3.5083,3.4229,0.0,3.4886,3.5308,3.5061,0.0,0.0,0.0,0.0,3.3808,3.3743,3.3604,3.3517,3.3517,3.3517,3.3517,3.3517,3.3391,3.3303,3.3303,3.2928,3.2711,3.2711,3.2494,3.2351,3.2351,0.0,0.0,0.0,0.0,0.0,0.0,0.0,0.0,0.0,0.0,0.0,0.0,0.0,0.0,0.0,0.0,0.0,0.0,0.0,0.0,0.0,0.0,0.0,0.0,0.0,0.0,0.0,0.0,0.0,3.244,3.1862,0.0,0.0,0.0,0.0,3.3268,3.534,3.6642,3.6841,3.8093,3.8888,3.9051,3.927,3.9284,3.9122,3.9151,3.9049,3.8838,3.8866,3.8982,3.9179,3.9207,3.9635,4.0367,4.0635,4.1083,4.1542,4.0528,4.1027,4.2382,4.2233,4.3008,4.3967,4.1987,4.1272,4.1159,4.0344,4.0094,4.0327,4.1604,4.1741,4.1387,4.1377,4.0563,0.0,0.0,3.9851,4.011,3.9392,3.963,4.0022,4.0002,3.8862,3.7701,3.7383,3.7232,3.638,0.0,3.3613,3.4054,3.4228,0.0,3.5076,3.5054,3.5044,3.492,3.466,3.4638,3.4615,3.4615,3.4615,3.4615,3.4615,3.4161,3.3859,3.3859,3.2502,3.1669,3.1669,3.0835,3.0351,3.0351,3.0022,0.0,0.0,0.0,0.0,0.0,0.0,0.0,0.0,0.0,0.0,0.0,0.0,0.0,0.0,0.0,0.0,0.0,0.0,0.0,0.0,0.0,0.0,0.0,0.0,0.0,0.0,0.0,0.0,3.342,3.3006,0.0,3.4102,3.4157,3.4388,3.4989,3.6192,3.6751,3.6427,3.7599,3.8323,3.8364,3.9228,3.9475,3.9018,3.9378,3.9358,3.8902,3.9289,3.9513,3.9604,3.9998,4.0316,4.0619,4.0836,4.1146,4.15,4.1219,4.1584,4.2269,4.2208,4.2482,4.2871,4.2127,4.1865,4.1805,4.1503,4.1381,4.1468,4.1932,4.1988,4.1686,4.0828,4.029,3.995,3.9906,4.0047,4.0347,4.0922,4.0902,4.0742,4.0742,3.9108,3.7551,3.7434,3.6483,3.5364,3.4344,3.4726,3.5163,3.4825,3.4824,3.4883,3.5076,3.4963,3.4816,3.4703,3.4703,3.4703,3.4703,3.4703,3.4703,3.4703,3.4515,3.4402,3.4402,3.3901,3.3156,3.2163,3.1802,3.1174,3.0215,2.9131,2.935,0.0,0.0,0.0,0.0,0.0,0.0,0.0,0.0,0.0,0.0,0.0,0.0,0.0,0.0,0.0,0.0,0.0,0.0,0.0,0.0,0.0,0.0,0.0,0.0,0.0,0.0,3.3421,3.4275,3.4131,3.4455,3.5703,3.5636,3.5751,3.6302,3.7141,3.7462,3.7074,3.8187,3.8847,3.8847,3.9662,3.9922,3.9514,3.9908,3.9908,3.9514,3.9922,4.0105,4.0133,4.0519,4.0702,4.0723,4.0908,4.11,4.1311,4.1737,4.2006,4.2174,4.2117,4.2092,4.2092,4.2092,4.2092,4.2092,4.2092,4.2092,4.2092,4.2092,4.2092,4.1961,4.1279,4.1076,4.112,4.1337,4.141,4.1613,4.2513,4.2092,4.1482,4.1686,3.9913,3.816,3.8032,3.6814,3.5654,3.5347,3.5566,3.5696,3.5297,3.5256,3.5324,3.5519,3.5392,3.5278,3.5278,3.5278,3.5278,3.5278,3.5278,3.5278,3.5278,3.5079,3.483,3.4497,3.3968,3.3055,3.1693,3.1483,3.094,2.9952,2.8594,2.8507,2.9738,0.0,0.0,0.0,0.0,0.0,0.0,0.0,0.0,0.0,0.0,0.0,0.0,0.0,0.0,0.0,0.0,0.0,0.0,0.0,0.0,0.0,0.0,0.0,3.3718,3.4448,3.4895,3.497,3.5143,3.5498,3.6131,3.6216,3.645,3.7026,3.8221,3.893,3.8902,4.0034,4.0674,4.0674,4.0688,4.0702,4.0702,4.0702,4.0702,4.0702,4.0702,4.0702,4.0702,4.0716,4.073,4.0751,4.0951,4.1057,4.1121,4.1967,4.231,4.2317,4.2195,4.2165,4.215,4.2165,4.215,4.2165,4.2165,4.2165,4.2165,4.2165,4.2165,4.2266,4.2847,4.3021,4.3152,4.3805,4.3993,4.3993,4.4008,4.3079,4.2281,4.2876,4.1311,3.9598,3.9264,3.8441,3.75,3.657,3.5931,3.552,3.552,3.6006,3.6405,3.6405,3.6405,0.0,3.6405,3.6405,3.6405,3.6405,3.6405,3.6405,3.6405,3.5821,3.5066,3.4089,3.2581,3.1253,3.0174,2.9679,2.9393,2.9335,2.8413,2.7329,2.612,0.0,0.0,0.0,0.0,0.0,0.0,0.0,0.0,0.0,0.0,0.0,0.0,0.0,0.0,0.0,0.0,0.0,0.0,0.0,0.0,0.0,0.0,3.4906,3.4832,3.4574,3.4953,3.6466,3.6565,3.6928,3.801,3.8516,3.8671,3.839,3.9106,3.936,3.893,3.9627,4.0062,4.0062,4.0463,4.0702,4.0702,4.0702,4.0702,4.0702,4.0702,4.0702,4.0702,4.1151,4.1362,4.139,4.192,4.2235,4.2411,4.2639,4.282,4.2959,4.3128,4.3199,4.3221,4.3407,4.335,4.3199,4.3199,4.3199,4.3199,4.3199,4.3199,4.3228,4.3365,4.3445,4.3474,4.3661,4.3849,4.4095,4.4552,4.3725,4.2919,4.3558,4.1487,3.9314,3.9214,3.7919,3.6698,3.6452,3.6268,3.6155,3.6155,3.6281,3.6405,3.6405,3.6405,0.0,3.6405,3.6405,3.6405,3.6405,3.6405,3.6405,3.6405,3.5531,3.486,3.4607,3.3445,3.2148,3.0753,3.0375,2.9494,2.7988,2.8254,2.7721,0.0,0.0,0.0,0.0,0.0,0.0,0.0,0.0,0.0,0.0,0.0,0.0,0.0,0.0,0.0,0.0,0.0,0.0,0.0,0.0,0.0,0.0,3.5439,3.6342,3.6321,3.6,3.6216,3.7402,3.7915,3.846,3.9205,3.9584,3.9655,3.9289,3.9598,3.9655,3.9289,3.9852,4.0189,4.0189,4.0519,4.0814,4.1081,4.1081,4.1221,4.151,4.151,4.151,4.1502,4.1854,4.2022,0.0,4.2438,4.266,4.2794,4.3062,4.3206,0.0,0.0,0.0,0.0,0.0,4.3741,4.3632,4.3741,4.3762,4.3741,4.3654,4.3596,4.3631,4.3802,4.3852,4.3931,4.4293,4.4512,4.4717,4.519,4.4043,4.2897,4.3284,4.0922,3.8621,3.8621,3.7464,3.6405,3.6405,3.6405,0.0,3.6405,3.6405,3.6405,3.6405,3.6405,3.6405,3.6405,3.6405,3.6239,3.5775,3.5739,3.5547,3.5102,3.4483,0.0,0.0,0.0,3.1962,3.069,3.0378,0.0,0.0,0.0,2.8015,2.665,0.0,0.0,0.0,2.5752,2.5571,0.0,0.0,0.0,0.0,0.0,0.0,0.0,0.0,0.0,0.0,0.0,0.0,0.0,0.0,0.0,0.0,3.6599,3.7321,3.792,3.8074,3.8102,3.8102,3.91,3.9837,3.9894,3.9908,3.9908,3.9908,3.9908,3.9908,3.9908,0.0,0.0,0.0,0.0,4.1095,4.1727,4.1727,4.2008,4.2607,4.2607,4.2607,4.2607,4.2677,4.2705,4.2719,4.2775,4.2803,4.2846,4.3371,4.3596,4.3585,4.345,4.3378,4.3445,4.368,4.3768,4.3811,4.4044,0.0,0.0,4.3833,4.3746,4.3817,4.4161,4.4287,4.4424,4.5209,4.5435,4.5504,4.5677,4.4179,4.2584,4.2539,4.0164,3.7936,3.7936,3.7134,3.6405,3.6405,3.6405,3.6405,3.6405,3.6405,3.6405,3.6405,3.6405,3.6405,3.6405,3.6405,3.5989,3.4896,0.0,0.0,3.33,3.3101,3.2613,3.1651,3.1447,3.1007,3.0197,2.9908,2.944,2.8751,2.8699,2.8147,2.709,2.666,2.6455,2.647,2.5942,2.5693,0.0,0.0,0.0,0.0,0.0,0.0,0.0,0.0,0.0,0.0,0.0,0.0,0.0,0.0,0.0,3.6014,3.7,3.7948,3.8614,3.9121,3.9444,3.9444,3.9655,3.9992,4.0477,4.0519,4.0519,4.0519,4.0519,4.0519,4.0519,4.0631,4.0926,4.1418,4.1446,4.1741,4.241,4.2424,4.248,4.2607,0.0,0.0,4.2621,4.309,4.3329,4.3343,4.3849,4.4059,4.4059,4.4186,4.4242,4.4237,4.4426,4.4598,4.473,4.479,4.4812,4.4812,4.488,4.488,4.488,4.4835,4.4713,4.4595,4.4663,4.4668,0.0,4.4894,4.5046,4.5101,4.4764,4.3959,4.3108,4.269,4.0626,3.8767,3.8767,3.7507,3.6405,3.6405,3.6405,3.6405,3.6405,3.6405,3.6405,3.6405,3.6405,3.6405,3.6405,3.6405,3.5989,3.4896,3.4799,3.4361,3.33,3.2423,3.183,3.16,3.0593,2.9791,2.9359,2.908,2.875,2.8397,2.8087,2.7815,2.7565,2.7109,2.6869,2.685,2.6069,2.5693,0.0,0.0,0.0,0.0,0.0,0.0,0.0,0.0,0.0,0.0,0.0,3.5297,0.0,0.0,3.6665,3.7394,3.8263,3.898,3.9303,3.988,4.0147,3.9837,4.0076,4.0364,4.0674,4.0702,4.0702,4.0702,4.0702,4.0702,4.0702,4.0997,4.1292,4.1579,4.1924,4.2402,4.3057,4.3057,4.3188,4.3497,4.3497,4.3497,4.3512,4.3807,4.3947,4.3975,4.4284,4.4387,4.4387,4.4387,4.4387,4.4411,4.4551,4.4667,4.4769,4.4908,4.5023,4.5101,4.5101,4.5193,4.5261,4.5023,4.4876,4.4797,4.4797,4.4728,4.4644,4.4885,4.4755,4.4532,4.4439,4.3342,4.223,4.1957,4.0065,3.8308,3.8308,3.7304,3.6405,3.6405,3.6405,3.6405,3.6405,3.6405,3.6405,3.6405,3.6405,3.6405,3.6405,3.5942,3.5199,3.4116,3.3512,3.2764,3.1699,3.112,3.0733,3.0619,2.9806,2.9211,2.8903,2.8648,2.8434,2.8291,2.8086,2.8005,2.8005,2.7549,2.7344,2.7324,2.6654,2.6235,0.0,0.0,0.0,0.0,0.0,0.0,0.0,0.0,3.5785,3.6251,3.6073,3.6292,3.7806,3.7696,3.7743,3.8882,3.9472,3.9837,3.9964,4.0378,4.0519,4.0034,4.0393,4.0702,4.0702,4.0702,4.0702,4.0702,4.0814,4.087,4.087,4.146,4.1854,4.198,4.2486,4.3048,4.3666,4.3666,4.3919,4.4387,4.4387,4.4387,4.4387,4.4387,4.4387,4.4387,4.4387,4.4387,4.4387,4.4387,4.4387,4.4387,4.4387,4.4387,4.4434,4.4644,4.4853,4.5032,4.5032,4.5184,4.5299,4.4922,4.4797,4.4797,4.4751,4.4504,4.4303,4.4639,4.4191,4.3634,4.3766,4.2525,4.1187,4.109,3.9443,3.7914,3.7914,3.7302,3.6708,3.6708,3.6708,3.6708,3.6708,3.6708,3.6632,3.6443,3.6405,3.6405,3.6405,3.5463,3.4385,3.3325,3.2235,3.1161,3.0099,2.9942,2.9827,2.9606,2.9248,2.893,2.8701,2.8434,2.8291,2.8291,2.8291,2.8291,2.8291,2.7976,2.7809,2.7809,2.7422,2.6992,3.417,3.4452,0.0,3.4949,3.5144,3.518,0.0,0.0,3.6272,3.6523,3.741,3.8328,3.8933,3.8833,3.891,3.9584,3.9767,3.9992,4.0519,4.0659,4.0674,4.0603,4.0659,4.0702,4.0702,4.0702,4.0702,4.0702,4.1207,4.1495,4.1495,4.2121,4.2747,4.3273,4.3357,4.3694,4.4298,4.4312,4.434,4.4387,4.4387,4.4387,4.4387,4.4387,4.4387,4.4387,4.4387,4.4387,4.4387,4.4387,4.4387,4.4387,4.4387,4.4387,4.4387,4.4434,4.4597,4.483,4.483,4.4853,4.4853,4.4821,4.4797,4.4774,4.4527,4.4078,4.3648,4.3457,4.2843,4.2124,4.1743,4.1468,4.1167,4.0692,3.984,3.9106,3.9106,3.8439,3.7826,3.7826,3.7826,3.7826,3.7826,3.7826,3.7487,3.6532,3.6405,3.6405,3.6405,3.5463,3.4385,3.3325,3.2235,3.1161,3.0099,2.9774,2.9633,2.9606,2.9062,2.8737,2.8711,2.8434,2.8291,2.8291,2.8291,2.8291,2.8291,2.8242,2.8223,2.8223,2.8174,2.7715,3.518,0.0,0.0,0.0,3.6172,3.654,3.6226,3.6985,3.7862,3.8221,3.862,3.9069,3.9626,3.9575,3.9627,0.0,4.0308,4.0407,4.0659,4.0702,4.0702,4.0702,4.0702,4.0702,4.0702,4.0702,4.0856,4.1207,4.1452,4.1783,4.2163,4.2767,4.3231,4.3483,4.3849,4.4144,4.4387,4.4387,4.4387,4.4387,4.4387,4.4387,4.4387,4.4387,4.4387,4.4387,4.4387,4.4387,4.4387,4.4387,4.4387,4.4387,4.4387,4.4387,4.4387,4.4387,4.4574,4.4774,4.4621,4.4667,4.4774,4.4621,4.4256,4.3875,4.3936,4.3338,4.2684,4.2709,4.2402,4.1994,4.1819,4.1774,4.1647,4.1093,4.0351,3.969,3.936,3.8629,3.8002,3.8002,3.8002,3.8002,3.8002,3.8002,3.7852,3.7387,3.7072,3.6859,3.6859,3.5114,3.3214,3.1531,3.094,3.0406,2.9827,2.9659,2.9448,2.9089,2.8834,2.8631,2.8488,2.8344,2.8291,2.8291,2.8291,2.8291,2.8291,2.8291,2.8291,2.8291,2.8291,2.8016,3.5467,0.0,0.0,3.6439,3.7223,3.7875,3.7844,3.8451,3.912,3.9489,3.9524,3.962,4.016,4.0147,4.0182,4.0631,4.0702,4.0702,4.0702,4.0702,4.0702,4.0702,4.0702,4.0702,4.0702,4.0856,4.1137,4.1565,4.1938,4.2345,4.2832,4.3413,4.375,4.375,4.4172,4.4387,4.4387,4.4387,4.4387,4.4387,4.4387,4.4387,4.4387,4.4387,4.4387,4.4387,4.4387,4.4387,4.4387,4.4387,4.4387,4.4387,4.4162,4.4068,4.4044,4.3818,4.4139,4.4644,4.4457,4.4387,4.4326,4.4139,4.3566,4.3029,4.3313,4.2746,4.2082,4.2341,4.2157,4.188,4.188,4.1888,4.1751,4.1217,4.0629,4.0069,3.9525,3.8894,3.8467,3.8467,3.8467,3.8467,3.8467,3.8467,3.8467,3.8467,3.8002,3.749,3.6997,3.4622,3.2254,3.0391,3.0067,2.9879,2.9606,2.9527,2.9248,2.8737,2.8621,2.8514,2.8318,2.8291,2.8291,2.8291,2.8291,2.8291,2.8291,2.8291,2.8291,2.8291,2.8211,2.805,0.0,0.0,3.6751,3.7182,3.8018,3.8701,3.851,3.8985,3.9526,3.9759,3.9948,4.0209,4.0604,4.0674,4.0674,4.0702,4.0702,4.0702,4.0702,4.0702,4.0702,4.0702,4.0702,4.0702,0.0,4.1235,4.1565,4.1593,4.2739,4.3441,4.3469,4.4045,4.4383,4.4383,4.4397,4.4387,4.4387,4.4387,4.4387,4.4387,4.4387,4.4387,4.4387,4.4387,4.4387,4.4387,4.4387,4.4387,4.4387,4.4387,4.4387,4.4317,4.3543,4.3242,4.3146,4.2357,4.3074,4.4411,4.4387,4.3889,4.3242,4.3242,4.2867,4.2476,4.2806,4.2527,4.2161,4.2424,4.1919,4.1304,4.1304,4.1329,4.1204,4.0651,4.0501,4.0337,3.9811,3.9685,3.9647,3.9647,3.9647,3.9647,3.9647,3.9647,3.9647,3.9647,3.9195,3.8252,3.6537,3.4002,3.1903,3.079,3.0263,2.9879,2.9606,2.929,2.9009,2.8711,2.8461,2.8318,2.8291,2.8291,2.8291,2.8291,2.8291,2.8291,2.8291,2.8291,2.8291,2.8291,2.804,2.7718,0.0,0.0,3.7377,3.7805,3.8587,3.9276,3.9345,3.9634,4.0022,4.0491,4.0224,3.997,4.0245,4.0189,4.0105,4.0105,4.0435,4.0702,4.0702,4.0702,4.0702,4.0702,4.0702,0.0,0.0,0.0,0.0,4.2219,4.255,4.3106,4.4064,4.3778,4.359,4.359,4.4115,4.4139,4.3614,4.4139,4.4387,4.4387,4.4387,4.3841,4.2819,4.3362,4.359,4.359,4.359,4.3912,4.4387,4.4387,4.4387,4.4317,4.3519,4.3194,4.3098,4.2308,4.2588,4.3364,4.2944,4.2625,4.2473,4.2852,4.2513,4.2014,4.2501,4.2137,4.1583,4.1667,4.1809,4.1909,4.1909,4.2158,4.2283,4.1758,4.1329,4.0888,4.0362,3.9948,3.9697,3.9697,3.9697,3.9697,3.9697,3.9697,3.9697,3.9697,3.8568,3.7118,3.5451,3.375,3.2308,3.1268,3.0729,3.0263,2.9762,2.9329,2.892,2.8451,2.8354,2.8291,2.8291,2.8291,2.8291,2.8291,2.8291,2.8291,2.8291,2.8291,2.8291,2.8291,2.8014,2.7718,0.0,3.7296,3.7941,3.8521,3.9201,3.9743,3.9892,4.0125,4.0435,4.0802,4.0302,3.9851,3.9977,3.971,3.9542,3.9767,4.0133,4.0449,4.0674,4.0702,4.0702,4.0702,4.0898,4.0882,0.0,0.0,0.0,4.2466,4.2572,4.3011,4.3922,4.3495,4.3194,4.3194,4.3685,4.3865,4.3638,4.4139,4.427,4.396,4.3875,4.3194,4.2001,4.2441,4.2684,4.2771,4.2771,4.3218,4.396,4.396,4.396,4.3889,4.3098,4.2736,4.2556,4.176,4.1836,4.2331,4.2309,4.2267,4.2229,4.2624,4.2216,4.1655,4.2218,4.2022,4.1668,4.1842,4.2183,4.2474,4.2474,4.2738,4.2864,4.2338,4.1743,4.1164,4.0612,4.0086,3.9697,3.9697,3.9697,3.9697,3.9697,3.9697,3.9697,3.9697,3.8028,3.6397,3.5361,3.3689,3.2325,3.1692,3.1113,3.0591,3.0102,2.9667,2.9237,2.8804,2.875,2.875,2.875,2.8594,2.8516,2.8516,2.8369,2.8291,2.8291,2.8291,2.8291,2.8291,2.7906,2.762,3.6885,3.767,3.8499,3.9304,3.9834,4.0123,4.0123,4.0428,4.0702,4.0702,4.0196,3.9767,0.0,0.0,3.9092,3.9697,3.9837,4.0062,4.0617,4.0702,4.0702,0.0,0.0,0.0,0.0,0.0,0.0,4.2228,0.0,4.3098,4.3146,4.3098,4.3074,4.3074,4.3122,4.3495,4.4223,4.427,4.3889,4.3074,4.2854,4.2428,4.1878,4.1629,4.1692,4.194,4.194,4.2406,4.3146,4.3146,4.3173,4.3091,4.23,4.1877,4.1647,4.084,4.0876,4.1479,4.2511,4.2694,4.2447,4.2486,4.1982,4.1453,4.206,4.225,4.2363,4.2864,4.3002,4.3002,4.3002,4.3002,4.2876,4.2348,4.1756,4.1177,4.065,4.0111,3.9697,3.9697,3.9697,3.9697,3.9697,3.9697,3.9697,3.9697,3.7687,3.6185,3.6185,3.3761,3.2019,3.2019,3.1373,3.0821,3.0528,3.0213,2.9887,2.9626,2.9598,2.9598,2.9598,2.917,2.8928,2.8928,2.8564,2.8359,2.8359,2.833,2.833,2.832,2.7684,2.7404,3.7538,3.8629,3.9642,3.9715,4.0139,4.0548,4.0548,4.0632,4.0702,4.0702,3.9866,3.9261,0.0,0.0,0.0,3.9697,4.0189,0.0,4.0674,4.0702,0.0,0.0,0.0,4.0809,4.0948,4.0674,0.0,0.0,4.1417,4.1731,4.2284,4.1781,4.1496,4.1496,4.2014,4.2137,4.1794,4.2333,4.2235,4.1496,4.1766,4.1332,4.03,4.0579,4.0882,4.1172,4.1172,4.1607,4.2308,4.2308,4.2577,4.2893,4.2089,4.1983,4.2202,4.1382,4.148,4.2001,4.2282,4.2039,4.1687,4.2131,4.2135,4.2072,4.2625,4.2801,4.2826,4.2964,4.3002,4.3002,4.3002,4.3002,4.2977,4.2826,4.2032,4.1277,4.1139,4.0349,3.9697,3.9697,3.9697,3.9697,3.9697,3.9697,3.9697,3.9697,3.7687,3.6185,3.6185,3.4064,3.2437,3.2227,3.1723,3.1205,3.0691,3.0252,2.9887,2.9626,2.9598,2.9598,2.9598,2.9491,2.9432,2.9432,2.9324,2.9276,2.9276,2.8916,2.876,2.8723,2.7817,2.7404,3.8199,3.9146,3.9991,4.0168,4.0449,4.0631,4.0364,4.0308,4.0224,3.9964,3.9149,0.0,0.0,0.0,0.0,0.0,0.0,0.0,4.0659,4.0702,4.0797,0.0,4.1007,0.0,4.0584,4.0434,4.0358,0.0,4.0706,4.1071,4.1508,4.1121,4.0908,4.0908,4.1297,4.1458,4.1383,4.1792,4.1619,4.0908,4.0907,4.0414,3.9542,3.991,4.027,4.058,0.0,4.1518,4.2207,4.2207,4.2404,4.2668,4.2087,4.2002,4.21,4.1626,4.1853,4.2343,4.2482,4.2321,4.2108,4.2449,4.2549,4.26,4.2914,4.3002,4.3002,4.3002,4.3002,4.3002,4.3002,4.3002,4.3002,4.3002,4.2145,4.1378,4.1643,4.0639,3.9697,3.9697,3.9697,3.9697,3.9697,3.9697,3.9697,3.9697,3.7687,3.6158,3.6011,3.3955,3.2459,3.2305,3.1795,3.133,3.0996,3.0607,3.0327,3.0175,3.0175,3.0175,3.0175,2.9979,2.9872,2.9872,2.9686,2.9598,2.9598,2.9354,2.9126,2.8978,2.8296,2.7794,3.8839,3.9458,4.0062,4.0561,4.0702,4.0533,3.995,3.9809,3.9627,3.9008,0.0,3.8131,3.8868,3.8488,3.846,3.9711,0.0,4.0062,4.0489,4.0559,4.0529,4.0486,4.0835,4.082,4.0104,4.046,4.044,3.9736,4.0338,4.0744,4.0744,4.0744,4.0744,4.0744,4.0744,4.1046,4.1693,4.168,4.1383,4.0732,4.0122,3.9685,3.9408,3.9615,3.9874,4.0188,4.0968,0.0,4.2289,4.2328,4.2367,4.2378,4.2153,4.1933,4.1762,4.1789,4.2087,4.2553,4.289,4.2974,4.2946,4.2974,4.3002,4.3002,4.3002,4.3002,4.3002,4.3002,4.3002,4.3002,4.3002,4.3002,4.3002,4.3002,4.2195,4.1553,4.2085,4.0941,3.9772,3.9684,3.9645,3.9633,3.9594,3.9581,3.9581,3.9581,3.758,3.5984,3.5672,3.3691,3.2277,3.219,3.1643,3.1296,3.1247,3.1025,3.0889,3.0889,3.0889,3.0889,3.0889,3.0508,3.0293,3.0293,2.996,2.9774,2.9774,2.9715,2.9518,2.9181,2.886,2.8342,3.9472,4.009,4.0561,4.0674,4.0702,4.0533,3.995,3.9809,0.0,0.0,0.0,3.8257,3.943,3.9135,0.0,4.0336,0.0,0.0,0.0,0.0,3.9926,0.0,0.0,0.0,0.0,0.0,0.0,0.0,0.0,3.9916,3.9916,3.9916,3.9916,3.9916,3.9916,3.9968,4.0109,4.0109,4.0032,3.989,3.931,3.9337,3.9968,3.9787,3.9949,4.037,4.1022,0.0,4.1182,4.141,4.1647,4.1831,4.1776,4.1876,4.2076,4.2276,4.241,4.2553,4.289,4.2806,4.2638,4.2918,4.3002,4.3002,4.3002,4.3002,4.3002,4.3002,4.3002,4.3002,4.3002,4.3002,4.3002,4.3002,4.2512,4.206,4.2187,4.1216,4.0158,3.9513,3.9374,3.9296,3.8998,3.8945,3.8945,3.8945,3.6954,3.5437,3.5371,3.3561,3.2076,3.1527,3.1354,3.1218,3.0995,3.0918,3.0889,3.0889,3.0889,3.0889,3.0889,3.081,3.0771,3.0771,3.0703,3.0664,3.0664,3.0302,2.9955,2.9651,2.9003,2.8493,3.9641,4.0224,4.0702,4.0702,4.0702,4.0364,3.9086,0.0,0.0,0.0,3.7434,3.7695,3.8636,0.0,0.0,0.0,0.0,0.0,0.0,0.0,0.0,0.0,0.0,0.0,0.0,0.0,0.0,0.0,0.0,3.9697,3.9697,3.9697,3.9697,3.9697,3.9697,3.9697,3.9697,3.9697,3.9697,3.9697,3.9088,3.9176,3.9851,3.9839,4.012,4.066,4.1536,0.0,4.1743,4.1853,4.2002,4.21,4.1764,4.1727,4.1887,4.2171,4.2284,4.234,4.2638,4.2638,4.2525,4.2694,4.275,4.275,4.275,4.2862,4.3002,4.3002,4.3002,4.3002,4.3002,4.3002,4.3002,4.3002,4.2801,4.2346,4.1318,4.0889,4.0424,3.9472,3.9154,3.8998,3.8815,3.8788,3.8593,3.7988,3.6429,3.5013,3.4236,3.2768,3.1643,3.1325,3.1189,3.1025,3.0918,3.0889,3.0889,3.0889,3.0889,3.0889,3.0889,3.0889,3.0889,3.0889,3.0889,3.0889,3.0889,3.0664,3.0325,2.9823,2.9507,2.8953,3.9732,4.0336,4.0702,4.0702,4.0702,4.021,3.8267,3.8279,0.0,0.0,3.642,3.7021,3.7706,0.0,0.0,0.0,0.0,0.0,0.0,0.0,0.0,0.0,0.0,0.0,0.0,0.0,0.0,0.0,0.0,0.0,3.9697,3.9697,3.9697,3.9697,3.9697,3.9697,3.9697,3.9697,3.9697,3.9697,3.9088,3.9132,3.9783,3.9928,4.0311,4.0942,4.1974,0.0,0.0,4.2384,4.2384,4.2259,4.1777,4.1549,4.1549,4.1859,4.1972,4.2041,4.2312,4.2413,4.2413,4.2413,4.2441,4.2525,4.2581,4.2778,4.2974,4.2918,4.289,4.289,4.289,4.2834,4.2818,4.2818,4.2818,4.2338,4.056,4.0519,4.0467,3.9338,3.8893,3.871,3.8631,3.8631,3.825,3.7096,3.5886,3.4609,3.3191,3.1959,3.1218,3.1218,3.1034,3.0889,3.0889,3.0889,3.0889,3.0889,3.0889,3.0889,3.0889,3.0889,3.0889,3.0889,3.0889,3.0889,3.0889,3.0889,3.0557,2.9892,2.9892,2.9399,4.0097,4.0659,4.0702,4.0702,4.0702,4.0167,3.8104,0.0,0.0,3.5889,3.5878,3.6476,3.7442,3.7752,3.8022,0.0,0.0,3.8261,0.0,0.0,0.0,0.0,0.0,0.0,0.0,0.0,0.0,0.0,0.0,0.0,3.9697,3.9697,3.9697,3.9697,3.9697,3.9697,3.9697,3.9697,3.9697,3.9697,3.9088,3.9329,4.0323,4.0099,4.0434,4.1198,4.1846,0.0,0.0,4.2001,4.1972,4.1692,4.1623,4.1447,4.1258,4.1521,4.1663,4.1692,4.2013,4.2126,4.2126,4.2126,4.2312,4.2553,4.2862,4.2974,4.2946,4.2638,4.2553,4.2553,4.2553,4.2369,4.2183,4.2183,4.2183,4.1875,4.0715,4.0505,4.0129,3.876,3.8473,3.8356,3.8118,3.8053,3.7681,3.6449,3.5251,3.4056,3.2874,3.1672,3.0947,3.0947,3.0918,3.0889,3.0889,3.0889,3.0889,3.0889,3.0889,3.0889,3.0889,3.0889,3.0889,3.0889,3.0889,3.0889,3.0889,3.0889,3.0557,2.9892,2.9892,2.9549,4.0216,4.0702,4.0702,4.0702,4.0702,4.009,3.7784,0.0,3.7651,3.5525,3.572,3.6406,3.6813,3.6597,3.6595,3.714,0.0,0.0,0.0,0.0,0.0,0.0,0.0,0.0,0.0,0.0,0.0,0.0,0.0,0.0,3.9697,3.9697,3.9697,3.9697,3.9697,3.9697,3.9697,3.953,3.953,3.9697,3.8919,3.9049,3.9918,3.9798,4.0105,4.0756,4.1485,0.0,0.0,4.1749,4.1732,4.1578,4.1418,4.1287,4.1242,4.1492,4.1606,4.1635,4.1761,4.1915,4.207,4.1846,4.2001,4.2284,4.2425,4.2566,4.2638,4.234,4.2256,4.2256,4.2256,4.2183,4.2041,4.1859,4.1944,4.1747,4.0477,4.019,3.9846,3.8615,3.8277,3.8118,3.8012,3.8012,3.7349,3.5427,3.4697,3.373,3.1874,3.1199,3.0889,3.0889,3.0889,3.0889,3.0889,3.0889,3.0889,3.0889,3.0889,3.0889,3.0889,3.0889,3.0889,3.0889,3.0889,3.0889,3.0889,3.0889,3.0557,2.9892,2.9892,2.9577,4.0202,4.0702,4.0702,4.0702,4.0392,3.9508,0.0,0.0,3.6775,3.4721,3.512,3.5902,3.6022,3.5697,3.562,3.6215,3.5655,3.542,0.0,0.0,0.0,0.0,0.0,0.0,0.0,0.0,0.0,0.0,0.0,0.0,3.9697,3.9607,3.9607,3.9697,3.9697,3.9697,3.9697,3.9426,3.9426,3.9697,3.8815,3.8833,3.9584,3.9434,3.9741,4.0415,4.0991,0.0,0.0,4.1476,4.1476,4.1476,4.1258,4.1213,4.1213,4.1418,4.1476,4.1476,4.1476,4.1675,4.1915,4.1692,4.1818,4.207,4.1984,4.2142,4.2312,4.2029,4.1944,4.1928,4.1842,4.1899,4.1859,4.1561,4.1537,4.1269,4.0137,3.9755,3.9379,3.8459,3.8145,3.8012,3.8012,3.8012,3.7177,3.4753,3.4391,3.3561,3.1199,3.0889,3.0889,3.0889,3.0889,3.0889,3.0889,3.0889,3.0889,3.0889,3.0889,3.0889,3.0889,3.0889,3.0889,3.0889,3.0889,3.0889,3.0889,3.0889,3.0557,2.9892,2.9892,2.9577,3.9922,4.0702,4.0702,4.0702,3.9648,3.8226,0.0,0.0,3.436,3.3331,3.3924,3.4746,3.5145,3.5383,3.562,3.6036,3.5649,0.0,0.0,0.0,0.0,0.0,0.0,0.0,0.0,0.0,0.0,0.0,0.0,0.0,3.9697,3.9452,3.9426,3.9697,3.9697,3.9697,3.9697,3.9426,3.9426,3.9697,3.8815,3.8833,3.9572,3.9059,3.9405,0.0,0.0,0.0,0.0,4.1213,4.1213,4.1213,4.1213,4.1213,4.1213,4.1213,4.1213,4.1213,4.1213,4.1361,4.1606,4.1606,4.1818,4.2041,4.1704,4.1859,4.2041,4.1692,4.1606,4.1549,4.1287,4.1402,4.1549,4.1258,4.0816,4.0258,3.9717,3.92,3.8659,3.8121,3.8012,3.8012,3.8012,3.8012,3.7177,3.4753,3.4391,3.3561,3.1199,3.0889,3.0889,3.0889,3.0889,3.0889,3.0889,3.0889,3.0889,3.0889,3.0889,3.0889,3.0889,3.0889,3.0889,3.0889,3.0889,3.0889,3.0889,3.0889,3.0557,2.9892,2.9892,2.9577,3.736,3.7856,3.7977,3.7977,3.7724,3.7128,3.5704,0.0,3.4834,3.3521,3.3714,3.4148,3.4281,3.4481,3.4983,3.6119,3.5474,0.0,0.0,0.0,0.0,0.0,0.0,0.0,0.0,0.0,0.0,0.0,0.0,0.0,3.9697,3.9607,3.962,3.9697,3.953,3.9426,3.9426,3.9114,3.8998,3.9076,3.8435,3.8362,3.8782,3.8797,3.9008,0.0,0.0,0.0,0.0,4.0643,4.086,4.1213,4.1213,4.1213,4.1213,4.1213,4.1213,4.1213,4.1213,4.1361,4.1578,4.139,4.1504,4.1704,4.1402,4.1533,4.1631,4.0954,4.1038,4.1231,4.0768,4.0728,4.0745,4.0672,4.0234,3.9717,3.9176,3.8908,3.8647,3.8082,3.8012,3.8012,3.8012,3.8012,3.7177,3.4753,3.4391,3.3561,3.1199,3.0889,3.0889,3.0889,3.0889,3.0889,3.0889,3.0889,3.0889,3.0889,3.0889,3.0889,3.0889,3.0889,3.0889,3.0889,3.0889,3.0889,3.0889,3.0889,3.0557,2.9902,2.9488,2.9192,0.0,3.6488,3.6587,3.6587,3.6278,0.0,0.0,0.0,3.3984,3.3069,3.3261,3.3588,3.3588,3.3702,3.4072,3.4967,3.4753,0.0,0.0,0.0,0.0,0.0,0.0,0.0,0.0,0.0,0.0,0.0,0.0,0.0,3.9555,3.9426,3.9374,3.9374,3.9322,3.9232,3.9102,3.8815,3.871,3.8788,3.825,3.8145,3.8394,3.848,3.8623,0.0,0.0,0.0,0.0,4.0102,4.0415,4.0912,4.0912,4.1004,4.1213,4.1213,4.1213,4.1213,4.1213,4.1316,4.1418,4.1242,4.1316,4.1382,4.1001,4.1159,4.1309,4.0592,4.0775,4.1129,4.0775,4.0691,4.0643,4.0439,3.9994,3.9465,3.8936,3.8647,3.8395,3.8046,3.8012,3.8012,3.8012,3.8012,3.7177,3.4753,3.4391,3.3561,3.1199,3.0889,3.0889,3.0889,3.0889,3.0889,3.0889,3.0889,3.0889,3.0889,3.0889,3.0889,3.0889,3.0889,3.0889,3.0889,3.0889,3.0889,3.0889,3.0655,3.0323,2.9902,2.9272,2.9014,0.0,3.6121,0.0,0.0,0.0,0.0,0.0,0.0,0.0,3.22,3.2653,3.3047,3.3047,3.3056,3.3066,3.3052,3.376,0.0,0.0,0.0,0.0,0.0,0.0,0.0,0.0,0.0,0.0,0.0,0.0,0.0,3.9296,3.8971,3.8788,3.8762,3.9076,3.9076,3.8762,3.8514,3.8514,3.8736,3.825,3.8145,3.8356,3.8118,3.8262,0.0,0.0,0.0,0.0,3.9549,3.9862,4.0343,4.0343,4.0667,4.1124,4.1124,4.1177,4.1213,4.1213,4.1213,4.1213,4.1213,4.1213,4.1076,4.0511,4.0727,4.1093,4.0499,4.0751,4.1201,4.1136,4.1124,4.1021,4.0463,3.9934,3.9405,3.8848,3.8346,3.8012,3.8012,3.8012,3.8012,3.8012,3.8012,3.7177,3.4753,3.4391,3.3561,3.1199,3.0889,3.0889,3.0889,3.0889,3.0889,3.0889,3.0889,3.0889,3.0889,3.0889,3.0889,3.0889,3.0889,3.0889,3.0889,3.0889,3.0889,3.0889,3.0225,2.9892,2.9902,2.9272,2.9014,3.3009,0.0,3.334,3.334,3.3211,3.3041,0.0,0.0,0.0,0.0,0.0,3.2404,3.2404,3.2543,3.2838,3.344,3.4101,0.0,0.0,0.0,0.0,0.0,0.0,0.0,0.0,0.0,0.0,0.0,0.0,3.8971,3.8919,3.8841,3.871,3.8488,3.8566,3.8566,3.8488,3.8435,3.833,3.8198,3.8065,3.8039,3.8092,3.8039,3.8072,0.0,0.0,0.0,3.8981,3.8981,3.9281,3.9789,3.9789,4.0114,4.0583,4.0583,4.0836,4.1213,4.1213,4.1213,4.1213,4.1213,4.1213,4.1004,4.0078,4.0439,4.0992,4.0054,4.0463,4.1117,4.0679,4.0583,4.0451,3.9922,3.9393,3.8852,3.8298,3.8096,3.8012,3.8012,3.8012,3.8012,3.8012,3.8012,3.7177,3.4753,3.4391,3.3561,3.1199,3.0889,3.0889,3.0889,3.0889,3.0889,3.0889,3.0889,3.0889,3.0889,3.0889,3.0889,3.0889,3.0889,3.0889,3.0889,3.0889,3.0889,3.0889,3.0225,2.9892,2.9902,2.9272,2.9014,3.22,3.2259,3.2318,3.2318,3.239,3.2431,3.2322,0.0,0.0,0.0,0.0,3.2096,3.1795,3.1928,0.0,3.1771,3.2879,0.0,0.0,0.0,0.0,0.0,0.0,0.0,0.0,0.0,0.0,0.0,0.0,3.8736,3.8631,3.8631,3.8488,3.8224,3.8224,3.8224,3.8224,3.8224,3.8145,3.8012,3.8012,3.8012,3.8012,3.8012,3.8012,0.0,0.0,0.0,3.8431,3.8431,3.8755,3.9248,3.9248,3.9573,4.003,4.003,4.0367,4.0824,4.0824,4.098,4.1213,4.1213,4.1213,4.1069,4.021,4.0367,4.0655,3.9838,4.0198,4.0763,4.0475,4.0391,4.0198,3.9429,3.8993,3.8632,3.8133,3.8012,3.8012,3.8012,3.8012,3.8012,3.8012,3.8012,3.7177,3.4753,3.4391,3.3561,3.1199,3.0889,3.0889,3.0889,3.0889,3.0889,3.0889,3.0889,3.0889,3.0889,3.0889,3.0889,3.0889,3.0889,3.0889,3.0889,3.0889,3.0889,3.0889,3.0372,3.0039,2.9902,2.945,2.9153,3.2065,3.2132,3.2236,3.2209,3.22,3.22,3.22,0.0,0.0,0.0,0.0,0.0,0.0,0.0,0.0,0.0,0.0,0.0,0.0,0.0,0.0,0.0,0.0,0.0,0.0,0.0,0.0,0.0,0.0,3.8579,3.8356,3.833,3.8224,3.8012,3.8012,3.8012,3.8012,3.8012,3.8012,3.8012,3.8012,3.8012,3.8012,3.8012,3.8012,3.8012,0.0,0.0,3.8012,3.8012,3.8262,3.8695,3.8695,3.902,3.9489,3.9489,3.9874,4.0403,4.0487,4.0812,4.1213,4.1213,4.1124,4.0996,4.0439,4.0222,4.0078,3.9705,3.9934,4.0282,4.0282,4.0282,4.003,3.9056,3.8788,3.8632,3.8133,3.8012,3.8012,3.8012,3.8012,3.8012,3.8012,3.8012,3.723,3.5002,3.4531,3.3618,3.145,3.1005,3.0889,3.0889,3.0889,3.0889,3.0889,3.0889,3.0889,3.0889,3.0889,3.0889,3.0889,3.0889,3.0889,3.0889,3.0889,3.0889,3.0889,3.0567,3.0245,2.9892,2.9627,2.9331,3.1436,3.1886,3.2332,3.2218,3.22,3.22,3.22,0.0,0.0,0.0,0.0,0.0,0.0,0.0,0.0,0.0,0.0,0.0,0.0,0.0,0.0,0.0,0.0,0.0,0.0,0.0,0.0,0.0,0.0,3.8092,3.8065,3.8065,3.8039,3.8012,3.8012,3.8012,3.8012,3.8012,3.8012,3.8012,3.8012,3.8012,3.8012,3.8012,3.8012,3.8012,0.0,3.8012,3.8012,3.8012,3.806,3.8106,3.8106,3.8443,3.8908,3.8908,3.9561,4.0451,4.0908,4.1141,4.1213,4.1213,4.0884,4.0415,3.9886,3.9417,3.9101,3.9501,3.9669,3.9729,3.9729,3.9729,3.9573,3.896,3.8788,3.8632,3.8133,3.8012,3.8012,3.8012,3.8012,3.8012,3.8012,3.8012,3.7521,3.6122,3.5057,3.3927,3.26,3.1537,3.0889,3.0889,3.0889,3.0889,3.0889,3.0889,3.0889,3.0889,3.0889,3.0889,3.0889,3.0889,3.0889,3.0889,3.0889,3.0889,3.0889,3.0567,3.0245,2.9892,2.9627,2.9331,3.1205,3.1537,3.189,3.2216,3.2364,3.2414,0.0,0.0,0.0,0.0,0.0,0.0,0.0,0.0,0.0,0.0,0.0,0.0,0.0,0.0,0.0,0.0,0.0,0.0,0.0,0.0,0.0,0.0,0.0,0.0,3.8012,3.8012,3.8012,3.8012,3.8012,3.8012,3.8012,3.8012,3.8012,3.8012,3.8012,3.8012,3.8012,3.8012,3.8012,3.8012,0.0,3.8012,3.8012,3.8012,3.8012,3.8012,3.8012,3.8142,3.8443,3.9032,3.9549,4.009,4.0896,4.1213,4.1136,4.0848,4.0787,4.0727,4.0186,3.9862,3.9717,3.9958,3.9826,3.9609,3.9609,3.9826,3.9753,3.8635,3.8599,3.8632,3.8133,3.8012,3.8012,3.8012,3.8012,3.8012,3.8012,3.8012,3.7601,3.6367,3.5168,3.3983,3.2856,3.1653,3.0889,3.0889,3.0889,3.0889,3.0889,3.0889,3.0889,3.0889,3.0889,3.0889,3.0889,3.0889,3.0889,3.0889,3.0889,3.0889,3.0889,3.0762,3.0401,2.9892,2.9774,2.945,3.092,3.1216,3.1541,3.2393,3.2714,0.0,0.0,0.0,0.0,0.0,0.0,0.0,0.0,0.0,0.0,0.0,0.0,0.0,0.0,0.0,0.0,0.0,0.0,0.0,0.0,0.0,0.0,0.0,0.0,0.0,3.8012,3.8012,3.8012,3.8012,3.8012,3.8012,3.8012,3.8012,3.8012,3.8012,3.8012,3.8012,3.8012,3.8012,3.8012,3.8012,3.8012,3.8012,3.8012,3.8012,3.8012,3.8012,3.8012,3.8012,3.8145,3.92,3.9525,3.9573,4.0631,4.092,4.0751,4.0343,4.0403,4.0547,4.015,3.9934,3.9862,3.9982,3.9826,3.9609,3.9609,3.991,3.9862,3.8503,3.8503,3.8632,3.8133,3.8012,3.8012,3.8012,3.8012,3.8012,3.8012,3.8012,3.7681,3.6758,3.5361,3.4084,3.3204,3.1816,3.0889,3.0889,3.0889,3.0889,3.0889,3.0889,3.0889,3.0889,3.0889,3.0889,3.0889,3.0889,3.0889,3.0889,3.0889,3.0889,3.0889,3.0889,3.0557,2.9892,2.9892,2.9577,3.0296,3.0958,3.1764,3.2942,3.3289,0.0,3.2706,3.347,0.0,3.2677,0.0,0.0,0.0,0.0,0.0,0.0,0.0,0.0,0.0,0.0,0.0,0.0,0.0,0.0,0.0,0.0,0.0,0.0,0.0,0.0,3.8012,3.8012,3.8012,3.8012,3.8012,3.8012,3.8012,3.8012,3.8012,3.8012,3.8012,3.8012,3.8012,3.8012,3.8012,3.8012,3.8012,3.8012,3.8012,3.8012,3.8012,3.8012,3.8012,3.8012,3.8145,3.92,3.9269,3.8993,4.009,4.0126,3.9717,3.9681,3.9357,3.8957,3.8921,3.8575,3.8262,3.8791,3.926,3.9609,3.9609,3.9633,3.9513,3.89,3.8764,3.8632,3.8133,3.8012,3.8012,3.8012,3.8012,3.8012,3.8012,3.8012,3.7986,3.7868,3.5881,3.4363,3.428,3.2313,3.0889,3.0889,3.0889,3.0889,3.0889,3.0889,3.0889,3.0889,3.0889,3.0889,3.0889,3.0889,3.0889,3.0889,3.0889,3.0889,3.0889,3.0889,3.0557,2.9892,2.9892,2.9577,3.0116,3.0654,3.1249,3.2534,3.3185,0.0,0.0,3.3386,3.338,3.2398,3.2587,0.0,0.0,0.0,0.0,0.0,0.0,0.0,0.0,0.0,0.0,0.0,0.0,0.0,0.0,0.0,0.0,0.0,0.0,0.0,3.7,3.7,3.7,3.7,3.7324,3.7493,3.7493,3.7844,3.8012,3.8012,3.8012,3.8012,3.8012,3.8012,3.8012,3.8012,3.8012,3.8012,3.8012,3.8012,3.8012,3.8012,3.8012,3.8012,3.8096,3.8839,3.8957,3.8924,3.9657,3.9777,3.9549,3.9224,3.9173,3.9248,3.8896,3.89,3.9032,3.9248,3.9453,3.9525,3.9173,3.9609,3.9789,3.8587,3.8563,3.8632,3.8133,3.8012,3.8012,3.8012,3.8012,3.8012,3.8012,3.8012,3.7904,3.7541,3.5511,3.3907,3.3584,3.151,3.0097,3.0097,3.0331,3.0576,3.0869,3.0889,3.0889,3.0889,3.0889,3.0889,3.0889,3.0889,3.0889,3.0889,3.0889,3.0791,3.0606,3.0606,3.0284,2.9656,2.9656,2.942,2.9796,3.0033,3.0385,3.2098,0.0,0.0,3.3305,3.3664,3.3692,3.2899,3.3187,0.0,0.0,0.0,0.0,0.0,0.0,0.0,0.0,0.0,0.0,0.0,0.0,0.0,0.0,0.0,0.0,0.0,0.0,0.0,0.0,3.6411,3.6411,3.6411,3.6759,3.694,3.694,3.73,3.7481,3.7481,3.7481,3.7565,3.7733,3.7565,3.7481,3.7481,3.7481,3.7481,3.7481,3.7481,3.7481,3.7481,3.7481,3.7589,3.7793,3.8346,3.8551,3.8623,3.9164,3.9248,3.9032,3.8671,3.8803,3.9032,3.8659,3.8803,3.9092,3.9092,3.9224,3.9209,3.8695,3.9345,3.9826,3.8551,3.8539,3.8632,3.8133,3.8012,3.8012,3.8012,3.813,3.819,3.8036,3.8012,3.7688,3.6835,3.4903,3.3274,3.2583,3.0805,2.9598,2.9598,2.9852,3.0185,3.0635,3.0674,3.0732,3.0879,3.0889,3.0889,3.0889,3.0889,3.0889,3.0889,3.0791,3.0635,3.0382,3.0294,2.9971,2.9499,2.9499,2.9331,2.9188,2.9062,0.0,0.0,0.0,0.0,3.3102,3.4423,3.5191,3.4522,0.0,0.0,0.0,0.0,0.0,0.0,0.0,0.0,0.0,0.0,0.0,0.0,0.0,0.0,0.0,0.0,0.0,0.0,0.0,0.0,0.0,3.6386,3.6386,3.6386,3.6398,3.6398,3.6398,3.6411,3.6411,3.6411,3.6398,3.6675,3.7168,3.6639,3.6411,3.6411,3.6411,3.6411,3.6411,3.6411,3.6411,3.6411,3.6411,3.6723,3.7252,3.7808,3.8,3.8072,3.8611,3.8443,3.8012,3.8012,3.8012,3.8012,3.8012,3.8012,3.8012,3.8012,3.8383,3.8683,3.813,3.8779,3.9453,3.8908,3.8788,3.8659,3.8106,3.8012,3.8012,3.8012,3.8431,3.8608,3.8082,3.8,3.7426,3.5839,3.4092,3.2609,3.1523,3.0336,2.9588,2.9588,2.9588,2.9764,3.0156,3.0195,3.0391,3.0859,3.0889,3.0889,3.0889,3.0889,3.0889,3.0889,3.0548,3.0382,3.0353,3.0039,2.9715,2.947,2.947,2.9272,2.9814,3.0142,0.0,0.0,0.0,0.0,0.0,3.3292,0.0,0.0,0.0,0.0,0.0,0.0,0.0,0.0,0.0,0.0,0.0,0.0,0.0,0.0,0.0,0.0,0.0,0.0,0.0,0.0,0.0,0.0,0.0,3.5268,3.5268,3.5268,3.5628,3.5832,3.5832,3.6218,3.6411,3.6398,3.6026,3.6134,3.6627,3.6471,3.6411,3.6411,3.6411,3.6411,3.6411,3.6411,3.6411,3.6411,3.6411,3.6507,3.6663,3.6819,3.7108,3.7457,3.7625,3.7817,3.8012,3.8012,3.8012,3.8012,3.8012,3.8012,3.8012,3.8012,3.8106,3.819,3.8048,3.8253,3.8419,3.8262,3.8238,3.819,3.8022,3.8012,3.8121,3.8491,3.8383,3.8178,3.8036,3.7699,3.677,3.4765,3.3377,3.1767,2.9517,2.8905,2.8779,2.9082,2.9111,2.9287,2.9745,3.0029,3.0254,3.0391,3.0713,3.0889,3.0889,3.0889,3.046,2.9501,2.9412,2.8772,2.7667,2.7327,2.7034,2.6749,2.6459,2.6277,2.9398,0.0,0.0,0.0,0.0,0.0,0.0,0.0,0.0,0.0,0.0,0.0,0.0,0.0,0.0,0.0,0.0,0.0,0.0,0.0,0.0,0.0,0.0,0.0,0.0,0.0,0.0,0.0,0.0,0.0,0.0,3.4799,3.4799,3.4799,3.5111,3.528,3.528,3.5592,3.5748,3.5748,3.5436,3.5448,3.5748,3.5748,3.5748,3.5748,3.5748,3.5748,3.5748,3.5748,3.5748,3.5748,3.5748,3.588,3.6086,3.6086,3.6423,3.6904,3.712,3.7397,3.7735,3.794,3.8012,3.8012,3.8012,3.8012,3.8012,3.8012,3.8012,3.8012,3.8012,3.8012,3.8012,3.8012,3.8012,3.8012,3.8012,3.8012,3.8109,3.8419,3.8395,3.8238,3.8048,3.7457,3.6244,3.4006,3.2017,3.0163,2.8507,2.8291,2.8389,2.8643,2.8672,2.8848,2.9277,2.9541,2.9766,2.996,3.0371,3.0615,3.0615,3.0791,3.0274,2.892,2.8653,2.7808,2.6299,2.5835,2.5515,2.5348,2.5117,2.4994,2.8518,0.0,0.0,0.0,0.0,0.0,0.0,0.0,0.0,0.0,0.0,0.0,0.0,0.0,0.0,0.0,0.0,0.0,0.0,0.0,0.0,0.0,0.0,0.0,0.0,0.0,0.0,0.0,0.0,0.0,0.0,3.4799,3.4799,3.4799,3.4799,3.4799,3.4799,3.4799,3.4799,3.4799,3.4799,3.4799,3.4799,3.4799,3.4799,3.4799,3.4799,3.4799,3.4799,3.4799,3.4799,3.4799,3.4799,3.5099,3.552,3.552,3.5881,3.6411,3.6892,3.7084,3.7204,3.7711,3.7904,3.794,3.794,3.7964,3.8012,3.8012,3.8012,3.8012,3.8012,3.8012,3.8012,3.8012,3.8012,3.8012,3.8012,3.8012,3.8024,3.8046,3.8431,3.856,3.799,3.7165,3.5814,3.3376,3.0304,2.8291,2.8291,2.8291,2.8291,2.8291,2.8291,2.8447,2.8801,2.8869,2.9092,2.951,2.9931,3.0137,3.0108,3.0596,3.0245,2.89,2.8185,2.7147,2.5835,2.5048,2.4687,2.4687,2.4656,2.4656,0.0,3.0158,0.0,0.0,0.0,0.0,0.0,0.0,0.0,0.0,0.0,0.0,0.0,0.0,0.0,0.0,0.0,0.0,0.0,0.0,0.0,0.0,0.0,0.0,0.0,0.0,0.0,0.0,0.0,0.0,3.4799,3.4799,3.4799,3.4799,3.4799,3.4799,3.4799,3.4799,3.4799,0.0,3.4799,3.4799,3.4799,3.4799,3.4799,3.4799,3.4799,3.4799,3.4799,3.4799,3.4799,3.4799,3.4799,3.4871,3.4979,3.4979,3.5304,3.5784,3.5892,3.623,3.6591,3.6711,3.7024,3.736,3.736,3.7675,3.8012,3.8012,3.8012,3.8012,3.8012,3.8012,3.8012,3.8012,3.8012,3.8012,3.8012,3.8012,3.8106,3.8551,3.8383,3.7905,3.7116,3.647,3.5036,3.1944,2.9657,2.8291,2.8291,2.8291,2.8291,2.8291,2.8291,2.833,2.8418,2.873,2.8928,2.9053,2.9463,2.9623,2.9351,3.0074,2.9912,2.862,2.7177,2.5804,2.4502,2.3052,2.2317,2.2317,2.2073,2.194,0.0,0.0,0.0,0.0,0.0,0.0,0.0,0.0,0.0,0.0,0.0,0.0,0.0,0.0,0.0,0.0,0.0,0.0,0.0,0.0,0.0,0.0,0.0,0.0,0.0,0.0,0.0,0.0,0.0,3.409,3.409,3.4294,3.4426,3.4426,3.4667,3.4799,3.4799,3.4799,3.4799,3.4799,3.4799,3.4799,3.4799,3.4799,3.4799,3.4799,3.4799,3.4799,3.4799,3.4799,3.4799,3.4799,3.4799,3.4799,3.4799,3.4799,3.4979,3.5256,3.5508,3.5772,3.6062,3.6326,3.6591,3.6819,3.6819,3.718,3.7627,3.7627,3.7808,3.8012,3.8012,3.8012,3.8012,3.8012,3.8012,3.8012,3.8012,3.8012,3.8096,3.8359,3.8178,3.7708,3.6862,3.5452,3.3632,3.1131,2.9671,2.8704,2.8347,2.8291,2.8291,2.8291,2.8291,2.8291,2.8291,2.8496,2.8613,2.8613,2.9023,2.9175,2.9018,2.8813,2.8482,2.7976,2.7151,2.5774,2.3853,2.2803,2.2003,2.1362,2.1172,2.1109,0.0,0.0,0.0,0.0,0.0,0.0,0.0,0.0,0.0,0.0,0.0,0.0,0.0,0.0,0.0,0.0,0.0,0.0,0.0,0.0,0.0,0.0,0.0,0.0,0.0,0.0,0.0,0.0,0.0,3.3284,3.3284,3.3657,3.3886,3.3886,3.4318,3.4535,3.4535,3.4619,3.4667,3.4667,3.4763,3.4799,3.4799,3.4799,3.4799,3.4799,3.4799,3.4799,3.4799,3.4799,3.4799,3.4799,3.4799,3.4799,3.4799,3.4799,3.4799,3.4871,3.5304,3.546,3.5532,3.599,3.6194,3.6266,3.6266,3.6639,3.706,3.706,3.7372,3.776,3.7856,3.7868,3.7904,3.7988,3.8012,3.8012,3.8012,3.8012,3.8012,3.8012,3.7761,3.7281,3.639,3.4257,3.2169,3.0734,2.9859,2.9122,2.8403,2.8291,2.8291,2.8291,2.8291,2.8291,2.8291,2.8291,2.8291,2.8291,2.8613,2.8754,2.8645,2.7651,2.7079,2.7049,2.6759,2.5525,2.3371,2.2853,2.2029,2.0924,2.0924,2.0924,0.0,0.0,0.0,0.0,0.0,0.0,0.0,0.0,0.0,0.0,0.0,0.0,0.0,0.0,0.0,0.0,0.0,0.0,0.0,0.0,0.0,0.0,0.0,0.0,0.0,0.0,0.0,0.0,3.3032,3.3284,3.3284,3.3356,3.3392,3.3392,3.3452,3.3501,3.3501,3.3898,3.4126,3.4102,3.4583,3.4799,3.4799,3.4799,3.4799,3.4799,3.4799,3.4799,3.4799,3.4799,3.4799,3.4799,3.4799,3.4799,3.4799,3.4799,3.4799,3.4811,3.4883,3.4907,3.4919,3.4991,3.5328,3.5725,3.5725,3.6086,3.6507,3.6507,3.6567,3.6723,3.718,3.73,3.7409,3.7904,3.8012,3.8012,3.8012,3.8012,3.8012,3.8012,3.6785,3.5449,3.4514,3.291,3.1477,3.0623,2.9859,2.9122,2.8403,2.8291,2.8291,2.8291,2.8291,2.8291,2.8291,2.8291,2.8291,2.8291,2.834,2.8164,2.7615,2.7758,2.7149,2.5708,2.3842,2.2744,2.2392,2.1178,2.05,2.0317,2.0317,2.0317,2.8884,0.0,0.0,0.0,0.0,0.0,0.0,0.0,0.0,0.0,0.0,0.0,0.0,0.0,0.0,0.0,0.0,0.0,0.0,0.0,0.0,0.0,0.0,0.0,0.0,0.0,0.0,0.0,3.2273,3.2393,3.2393,3.2683,3.2851,3.2851,3.3128,3.3284,3.3284,3.3501,3.3742,3.4006,3.4547,3.4799,3.4799,3.4799,3.4799,3.4799,3.4799,3.4799,3.4799,3.4799,3.4799,3.4799,3.4799,3.4799,3.4799,3.4799,3.4799,3.4799,3.4799,3.4799,3.4799,3.4799,3.4967,3.5147,3.5147,3.552,3.594,3.594,3.6182,3.6459,3.6687,3.6747,3.6807,3.7048,3.7096,3.718,3.7481,3.7796,3.8012,3.8012,3.6165,3.4636,3.4747,3.3144,3.1515,3.0623,3.0005,2.9311,2.8403,2.8291,2.8291,2.8291,2.8291,2.8291,2.8291,2.8291,2.8237,2.8104,2.8067,2.7853,2.7431,2.6783,2.5744,2.4311,2.4293,2.3646,2.2207,2.1616,2.0939,2.0204,2.0204,2.0204,0.0,0.0,0.0,0.0,0.0,0.0,0.0,0.0,0.0,0.0,0.0,0.0,0.0,0.0,0.0,0.0,0.0,0.0,0.0,0.0,0.0,0.0,0.0,0.0,0.0,0.0,0.0,0.0,3.1705,3.1705,3.1705,3.208,3.2286,3.2286,3.2671,3.2898,3.2898,3.3043,3.3344,3.3826,3.4222,3.4475,3.4607,3.4607,3.4679,3.4799,3.4799,3.4799,3.4799,3.4799,3.4799,3.4799,3.4799,3.4799,3.4799,3.4799,3.4799,3.4799,3.4799,3.4799,3.4799,3.4799,3.4799,3.4799,3.4799,3.5075,3.54,3.54,3.5676,3.6013,3.617,3.6206,3.6242,3.6374,3.6411,3.6555,3.7084,3.7613,3.7832,3.7263,3.5536,3.4223,3.4362,3.2965,3.1518,3.0552,3.0071,2.9456,2.851,2.8344,2.8291,2.8291,2.8291,2.8264,2.8211,2.8211,2.8077,2.7799,2.7493,2.716,2.6835,2.5488,2.4145,2.2858,2.4126,2.3679,2.1499,2.1499,2.0972,2.0013,2.0013,2.0013,0.0,0.0,0.0,0.0,0.0,0.0,0.0,0.0,0.0,0.0,0.0,0.0,0.0,0.0,0.0,0.0,0.0,0.0,0.0,0.0,0.0,0.0,0.0,0.0,0.0,0.0,0.0,0.0,3.1705,3.1705,3.1705,3.1741,3.1731,3.1731,3.1777,3.1767,3.1767,3.2297,3.2803,3.3332,3.3356,3.3621,3.403,3.403,3.433,3.4799,3.4799,3.4799,3.4799,3.4799,3.4799,3.4799,3.4799,3.4799,3.4799,3.4799,3.4799,3.4799,3.4799,3.4799,3.4799,3.4799,3.4799,3.4799,3.4799,3.4823,3.4847,3.4847,3.4871,3.5003,3.5508,3.5628,3.576,3.629,3.6411,3.6555,3.7084,3.7613,3.7367,3.529,3.4769,3.4014,3.1971,3.1505,3.1165,3.0346,2.9968,2.9537,2.8787,2.8461,2.8291,2.8291,2.8291,2.8211,2.7933,2.7933,2.7772,2.7458,2.6354,2.5598,2.5323,2.4145,2.281,2.1345,2.1403,2.0831,1.9558,1.9558,1.95,1.9441,1.9441,1.9441,0.0,0.0,0.0,0.0,0.0,0.0,0.0,0.0,0.0,0.0,0.0,0.0,0.0,0.0,0.0,0.0,0.0,0.0,0.0,0.0,0.0,0.0,0.0,0.0,0.0,0.0,0.0,0.0,0.0,3.1705,3.1705,3.1705,3.1705,3.1705,3.1705,3.1705,3.1705,3.2214,3.2599,3.2791,3.3151,3.3392,3.3561,3.3561,3.3814,3.4306,3.4306,3.4487,3.4799,3.4799,3.4799,3.4799,3.4799,3.4799,3.4799,3.4799,3.4799,3.4799,3.4799,3.4799,3.4799,3.4799,3.4799,3.4799,3.4799,3.4799,3.4799,3.4799,3.4799,3.4847,3.5039,3.5087,3.5001,3.4672,3.4878,3.5031,3.4707,3.5016,3.53,3.5075,3.3687,3.2521,3.2286,3.1508,3.0729,3.0032,2.9608,2.9126,2.8534,2.8211,2.804,2.804,2.7853,2.7674,2.7593,2.7584,2.7449,2.7152,2.6736,2.6036,2.4991,2.4539,2.3331,2.1231,2.1203,2.0608,1.9395,1.9395,1.9395,1.9395,1.9395,1.9395,2.5542,0.0,0.0,0.0,0.0,0.0,0.0,0.0,0.0,0.0,0.0,0.0,0.0,0.0,0.0,0.0,0.0,0.0,0.0,0.0,0.0,0.0,0.0,0.0,0.0,0.0,0.0,0.0,0.0,0.0,3.1705,3.1705,3.1705,3.1705,3.1705,3.1705,3.1705,3.2056,3.2214,3.2248,3.2597,3.2862,3.302,3.302,3.3308,3.3778,3.3946,3.4294,3.4799,3.4799,3.4799,3.4799,3.4799,3.4799,3.4799,3.4799,3.4799,3.4799,3.4799,3.4799,3.4799,3.4799,3.4799,3.4799,3.4799,3.4799,3.4799,3.4799,3.4604,3.4397,3.4397,3.42,3.3844,3.3214,3.3339,3.3413,3.2788,3.3339,3.3975,3.4105,3.2778,3.1638,3.1779,3.0983,3.02,2.9789,2.9216,2.8708,2.8344,2.797,2.7718,2.7718,2.753,2.735,2.726,2.7269,2.7152,2.689,2.61,2.5212,2.4242,2.3424,2.222,2.0637,2.0615,2.0184,1.9395,1.9395,1.9395,1.9395,1.9395,1.9395,0.0,0.0,0.0,0.0,0.0,0.0,0.0,0.0,0.0,0.0,0.0,0.0,0.0,0.0,0.0,0.0,0.0,0.0,0.0,0.0,0.0,0.0,0.0,0.0,0.0,0.0,0.0,0.0,3.1705,3.1705,3.1705,3.1705,3.1705,3.1705,3.1705,3.1705,3.1705,3.1705,3.1705,3.1705,3.1705,3.1972,3.2478,3.2478,3.2767,3.3296,3.3766,3.4282,3.4787,3.4799,3.4799,3.4799,3.4799,3.4799,3.4799,3.4799,3.4799,3.4799,3.4799,3.4799,3.4799,3.4799,3.4799,3.4799,3.4799,3.4775,3.475,3.475,3.4189,3.3573,3.3573,3.2976,3.2333,3.2033,3.1946,3.1869,3.1575,3.276,3.3487,3.2206,3.1935,3.1506,3.0198,2.9748,2.958,2.9554,2.885,2.8291,2.8291,2.7755,2.7377,2.7377,2.7377,2.7269,2.7016,2.6989,2.6863,2.6555,2.4362,2.303,2.2946,2.0694,1.9453,1.9395,1.9395,1.9395,1.9395,1.9395,1.9395,1.9395,1.9395,1.9395,2.3758,0.0,0.0,0.0,0.0,0.0,0.0,0.0,0.0,0.0,0.0,0.0,0.0,0.0,0.0,0.0,0.0,0.0,0.0,0.0,0.0,0.0,0.0,0.0,0.0,0.0,0.0,0.0,3.1705,3.1705,3.1705,3.1705,3.1705,3.1705,3.1705,3.1705,3.1705,3.1705,3.1705,3.1705,3.1705,3.1767,3.1912,3.1912,3.2224,3.2731,3.2863,3.3405,3.4258,3.4643,3.4799,3.4799,3.4799,3.4799,3.4799,3.4799,3.4799,3.4799,3.4799,3.4799,3.4799,3.4799,3.4799,3.4799,3.4799,3.4385,3.3931,3.3931,3.335,3.2737,3.2737,3.2561,3.212,3.1026,3.0757,3.0535,2.9697,3.0007,3.0522,3.0778,3.0323,2.9723,2.9168,2.9158,2.9105,2.8717,2.8451,2.8237,2.804,2.7476,2.7098,2.7098,2.6954,2.68,2.6718,2.6718,2.63,2.5376,2.4667,2.3516,2.1765,2.106,2.0299,1.9424,1.9395,1.9395,1.9395,1.9395,1.9395,1.9395,1.9395,1.9395,0.0,0.0,0.0,0.0,0.0,0.0,2.6281,2.7085,0.0,0.0,0.0,0.0,0.0,0.0,0.0,0.0,0.0,0.0,0.0,0.0,0.0,0.0,0.0,0.0,0.0,3.1705,3.1705,3.1705,3.1705,3.1705,3.1705,3.1705,3.1705,3.1705,3.1705,3.1705,3.1705,3.1705,3.1705,3.1705,3.1705,3.1705,3.1705,3.1705,3.1863,3.2166,3.2269,3.2667,3.3277,3.3923,3.4425,3.4799,3.4799,3.4667,3.4474,3.4727,3.4667,3.4511,3.4727,3.4799,3.4799,3.4799,3.4568,3.436,3.4702,3.3992,3.3176,3.3499,3.27,3.1622,3.1161,3.1032,3.08,2.9854,2.9539,2.9276,2.8671,2.8575,2.8883,2.9874,2.9675,2.9264,2.9095,2.8999,2.8824,2.8514,2.8291,2.8067,2.7933,2.7476,2.7125,2.7016,2.6863,2.6718,2.6618,2.6591,2.63,2.5605,2.4612,2.3424,2.2021,2.0981,2.0133,1.9424,1.9395,1.9395,1.9395,1.9395,1.9395,1.9395,1.9395,1.9395,0.0,0.0,0.0,0.0,0.0,0.0,2.6135,2.6604,2.7048,0.0,0.0,0.0,0.0,0.0,0.0,0.0,0.0,0.0,0.0,0.0,0.0,0.0,0.0,0.0,3.1705,3.1705,3.1705,3.1705,3.1705,3.1705,3.1705,3.1705,3.1683,3.1661,3.1683,3.1683,3.1661,3.1683,3.1705,3.1705,3.1705,3.1705,3.1705,3.1661,3.1661,3.1675,3.1896,3.2008,3.2104,3.283,3.3743,3.4666,3.4738,3.4462,3.4054,3.4522,3.433,3.3958,3.4462,3.4642,3.4654,3.4738,3.4262,3.3832,3.4568,3.3671,3.246,3.2964,3.1906,3.037,2.9359,2.9105,2.9026,2.8727,2.8488,2.8291,2.8264,2.8094,2.8254,2.9264,2.9422,2.9396,2.9369,2.893,2.8621,2.8621,2.8157,2.7853,2.7853,2.753,2.7215,2.6989,2.6962,2.6863,2.6609,2.6591,2.65,2.6218,2.4186,2.289,2.2608,2.0551,1.9395,1.9395,1.9395,1.9395,1.9395,1.9395,1.9395,1.9395,1.9395,1.9395,0.0,0.0,0.0,0.0,0.0,0.0,2.4307,2.4699,2.5066,0.0,0.0,0.0,0.0,0.0,0.0,0.0,0.0,0.0,0.0,0.0,0.0,0.0,0.0,0.0,3.1669,3.1705,3.1705,3.1705,3.1705,3.1705,3.1705,3.1705,3.1594,3.1373,3.1594,3.1594,3.1373,3.1594,3.1705,3.1705,3.1705,3.1705,3.1683,3.1484,3.1373,3.1373,3.1246,3.1439,3.1793,3.1959,3.2759,3.3959,3.434,3.4281,3.3982,3.3935,3.3589,3.316,3.3469,3.3574,3.3694,3.429,3.4372,3.4299,3.4677,3.3535,3.1768,3.0375,2.9717,2.9386,2.9158,2.9105,2.8973,2.8478,2.8344,2.8237,2.8014,2.8104,2.8291,2.8504,2.8388,2.8147,2.7879,2.797,2.8067,2.8067,2.7745,2.7512,2.7512,2.7062,2.6745,2.6691,2.6691,2.6664,2.6591,2.6591,2.577,2.3824,2.3255,2.2135,2.0184,1.9649,1.9395,1.9395,1.9395,1.9395,1.9395,1.9395,1.9395,1.9395,1.9395,1.9395,0.0,0.0,0.0,2.462,0.0,0.0,0.0,2.4927,2.5054,0.0,0.0,0.0,0.0,0.0,0.0,0.0,0.0,0.0,0.0,0.0,0.0,0.0,0.0,0.0,3.1238,3.1286,3.1362,3.1494,3.1506,3.1506,3.1506,3.1506,3.1506,3.1506,3.1639,3.1572,3.1306,3.1439,3.1439,3.134,3.134,3.134,3.134,3.1206,3.1139,3.1139,3.0893,3.074,3.0606,3.0754,3.1037,3.154,3.2921,3.3375,3.3232,3.3138,3.2759,3.2357,3.2759,3.29,3.2935,3.3196,3.2831,3.2375,3.2818,3.2036,3.0675,2.929,2.8903,2.8877,2.8744,2.8708,2.8601,2.8201,2.797,2.7809,2.7674,2.7755,2.7862,2.7862,2.7879,2.7879,2.7853,2.7879,2.7906,2.7906,2.7745,2.7593,2.7431,2.7171,2.6954,2.6818,2.6254,2.5862,2.5706,2.5146,2.4306,2.3095,2.2446,2.1574,2.0357,1.9707,1.9395,1.9395,1.9395,1.9395,1.9395,1.9395,1.9395,1.9395,1.9395,1.9395,0.0,0.0,0.0,0.0,0.0,2.4809,0.0,0.0,0.0,0.0,0.0,0.0,0.0,0.0,0.0,0.0,0.0,0.0,0.0,0.0,0.0,0.0,0.0,0.0,0.0,3.0744,3.0817,3.1007,3.1053,3.11,3.1151,3.1151,3.1265,3.1562,3.1562,3.1451,3.116,3.1217,3.1162,3.1006,3.1006,3.1006,3.1006,3.095,3.0927,3.0893,3.0406,2.9863,2.9316,2.9305,2.9155,2.9205,3.1374,3.2183,3.2148,3.2242,3.1856,3.1344,3.1821,3.1901,3.1769,3.1707,3.1065,3.039,3.0665,3.0348,2.9723,2.8877,2.8621,2.8568,2.8344,2.8291,2.8237,2.796,2.7691,2.7485,2.7404,2.7404,2.7377,2.7314,2.753,2.7799,2.8077,2.7943,2.7799,2.7799,2.7772,2.7638,2.735,2.7269,2.7161,2.6944,2.6036,2.5368,2.5174,2.4047,2.3263,2.3002,2.1879,2.1096,2.0866,1.9902,1.9395,1.9395,1.9395,1.9368,1.9308,1.9308,1.9341,1.9395,1.9395,1.9395,0.0,0.0,0.0,0.0,2.5075,0.0,0.0,0.0,0.0,0.0,0.0,0.0,0.0,0.0,0.0,0.0,0.0,0.0,0.0,0.0,0.0,0.0,0.0,0.0,0.0,3.0191,3.0121,2.9972,3.0151,3.0376,3.066,3.0628,3.0743,3.1072,3.1084,3.0938,3.069,3.0927,3.1029,3.1006,3.1006,3.1006,3.0995,3.0747,3.0645,3.0577,2.9274,2.869,2.8521,2.7484,2.7661,2.8731,3.0487,3.1031,3.0856,3.1356,3.0778,2.9804,3.0088,2.9723,2.9251,2.9943,3.0458,3.0664,2.9775,2.9689,2.9697,2.8654,2.8354,2.8344,2.8318,2.8291,2.8237,2.796,2.7879,2.7772,2.7449,2.7404,2.7323,2.7098,2.7071,2.7179,2.7458,2.7485,2.7458,2.7458,2.726,2.7098,2.7043,2.6845,2.6664,2.6636,2.6527,2.6418,2.6391,2.5284,2.4131,2.3067,2.1879,2.0723,1.9649,1.9482,1.9395,1.9395,1.9395,1.9239,1.895,1.895,1.9112,1.9395,1.9395,1.9395,0.0,0.0,0.0,0.0,0.0,0.0,0.0,0.0,2.4566,0.0,0.0,0.0,0.0,0.0,0.0,0.0,0.0,0.0,0.0,0.0,0.0,0.0,0.0,0.0,0.0,0.0,0.0,0.0,2.9643,2.9695,2.9717,2.9707,2.9877,3.0296,3.0154,3.0012,2.9901,2.9893,2.9827,2.9662,2.9662,2.9453,2.9078,2.8956,2.8712,2.8299,2.7709,2.7219,2.678,2.6274,2.6102,2.6241,2.7403,2.8643,2.972,2.968,2.9212,2.8651,2.8764,2.8718,2.8628,2.8537,2.8469,2.8274,2.7587,2.7562,2.7665,2.7217,2.72,2.7305,2.7305,2.7305,2.7294,2.728,2.7152,2.7004,2.6952,2.7053,2.7125,2.7016,2.7125,2.7206,2.7179,2.7179,2.7179,2.7179,2.7071,2.6935,2.6791,2.6664,2.6591,2.6591,2.5486,2.4695,2.4529,2.2918,2.1623,2.0952,2.0443,1.9827,1.9147,1.9112,1.9032,1.8893,1.8886,1.8798,1.8671,1.8671,1.8738,1.8886,1.8886,1.8886,2.5919,0.0,0.0,0.0,0.0,0.0,0.0,0.0,0.0,0.0,0.0,0.0,0.0,0.0,0.0,0.0,0.0,0.0,0.0,0.0,0.0,0.0,0.0,0.0,0.0,0.0,0.0,2.8569,2.8551,2.8656,2.8868,2.8881,2.9089,2.9581,2.9345,2.9205,2.9205,2.8874,2.8615,2.8408,2.8235,2.7886,2.7437,2.7437,2.715,2.6683,2.6355,2.589,2.5364,2.5049,2.4696,2.4403,2.4988,2.6318,2.7929,2.7938,2.7683,2.7346,2.7473,2.763,2.7728,2.7169,2.6739,2.6372,2.6089,2.6079,2.6198,2.6198,2.6326,2.649,2.649,2.649,2.649,2.6527,2.6392,2.623,2.6268,2.6431,2.6547,2.6547,2.681,2.6956,2.6768,2.6888,2.6989,2.689,2.689,2.6809,2.6646,2.6591,2.65,2.6245,2.4825,2.3676,2.3143,2.1395,2.0005,1.931,1.9274,1.9112,1.879,1.8776,1.8704,1.8497,1.849,1.845,1.837,1.837,1.8323,1.825,1.8417,1.849,0.0,0.0,0.0,2.5776,0.0,0.0,0.0,0.0,2.4236,0.0,0.0,0.0,0.0,0.0,0.0,0.0,0.0,0.0,0.0,0.0,0.0,0.0,0.0,0.0,0.0,0.0,0.0,2.6337,2.64,2.696,2.8272,2.8335,2.8579,2.911,2.8863,2.8722,2.8722,2.8061,2.7733,2.7711,2.7061,2.675,2.6738,2.6738,2.6716,2.6617,2.5453,2.4948,2.4829,2.3658,2.3588,2.4206,2.4228,2.4524,2.5083,2.631,2.6289,2.5739,2.6123,2.6063,2.5776,2.5776,2.5872,2.6022,2.6002,2.6079,2.6198,2.6198,2.6198,2.6224,2.6224,2.6224,2.6156,2.5883,2.5841,2.5763,2.5486,2.546,2.546,2.546,2.5773,2.603,2.603,2.6567,2.6917,2.6636,2.6618,2.6618,2.6591,2.6591,2.6245,2.534,2.5165,2.4659,2.348,2.224,2.0779,1.9037,1.891,1.8776,1.8517,1.8504,1.8504,1.849,1.849,1.835,1.8009,1.8009,1.7876,1.7648,1.8244,1.849,0.0,0.0,2.6617,2.5639,0.0,0.0,0.0,0.0,0.0,0.0,0.0,0.0,0.0,0.0,0.0,0.0,0.0,0.0,0.0,0.0,0.0,0.0,0.0,0.0,0.0,0.0,0.0,2.6023,2.6462,2.6901,2.7355,2.7369,2.7573,2.8024,2.7829,2.7775,2.7909,2.7546,2.737,2.737,2.7139,2.6578,2.5711,2.5711,2.5192,2.4285,2.3893,2.3702,2.367,2.3269,2.3244,2.3474,2.3474,2.3551,2.3827,2.4999,2.5167,2.4874,2.5311,2.5112,2.4734,2.5247,2.5173,2.4897,2.499,2.5036,2.5048,2.4898,2.4973,2.5073,2.5073,2.5073,2.5114,2.5293,2.5249,2.5179,2.5368,2.5398,2.5398,2.5398,2.5508,2.559,2.559,2.5789,2.6091,2.6536,2.6591,2.6391,2.5761,2.5679,2.534,2.4437,2.3787,2.3087,2.2268,2.075,1.9469,1.8685,1.8637,1.8504,1.8183,1.8169,1.8096,1.7923,1.7889,1.7842,1.7742,1.7742,1.7689,1.7615,1.7822,1.7889,2.7149,2.7159,0.0,2.6076,2.6124,0.0,2.5243,0.0,0.0,0.0,0.0,0.0,0.0,0.0,0.0,0.0,0.0,0.0,0.0,0.0,0.0,0.0,0.0,0.0,0.0,0.0,2.4839,2.5216,2.5607,2.5984,0.0,0.0,2.7015,2.7278,2.7219,2.726,2.7391,2.6798,2.6488,2.6488,2.5978,2.5295,2.4445,2.4445,2.395,2.3091,2.3091,2.3091,2.3091,2.3091,2.3091,2.3091,2.3091,2.3091,2.3196,2.3911,2.4187,2.4206,2.4419,2.4359,2.4289,2.4722,2.4546,2.4193,2.4209,2.4251,2.4278,2.4214,2.4301,2.4427,2.4575,2.4501,2.4455,2.4714,2.4688,2.4654,2.4911,2.4966,2.4966,2.4966,2.5086,2.5186,2.5186,2.5306,2.5627,2.6288,2.6389,2.6218,2.5743,2.5582,2.502,2.3847,2.3041,2.2129,2.0914,1.9541,1.8616,1.835,1.833,1.8169,1.7869,1.7856,1.7816,1.7749,1.7749,1.7742,1.7736,1.7742,1.7689,1.7608,1.7608,1.7608]},{"header":{"parameterUnit":"m.s-1","parameterCategory":1,"la1":30.6,"la2":29.2853,"lo1":-89.7004,"lo2":-87.6739,"dy":0.0162,"dx":0.0183,"nx":112,"ny":82,"refTime":"2023-04-04T12:00:00:Z","depth":0,"parameterNumber":3,"parameterNumberName":"V-component_of_WINDS"},"data":[0.0,0.0,0.0,0.0,0.0,0.0,0.0,0.0,0.0,0.0,0.0,0.0,0.0,0.0,0.0,0.0,0.0,0.0,0.0,0.0,0.0,0.0,0.0,0.0,0.0,0.0,0.0,0.0,0.0,0.0,0.0,0.0,0.0,0.0,0.0,0.0,0.0,0.0,0.0,0.0,0.0,0.0,0.0,0.0,0.0,0.0,0.0,0.0,0.0,0.0,0.0,0.0,0.0,0.0,0.0,0.0,0.0,0.0,0.0,0.0,0.0,0.0,0.0,0.0,0.0,0.0,0.0,0.0,0.0,0.0,0.0,0.0,0.0,0.0,0.0,0.0,0.0,0.0,0.0,0.0,0.0,0.0,0.0,0.0,0.0,0.0,0.0,0.0,0.0,0.0,0.0,3.3069,3.324,3.38,3.5179,3.4864,3.4949,3.5739,0.0,0.0,0.0,0.0,0.0,0.0,0.0,0.0,0.0,0.0,0.0,0.0,0.0,0.0,0.0,0.0,0.0,0.0,0.0,0.0,0.0,0.0,0.0,0.0,0.0,0.0,0.0,0.0,0.0,0.0,0.0,0.0,0.0,0.0,0.0,0.0,0.0,0.0,0.0,0.0,0.0,0.0,0.0,0.0,0.0,0.0,0.0,0.0,0.0,0.0,0.0,0.0,0.0,0.0,0.0,0.0,0.0,0.0,0.0,0.0,0.0,0.0,0.0,0.0,0.0,0.0,0.0,0.0,0.0,0.0,0.0,0.0,0.0,0.0,0.0,0.0,0.0,0.0,0.0,0.0,0.0,0.0,0.0,0.0,0.0,0.0,0.0,0.0,0.0,0.0,0.0,0.0,0.0,0.0,0.0,0.0,0.0,0.0,0.0,0.0,0.0,0.0,0.0,0.0,3.3294,3.567,3.5819,3.609,3.6952,3.6952,3.6952,3.7103,0.0,0.0,0.0,0.0,0.0,0.0,0.0,0.0,0.0,0.0,0.0,0.0,0.0,0.0,0.0,0.0,0.0,0.0,0.0,0.0,0.0,0.0,0.0,0.0,0.0,0.0,0.0,0.0,0.0,0.0,0.0,0.0,0.0,0.0,0.0,0.0,0.0,0.0,0.0,0.0,0.0,0.0,0.0,0.0,0.0,0.0,0.0,0.0,0.0,0.0,0.0,0.0,0.0,0.0,0.0,0.0,0.0,0.0,0.0,0.0,0.0,0.0,0.0,0.0,0.0,0.0,0.0,0.0,0.0,0.0,0.0,0.0,0.0,0.0,0.0,0.0,0.0,0.0,0.0,0.0,0.0,0.0,0.0,0.0,0.0,0.0,0.0,0.0,0.0,0.0,0.0,0.0,0.0,0.0,0.0,0.0,0.0,0.0,0.0,0.0,0.0,0.0,0.0,3.3734,3.502,3.6701,3.6721,3.6813,3.7248,3.7193,3.7159,3.723,3.6798,0.0,0.0,0.0,0.0,0.0,0.0,0.0,0.0,0.0,0.0,0.0,0.0,0.0,0.0,0.0,0.0,0.0,0.0,0.0,0.0,0.0,0.0,0.0,0.0,0.0,0.0,0.0,0.0,0.0,0.0,0.0,0.0,0.0,0.0,0.0,0.0,0.0,0.0,0.0,0.0,0.0,0.0,0.0,0.0,0.0,0.0,0.0,0.0,0.0,0.0,0.0,0.0,0.0,0.0,0.0,0.0,0.0,0.0,0.0,0.0,0.0,0.0,0.0,0.0,0.0,0.0,0.0,0.0,0.0,0.0,0.0,0.0,0.0,0.0,0.0,0.0,0.0,0.0,0.0,0.0,0.0,0.0,0.0,0.0,0.0,0.0,0.0,0.0,0.0,0.0,0.0,0.0,0.0,0.0,0.0,0.0,0.0,0.0,0.0,0.0,0.0,0.0,3.5589,3.6704,3.7416,3.7492,3.7546,3.7704,3.7581,3.7529,3.7637,3.7779,0.0,0.0,0.0,0.0,0.0,0.0,0.0,0.0,0.0,0.0,0.0,0.0,0.0,0.0,0.0,0.0,0.0,0.0,0.0,0.0,0.0,0.0,0.0,0.0,0.0,0.0,0.0,0.0,0.0,0.0,0.0,0.0,0.0,0.0,0.0,0.0,0.0,0.0,0.0,0.0,0.0,0.0,0.0,0.0,0.0,0.0,0.0,0.0,0.0,0.0,0.0,0.0,0.0,0.0,0.0,0.0,0.0,0.0,0.0,0.0,0.0,0.0,0.0,0.0,0.0,0.0,0.0,0.0,0.0,0.0,0.0,0.0,0.0,0.0,0.0,0.0,0.0,0.0,0.0,0.0,0.0,0.0,0.0,0.0,0.0,0.0,0.0,0.0,0.0,0.0,0.0,0.0,0.0,0.0,0.0,0.0,0.0,0.0,0.0,0.0,0.0,0.0,3.6519,3.8103,3.8315,3.8865,3.9221,3.9239,3.9221,3.9221,3.9239,3.9239,0.0,0.0,0.0,0.0,0.0,0.0,0.0,0.0,0.0,0.0,0.0,0.0,0.0,0.0,0.0,0.0,0.0,0.0,0.0,0.0,0.0,0.0,0.0,0.0,0.0,0.0,0.0,0.0,0.0,0.0,0.0,0.0,0.0,0.0,0.0,0.0,0.0,0.0,0.0,0.0,0.0,0.0,0.0,0.0,0.0,0.0,0.0,0.0,0.0,0.0,0.0,0.0,0.0,0.0,0.0,0.0,0.0,0.0,0.0,0.0,0.0,0.0,0.0,0.0,0.0,0.0,0.0,0.0,0.0,0.0,0.0,0.0,0.0,0.0,0.0,0.0,0.0,0.0,0.0,0.0,0.0,0.0,0.0,0.0,0.0,0.0,0.0,0.0,0.0,0.0,0.0,0.0,0.0,0.0,0.0,0.0,0.0,0.0,0.0,0.0,0.0,0.0,3.694,3.8231,0.0,3.9134,3.9265,3.9388,3.9283,3.921,3.921,0.0,0.0,0.0,0.0,0.0,0.0,0.0,0.0,0.0,0.0,0.0,0.0,0.0,0.0,0.0,0.0,0.0,0.0,0.0,0.0,0.0,0.0,0.0,0.0,0.0,0.0,0.0,0.0,0.0,0.0,0.0,0.0,0.0,0.0,0.0,0.0,0.0,0.0,0.0,0.0,0.0,0.0,0.0,0.0,0.0,0.0,0.0,0.0,0.0,0.0,0.0,0.0,0.0,0.0,0.0,0.0,0.0,0.0,0.0,0.0,0.0,0.0,0.0,0.0,0.0,0.0,0.0,0.0,0.0,0.0,0.0,0.0,0.0,0.0,0.0,0.0,0.0,0.0,0.0,0.0,0.0,0.0,0.0,0.0,0.0,0.0,0.0,0.0,0.0,0.0,0.0,0.0,0.0,0.0,0.0,0.0,0.0,0.0,0.0,0.0,0.0,0.0,3.6058,3.7425,3.8583,0.0,3.9283,3.9247,3.9388,3.9265,3.9195,3.9195,0.0,0.0,0.0,0.0,0.0,0.0,0.0,0.0,0.0,0.0,0.0,0.0,0.0,0.0,0.0,0.0,0.0,0.0,0.0,0.0,0.0,0.0,0.0,0.0,0.0,0.0,0.0,0.0,0.0,0.0,0.0,0.0,0.0,0.0,0.0,0.0,0.0,0.0,0.0,0.0,0.0,0.0,0.0,0.0,0.0,0.0,0.0,0.0,0.0,0.0,0.0,0.0,0.0,0.0,0.0,0.0,0.0,0.0,0.0,0.0,0.0,0.0,0.0,0.0,0.0,0.0,0.0,0.0,0.0,0.0,0.0,0.0,0.0,0.0,0.0,0.0,0.0,0.0,0.0,0.0,0.0,0.0,0.0,0.0,0.0,0.0,0.0,0.0,0.0,0.0,0.0,0.0,0.0,0.0,0.0,0.0,0.0,0.0,0.0,0.0,0.0,0.0,3.6217,3.8092,3.9406,3.9406,3.9406,3.9406,3.9406,3.9406,3.9406,0.0,0.0,0.0,0.0,0.0,0.0,0.0,0.0,0.0,0.0,0.0,0.0,0.0,0.0,0.0,0.0,0.0,0.0,0.0,0.0,0.0,0.0,0.0,0.0,0.0,0.0,0.0,0.0,0.0,0.0,0.0,0.0,0.0,0.0,0.0,0.0,0.0,0.0,0.0,0.0,0.0,0.0,0.0,0.0,0.0,0.0,0.0,0.0,0.0,0.0,0.0,0.0,0.0,0.0,0.0,0.0,0.0,0.0,0.0,0.0,0.0,0.0,0.0,0.0,0.0,0.0,0.0,0.0,0.0,0.0,0.0,0.0,0.0,0.0,0.0,0.0,0.0,0.0,0.0,0.0,0.0,0.0,0.0,0.0,0.0,0.0,0.0,0.0,0.0,0.0,0.0,0.0,0.0,0.0,0.0,0.0,0.0,0.0,0.0,0.0,0.0,0.0,0.0,3.704,3.8457,3.9406,3.9406,3.9406,3.9406,3.9406,3.9406,3.9406,3.9406,0.0,0.0,0.0,0.0,0.0,0.0,0.0,0.0,0.0,0.0,0.0,0.0,0.0,0.0,0.0,0.0,0.0,0.0,0.0,0.0,0.0,0.0,0.0,0.0,0.0,0.0,0.0,0.0,0.0,0.0,0.0,0.0,0.0,0.0,0.0,0.0,0.0,0.0,0.0,0.0,0.0,0.0,0.0,0.0,0.0,0.0,0.0,0.0,0.0,0.0,0.0,0.0,0.0,0.0,0.0,0.0,0.0,0.0,0.0,0.0,0.0,0.0,0.0,0.0,0.0,0.0,0.0,0.0,0.0,0.0,0.0,0.0,0.0,0.0,0.0,0.0,0.0,0.0,0.0,0.0,0.0,0.0,0.0,0.0,0.0,0.0,0.0,0.0,0.0,0.0,0.0,0.0,0.0,0.0,0.0,0.0,0.0,0.0,0.0,0.0,0.0,0.0,3.7434,3.8601,3.9406,3.9406,3.9406,3.9406,3.9406,3.9406,3.9406,3.9406,0.0,0.0,0.0,0.0,0.0,0.0,0.0,0.0,0.0,0.0,0.0,0.0,0.0,0.0,0.0,0.0,0.0,0.0,0.0,0.0,0.0,0.0,0.0,0.0,0.0,0.0,0.0,0.0,0.0,0.0,0.0,0.0,0.0,0.0,0.0,0.0,0.0,0.0,0.0,0.0,0.0,0.0,0.0,0.0,0.0,0.0,0.0,0.0,0.0,0.0,0.0,0.0,0.0,0.0,0.0,0.0,0.0,0.0,0.0,0.0,0.0,0.0,0.0,0.0,0.0,0.0,0.0,0.0,0.0,0.0,0.0,0.0,0.0,0.0,0.0,0.0,0.0,0.0,0.0,0.0,0.0,0.0,0.0,0.0,0.0,0.0,0.0,0.0,0.0,0.0,0.0,0.0,0.0,0.0,0.0,0.0,0.0,0.0,0.0,0.0,0.0,0.0,3.762,3.8671,3.9406,3.9406,3.9406,3.9406,3.9406,3.9406,3.9406,3.9406,0.0,0.0,0.0,0.0,0.0,0.0,0.0,0.0,0.0,0.0,0.0,0.0,0.0,0.0,0.0,0.0,0.0,0.0,0.0,0.0,0.0,0.0,0.0,0.0,0.0,0.0,0.0,0.0,0.0,0.0,0.0,0.0,0.0,0.0,0.0,0.0,0.0,0.0,0.0,0.0,0.0,0.0,0.0,0.0,0.0,0.0,0.0,0.0,0.0,0.0,0.0,0.0,0.0,0.0,0.0,0.0,0.0,0.0,0.0,0.0,2.777,0.0,0.0,0.0,0.0,0.0,0.0,0.0,0.0,0.0,0.0,0.0,0.0,0.0,0.0,0.0,0.0,0.0,0.0,0.0,0.0,0.0,0.0,0.0,0.0,0.0,0.0,0.0,0.0,0.0,0.0,0.0,0.0,0.0,0.0,0.0,0.0,0.0,0.0,0.0,0.0,0.0,3.8435,3.905,3.9406,3.9406,3.9406,3.9406,3.9406,3.9406,3.9406,3.9406,3.9406,0.0,0.0,0.0,0.0,0.0,0.0,0.0,0.0,0.0,0.0,0.0,0.0,0.0,0.0,0.0,0.0,0.0,0.0,0.0,0.0,0.0,0.0,0.0,0.0,0.0,0.0,0.0,0.0,0.0,0.0,0.0,0.0,0.0,0.0,0.0,0.0,0.0,0.0,0.0,0.0,0.0,0.0,0.0,0.0,0.0,0.0,0.0,0.0,0.0,0.0,0.0,0.0,0.0,0.0,0.0,0.0,0.0,0.0,0.0,0.0,2.8307,0.0,0.0,0.0,0.0,0.0,0.0,0.0,0.0,0.0,0.0,0.0,0.0,0.0,0.0,0.0,0.0,0.0,0.0,0.0,0.0,0.0,0.0,0.0,0.0,0.0,0.0,0.0,0.0,0.0,0.0,0.0,0.0,0.0,0.0,0.0,0.0,0.0,0.0,0.0,0.0,3.8745,3.9141,3.9406,3.9406,3.9406,3.9406,3.9406,3.9406,3.9406,3.9406,3.9406,0.0,0.0,0.0,0.0,0.0,0.0,0.0,0.0,0.0,0.0,0.0,0.0,0.0,0.0,0.0,0.0,0.0,0.0,0.0,0.0,0.0,0.0,0.0,0.0,0.0,0.0,0.0,0.0,0.0,0.0,0.0,0.0,0.0,0.0,0.0,0.0,0.0,0.0,0.0,0.0,0.0,0.0,0.0,0.0,0.0,0.0,0.0,0.0,0.0,0.0,0.0,0.0,0.0,3.0934,3.1162,3.1505,3.1725,3.2043,3.2352,3.1468,3.0479,2.9401,2.894,0.0,0.0,0.0,0.0,0.0,0.0,0.0,0.0,0.0,0.0,0.0,0.0,0.0,0.0,0.0,0.0,0.0,0.0,0.0,0.0,0.0,0.0,0.0,0.0,3.4705,3.5534,0.0,0.0,0.0,0.0,0.0,0.0,0.0,0.0,0.0,0.0,0.0,0.0,3.8852,3.9159,3.9406,3.9406,3.9406,3.9406,3.9406,3.9406,3.9406,3.9406,3.9406,3.9406,0.0,0.0,0.0,0.0,0.0,0.0,0.0,0.0,0.0,0.0,0.0,0.0,0.0,0.0,0.0,0.0,0.0,0.0,0.0,0.0,0.0,0.0,0.0,0.0,0.0,0.0,0.0,0.0,0.0,0.0,0.0,0.0,2.6319,2.5875,0.0,0.0,0.0,0.0,0.0,0.0,0.0,0.0,0.0,0.0,0.0,0.0,0.0,3.0815,3.096,3.2256,3.3002,3.3171,3.4027,3.4378,3.4271,3.4308,3.4507,3.4832,3.4692,0.0,3.088,3.1489,0.0,0.0,0.0,0.0,0.0,0.0,0.0,0.0,0.0,0.0,0.0,0.0,0.0,0.0,0.0,0.0,0.0,0.0,0.0,0.0,0.0,0.0,3.4118,3.4275,3.5521,3.6685,0.0,3.6422,3.6158,3.6033,3.6013,0.0,0.0,0.0,0.0,0.0,0.0,0.0,3.905,3.9265,3.9406,3.9406,3.9406,3.9406,3.9406,3.9406,3.9406,3.9406,3.9406,3.9406,3.9406,3.9406,0.0,0.0,0.0,0.0,0.0,0.0,0.0,0.0,0.0,0.0,0.0,0.0,0.0,0.0,0.0,0.0,0.0,0.0,0.0,0.0,0.0,0.0,0.0,0.0,0.0,0.0,0.0,0.0,0.0,2.5904,2.6442,2.6151,2.6765,2.6837,0.0,0.0,0.0,0.0,0.0,0.0,0.0,0.0,0.0,3.2567,3.3079,3.3341,3.3301,3.4303,3.469,3.4455,3.5223,3.5565,3.5487,3.5833,3.6061,3.6193,3.6029,3.5218,3.3918,3.3457,3.2664,3.1711,0.0,0.0,0.0,0.0,3.1528,3.165,3.2582,3.3109,0.0,3.3937,0.0,0.0,0.0,0.0,0.0,0.0,0.0,0.0,0.0,0.0,3.4264,3.4377,3.5682,3.69,3.69,3.7491,3.7814,0.0,3.6735,3.6593,3.7112,0.0,0.0,0.0,0.0,3.8998,3.9086,3.9283,3.9406,3.9406,3.9406,3.9406,3.9406,3.9406,3.9406,3.9406,3.9406,3.9406,3.9406,3.9406,3.9406,0.0,0.0,0.0,0.0,0.0,0.0,0.0,0.0,0.0,0.0,0.0,0.0,0.0,0.0,0.0,0.0,0.0,0.0,0.0,0.0,0.0,0.0,0.0,0.0,0.0,0.0,0.0,0.0,2.6557,2.7227,2.7023,2.7906,2.8199,0.0,0.0,0.0,0.0,0.0,0.0,3.2344,3.2794,3.3681,3.515,3.5566,3.5746,3.5642,3.6091,3.6112,3.5725,3.6167,3.6368,3.6318,3.6764,3.7023,3.7092,3.6853,3.6713,3.6616,3.5124,3.437,3.4098,3.3646,3.3712,3.4057,3.4018,3.4002,3.413,3.4977,3.5544,3.592,3.6232,0.0,3.6596,3.599,0.0,0.0,0.0,0.0,3.3856,3.477,3.4808,3.4651,3.4786,3.5852,3.692,3.729,3.8371,3.9031,0.0,3.7863,3.7657,3.7887,0.0,0.0,0.0,0.0,3.9628,3.9683,3.9827,3.99,3.99,3.99,3.99,3.99,3.975,3.9645,3.9645,3.9679,3.9681,3.9681,3.9859,3.995,3.995,0.0,0.0,0.0,0.0,0.0,0.0,0.0,0.0,0.0,0.0,0.0,0.0,0.0,0.0,0.0,0.0,0.0,0.0,0.0,0.0,0.0,0.0,0.0,0.0,0.0,0.0,0.0,0.0,0.0,2.9209,2.981,0.0,0.0,0.0,0.0,3.1847,3.203,3.3065,3.5345,3.5328,3.5791,3.7018,3.6901,3.6914,3.7085,3.7112,3.7219,3.7383,3.741,3.7317,3.7139,3.7166,3.7367,3.7643,3.744,3.7646,3.7983,3.6572,3.5625,3.5054,3.5203,3.5061,3.4739,3.4612,3.4555,3.469,3.5693,3.6061,3.627,3.742,3.7296,3.6696,3.6648,3.5651,0.0,0.0,3.5219,3.5604,3.5352,3.5643,3.5996,3.6018,3.6279,3.6928,3.8375,3.8766,3.8928,0.0,3.9793,4.0137,3.9988,0.0,4.0933,4.0952,4.0986,4.1067,4.1261,4.128,4.1298,4.1298,4.1298,4.1298,4.1298,4.0711,4.0352,4.0352,4.0406,4.0443,4.0443,4.1058,4.1393,4.1393,4.156,0.0,0.0,0.0,0.0,0.0,0.0,0.0,0.0,0.0,0.0,0.0,0.0,0.0,0.0,0.0,0.0,0.0,0.0,0.0,0.0,0.0,0.0,0.0,0.0,0.0,0.0,0.0,0.0,2.9341,3.0645,0.0,3.101,3.1817,3.2455,3.2699,3.3787,3.4647,3.51,3.5797,3.6367,3.6805,3.7512,3.7706,3.7393,3.7779,3.78,3.7485,3.79,3.8033,3.7995,3.8374,3.8636,3.8714,3.8457,3.8411,3.8404,3.7729,3.7238,3.6906,3.6975,3.6929,3.6777,3.6742,3.6715,3.6783,3.7124,3.726,3.7338,3.7756,3.7723,3.7329,3.656,3.596,3.5578,3.5657,3.5822,3.613,3.6806,3.6828,3.6684,3.6684,3.7356,3.8129,3.868,3.9684,4.0503,4.0659,4.0436,4.0316,4.0685,4.1045,4.1251,4.1114,4.1209,4.1308,4.1403,4.1403,4.1403,4.1403,4.1403,4.1403,4.1403,4.1179,4.1044,4.1044,4.1079,4.1082,4.1074,4.1305,4.1463,4.1492,4.2189,4.2013,0.0,0.0,0.0,0.0,0.0,0.0,0.0,0.0,0.0,0.0,0.0,0.0,0.0,0.0,0.0,0.0,0.0,0.0,0.0,0.0,0.0,0.0,0.0,0.0,0.0,0.0,3.0424,3.0291,3.1758,3.2697,3.2502,3.3523,3.4112,3.3926,3.54,3.6137,3.5724,3.6877,3.7514,3.7514,3.8301,3.851,3.8117,3.8496,3.8496,3.8117,3.851,3.8686,3.8713,3.9129,3.9305,3.9283,3.9033,3.8832,3.8692,3.8666,3.8576,3.8392,3.8047,3.79,3.79,3.79,3.79,3.79,3.79,3.79,3.79,3.79,3.79,3.7782,3.7168,3.6985,3.7024,3.722,3.7286,3.7469,3.8279,3.79,3.7351,3.7534,3.8125,3.879,3.9297,4.0573,4.1699,4.1985,4.1414,4.1018,4.1464,4.1831,4.2004,4.1864,4.1946,4.2043,4.2043,4.2043,4.2043,4.2043,4.2043,4.2043,4.2043,4.1852,4.1832,4.2081,4.2134,4.2261,4.2539,4.2305,4.2196,4.2234,4.2743,4.2613,4.1788,0.0,0.0,0.0,0.0,0.0,0.0,0.0,0.0,0.0,0.0,0.0,0.0,0.0,0.0,0.0,0.0,0.0,0.0,0.0,0.0,0.0,0.0,0.0,2.9831,3.1153,3.2256,3.229,3.3277,3.4206,3.4816,3.4897,3.5161,3.5717,3.6869,3.7512,3.7485,3.8618,3.9278,3.9278,3.9292,3.9305,3.9305,3.9305,3.9305,3.9305,3.9305,3.9305,3.9305,3.9319,3.9332,3.931,3.9074,3.8962,3.898,3.9392,3.9541,3.9418,3.8369,3.7965,3.7952,3.7965,3.7952,3.7965,3.7965,3.7965,3.7965,3.7965,3.7965,3.8057,3.8579,3.8736,3.8854,3.9442,3.9612,3.9612,3.9625,3.8789,3.807,3.8606,3.8607,3.8871,4.0306,4.1359,4.2293,4.315,4.2821,4.2425,4.2425,4.291,4.329,4.329,4.329,0.0,4.329,4.329,4.329,4.329,4.329,4.329,4.329,4.2785,4.2776,4.3485,4.3631,4.4018,4.4788,4.4156,4.3783,4.3799,4.3285,4.3471,4.4344,0.0,0.0,0.0,0.0,0.0,0.0,0.0,0.0,0.0,0.0,0.0,0.0,0.0,0.0,0.0,0.0,0.0,0.0,0.0,0.0,0.0,0.0,3.2302,3.1397,3.2171,3.3278,3.4379,3.4927,3.5622,3.6666,3.7154,3.7303,3.7032,3.7724,3.7968,3.7512,3.8225,3.8646,3.8646,3.9074,3.9305,3.9305,3.9305,3.9305,3.9305,3.9305,3.9305,3.9305,3.9739,3.9943,3.997,4.0349,4.0387,4.0203,4.0331,4.0281,4.0104,3.9606,3.9412,3.9388,3.9213,3.9247,3.9412,3.9412,3.9412,3.9412,3.9412,3.9412,3.9438,3.9607,3.9636,3.9662,3.9833,3.9743,3.9703,4.0071,3.9327,3.8645,3.922,3.9672,4.0093,4.0518,4.1838,4.3016,4.325,4.3175,4.304,4.304,4.319,4.329,4.329,4.329,0.0,4.329,4.329,4.329,4.329,4.329,4.329,4.329,4.3682,4.4021,4.4195,4.4789,4.5226,4.5433,4.5406,4.5471,4.5728,4.4457,4.4309,0.0,0.0,0.0,0.0,0.0,0.0,0.0,0.0,0.0,0.0,0.0,0.0,0.0,0.0,0.0,0.0,0.0,0.0,0.0,0.0,0.0,0.0,3.3048,3.4112,3.3907,3.4275,3.4897,3.5805,3.6455,3.71,3.7818,3.8185,3.8252,3.79,3.8198,3.8252,3.79,3.8442,3.8768,3.8768,3.9129,3.9414,3.9671,3.9671,3.9807,4.0042,4.0042,4.0042,4.0078,4.0418,4.058,0.0,4.0937,4.1017,4.0877,4.1133,4.118,0.0,0.0,0.0,0.0,0.0,3.9862,3.9981,3.9862,3.9838,3.9862,3.9957,3.9992,4.0068,4.0402,4.0492,4.0521,4.0676,4.061,4.053,4.0734,4.0226,3.9741,4.0099,4.0699,4.1191,4.1191,4.2298,4.329,4.329,4.329,0.0,4.329,4.329,4.329,4.329,4.329,4.329,4.329,4.329,4.3428,4.3786,4.3791,4.3946,4.4278,4.4737,0.0,0.0,0.0,4.6073,4.5876,4.606,0.0,0.0,0.0,4.5161,4.616,0.0,0.0,0.0,4.4491,4.4347,0.0,0.0,0.0,0.0,0.0,0.0,0.0,0.0,0.0,0.0,0.0,0.0,0.0,0.0,0.0,0.0,3.4693,3.6001,3.6619,3.6768,3.6795,3.6795,3.7758,3.8429,3.8483,3.8496,3.8496,3.8496,3.8496,3.8496,3.8496,0.0,0.0,0.0,0.0,3.9685,4.0296,4.0296,4.0567,4.11,4.11,4.11,4.11,4.1168,4.1195,4.1208,4.1263,4.129,4.133,4.1883,4.21,4.1998,4.1008,4.0628,4.0557,4.0333,4.0238,4.019,3.9963,0.0,0.0,4.0166,4.0261,4.0415,4.1135,4.1344,4.1426,4.17,4.1771,4.1696,4.1536,4.1288,4.1123,4.117,4.1637,4.2086,4.2086,4.2718,4.329,4.329,4.329,4.329,4.329,4.329,4.329,4.329,4.329,4.329,4.329,4.329,4.361,4.4415,0.0,0.0,4.5624,4.5769,4.6094,4.676,4.6897,4.6791,4.6389,4.6553,4.6434,4.5899,4.5816,4.6157,4.6921,4.6177,4.5821,4.579,4.499,4.4615,0.0,0.0,0.0,0.0,0.0,0.0,0.0,0.0,0.0,0.0,0.0,0.0,0.0,0.0,0.0,3.4288,3.5575,3.6646,3.7249,3.7737,3.8049,3.8049,3.8252,3.8578,3.9088,3.9129,3.9129,3.9129,3.9129,3.9129,3.9129,3.9237,3.9522,3.9997,4.0024,4.0309,4.091,4.0924,4.0978,4.11,0.0,0.0,4.1113,4.1612,4.1842,4.1856,4.2344,4.2548,4.2548,4.267,4.2724,4.2673,4.225,4.1954,4.1757,4.1721,4.1697,4.1697,4.1623,4.1623,4.1623,4.1672,4.1832,4.2043,4.2199,4.225,0.0,4.2324,4.219,4.2103,4.2433,4.2173,4.1902,4.2273,4.2439,4.2492,4.2492,4.291,4.329,4.329,4.329,4.329,4.329,4.329,4.329,4.329,4.329,4.329,4.329,4.329,4.361,4.4415,4.4491,4.4831,4.5624,4.6252,4.6638,4.6794,4.7505,4.7966,4.8026,4.8218,4.8325,4.8329,4.7741,4.7516,4.7684,4.6955,4.6597,4.6563,4.521,4.4615,0.0,0.0,0.0,0.0,0.0,0.0,0.0,0.0,0.0,0.0,0.0,3.1435,0.0,0.0,3.4794,3.5954,3.691,3.7601,3.7913,3.8469,3.8727,3.8429,3.8659,3.8979,3.9278,3.9305,3.9305,3.9305,3.9305,3.9305,3.9305,3.959,3.9875,4.0196,4.0485,4.0947,4.1534,4.1534,4.1707,4.2005,4.2005,4.2005,4.2019,4.2304,4.2439,4.2466,4.2765,4.2911,4.2911,4.2911,4.2911,4.2887,4.2741,4.262,4.2484,4.2338,4.2215,4.2103,4.2103,4.2005,4.1931,4.2215,4.24,4.2511,4.2511,4.2584,4.2644,4.2362,4.2471,4.2677,4.2774,4.2918,4.3115,4.3353,4.3342,4.3299,4.3299,4.3294,4.329,4.329,4.329,4.329,4.329,4.329,4.329,4.329,4.329,4.329,4.329,4.3649,4.4201,4.5017,4.5444,4.5987,4.6775,4.7185,4.7438,4.7489,4.8049,4.8436,4.8643,4.8816,4.8941,4.9001,4.8646,4.8445,4.8445,4.7716,4.7361,4.7327,4.6225,4.5497,0.0,0.0,0.0,0.0,0.0,0.0,0.0,0.0,3.0428,3.1236,3.2091,3.3219,3.4948,3.5694,3.6408,3.7507,3.8076,3.8429,3.8551,3.8993,3.9129,3.8618,3.9007,3.9305,3.9305,3.9305,3.9305,3.9305,3.9414,3.9468,3.9468,4.0038,4.0418,4.054,4.1028,4.1571,4.2168,4.2168,4.2412,4.2911,4.2911,4.2911,4.2911,4.2911,4.2911,4.2911,4.2911,4.2911,4.2911,4.2911,4.2911,4.2911,4.2911,4.2911,4.2863,4.2644,4.2424,4.2177,4.2177,4.2043,4.1919,4.2351,4.2511,4.2511,4.256,4.279,4.297,4.2593,4.3002,4.3539,4.3433,4.3892,4.4459,4.4549,4.4485,4.4392,4.4392,4.4014,4.3698,4.3698,4.3698,4.3698,4.3698,4.3698,4.3609,4.3334,4.329,4.329,4.329,4.3989,4.4812,4.5606,4.6359,4.7135,4.7935,4.8033,4.8082,4.8195,4.8436,4.8627,4.8785,4.8941,4.9001,4.9001,4.9001,4.9001,4.9001,4.8394,4.8107,4.8107,4.7496,4.6752,3.114,3.1294,0.0,3.0381,3.0753,3.1331,0.0,0.0,3.2659,3.3688,3.4771,3.582,3.6745,3.7134,3.7534,3.8185,3.8361,3.8578,3.9129,3.9264,3.9278,3.921,3.9264,3.9305,3.9305,3.9305,3.9305,3.9305,3.9794,4.0115,4.0115,4.0675,4.1236,4.1788,4.1869,4.2195,4.2778,4.2792,4.2819,4.2911,4.2911,4.2911,4.2911,4.2911,4.2911,4.2911,4.2911,4.2911,4.2911,4.2911,4.2911,4.2911,4.2911,4.2911,4.2911,4.2863,4.2693,4.2449,4.2449,4.2424,4.2424,4.2487,4.2511,4.2536,4.2766,4.3173,4.3553,4.3743,4.4317,4.4975,4.5355,4.5553,4.5721,4.6196,4.6033,4.5788,4.5788,4.5406,4.508,4.508,4.508,4.508,4.508,4.508,4.4676,4.3489,4.329,4.329,4.329,4.3989,4.4812,4.5606,4.6359,4.7135,4.7935,4.8115,4.8179,4.8195,4.8548,4.8786,4.8802,4.8941,4.9001,4.9001,4.9001,4.9001,4.9001,4.8917,4.8883,4.8883,4.8798,4.8003,3.1331,0.0,0.0,0.0,3.2214,3.2829,3.3377,3.3965,3.4656,3.5563,3.6251,3.6914,3.7604,3.7885,3.8225,0.0,3.8925,3.902,3.9264,3.9305,3.9305,3.9305,3.9305,3.9305,3.9305,3.9305,3.9454,3.9794,4.0074,4.035,4.0716,4.13,4.1747,4.1991,4.2344,4.2629,4.2911,4.2911,4.2911,4.2911,4.2911,4.2911,4.2911,4.2911,4.2911,4.2911,4.2911,4.2911,4.2911,4.2911,4.2911,4.2911,4.2911,4.2911,4.2911,4.2911,4.2717,4.2536,4.2668,4.262,4.2536,4.2668,4.3018,4.3352,4.3317,4.3861,4.4443,4.442,4.5223,4.6131,4.6343,4.6907,4.7385,4.7221,4.683,4.6419,4.6085,4.563,4.5289,4.5289,4.5289,4.5289,4.5289,4.5289,4.511,4.4556,4.4132,4.3878,4.3878,4.4642,4.5663,4.6912,4.7303,4.7671,4.8082,4.8163,4.8292,4.8532,4.8707,4.8849,4.891,4.897,4.9001,4.9001,4.9001,4.9001,4.9001,4.9001,4.9001,4.9001,4.9001,4.8709,3.1655,0.0,0.0,3.2882,3.3442,3.4177,3.5136,3.566,3.6202,3.7066,3.7343,3.7639,3.8319,3.8558,3.8803,3.9237,3.9305,3.9305,3.9305,3.9305,3.9305,3.9305,3.9305,3.9305,3.9305,3.9454,3.9726,4.0183,4.0499,4.0892,4.1317,4.1924,4.2249,4.2249,4.2656,4.2911,4.2911,4.2911,4.2911,4.2911,4.2911,4.2911,4.2911,4.2911,4.2911,4.2911,4.2911,4.2911,4.2911,4.2911,4.2911,4.2911,4.3115,4.3211,4.3235,4.3437,4.3139,4.2644,4.2838,4.2911,4.2946,4.3139,4.3662,4.4219,4.4269,4.4898,4.5574,4.5654,4.6564,4.7493,4.7493,4.8134,4.8615,4.794,4.7518,4.7123,4.6483,4.6096,4.5843,4.5843,4.5843,4.5843,4.5843,4.5843,4.5843,4.5843,4.5289,4.4877,4.4931,4.5737,4.6821,4.8167,4.8117,4.8049,4.8195,4.8243,4.8436,4.8786,4.8832,4.8894,4.8986,4.9001,4.9001,4.9001,4.9001,4.9001,4.9001,4.9001,4.9001,4.9001,4.9048,4.914,0.0,0.0,3.4046,3.3663,3.4571,3.5619,3.5911,3.6433,3.7142,3.8144,3.82,3.8324,3.9125,3.9278,3.9278,3.9305,3.9305,3.9305,3.9305,3.9305,3.9305,3.9305,3.9305,3.9305,0.0,3.9821,4.0183,4.021,4.1272,4.1951,4.1978,4.2534,4.286,4.286,4.2873,4.2911,4.2911,4.2911,4.2911,4.2911,4.2911,4.2911,4.2911,4.2911,4.2911,4.2911,4.2911,4.2911,4.2911,4.2911,4.2911,4.2984,4.3685,4.3955,4.405,4.4782,4.412,4.2887,4.2911,4.3365,4.3955,4.3955,4.4294,4.4858,4.5754,4.6359,4.6928,4.7846,4.865,4.9224,4.9224,4.9254,4.9105,4.8446,4.8267,4.8072,4.7392,4.7243,4.7249,4.7249,4.7249,4.7249,4.7249,4.7249,4.7249,4.7249,4.6659,4.6301,4.6504,4.7286,4.8143,4.8977,4.8431,4.8049,4.8195,4.8388,4.8579,4.8802,4.8925,4.8986,4.9001,4.9001,4.9001,4.9001,4.9001,4.9001,4.9001,4.9001,4.9001,4.9001,4.9123,4.9305,0.0,0.0,3.4893,3.5293,3.5944,3.6665,3.7418,3.7652,3.7896,3.8593,3.8506,3.8347,3.8484,3.8599,3.8686,3.8686,3.9047,3.9305,3.9305,3.9305,3.9305,3.9305,3.9305,0.0,0.0,0.0,0.0,4.077,4.1997,4.2685,4.2599,4.3255,4.3638,4.3638,4.3163,4.3139,4.3614,4.3139,4.2911,4.2911,4.2911,4.3413,4.434,4.3837,4.3638,4.3638,4.3638,4.3341,4.2911,4.2911,4.2911,4.2984,4.3709,4.4003,4.4097,4.4828,4.5075,4.4954,4.4518,4.4527,4.4806,4.5255,4.584,4.6508,4.7253,4.7942,4.8527,4.884,4.9386,4.989,4.989,5.0242,5.0391,4.971,4.9254,4.8783,4.8102,4.7608,4.7309,4.7309,4.7309,4.7309,4.7309,4.7309,4.7309,4.7309,4.7205,4.719,4.7313,4.8088,4.8928,4.9738,4.9177,4.8845,4.9107,4.8752,4.861,4.8909,4.8987,4.9001,4.9001,4.9001,4.9001,4.9001,4.9001,4.9001,4.9001,4.9001,4.9001,4.9001,4.9138,4.9305,0.0,3.5123,3.5691,3.6356,3.6917,3.7509,3.8146,3.8411,3.8624,3.8975,3.8707,3.8358,3.8227,3.8139,3.8144,3.8361,3.8713,3.9061,3.9278,3.9305,3.9305,3.9305,3.9495,4.0044,0.0,0.0,0.0,4.1776,4.2805,4.3388,4.3304,4.3733,4.4003,4.4003,4.3543,4.3389,4.359,4.3139,4.3032,4.3293,4.3352,4.4003,4.509,4.4675,4.4443,4.4387,4.4387,4.3979,4.3293,4.3293,4.3293,4.3365,4.4097,4.4691,4.5239,4.5974,4.6668,4.7065,4.587,4.5775,4.6287,4.672,4.7351,4.8078,4.8727,4.9256,4.9658,4.992,5.0272,5.0563,5.0563,5.0877,5.1026,5.0345,4.9748,4.9112,4.8453,4.7773,4.7309,4.7309,4.7309,4.7309,4.7309,4.7309,4.7309,4.7309,4.7915,4.841,4.8448,4.9247,5.0014,5.0533,4.9973,4.9676,4.9974,4.962,4.9512,4.9765,4.9796,4.9796,4.9796,4.9526,4.939,4.939,4.9137,4.9001,4.9001,4.9001,4.9001,4.9001,4.9199,4.9383,3.5581,3.6061,3.6494,3.6893,3.7554,3.8159,3.8159,3.8744,3.9305,3.9305,3.8817,3.8361,0.0,0.0,3.771,3.8293,3.8429,3.8646,3.9224,3.9305,3.9305,0.0,0.0,0.0,0.0,0.0,0.0,4.3254,0.0,4.4097,4.405,4.4097,4.412,4.412,4.4073,4.3733,4.308,4.3032,4.3365,4.412,4.428,4.4661,4.5204,4.538,4.5349,4.5173,4.5173,4.4736,4.405,4.405,4.4078,4.4186,4.4917,4.6053,4.7333,4.8082,4.8768,4.9051,4.7007,4.7158,4.8242,4.8286,4.8776,4.9456,5.0069,5.024,5.0375,5.1026,5.1191,5.1191,5.1191,5.1191,5.1041,5.0413,4.9763,4.9127,4.8498,4.7803,4.7309,4.7309,4.7309,4.7309,4.7309,4.7309,4.7309,4.7309,4.8728,4.9805,4.9805,5.0707,5.1365,5.1365,5.0823,5.0543,5.0744,5.0909,5.1056,5.1185,5.1201,5.1201,5.1201,5.0524,5.0167,5.0167,4.9475,4.912,4.912,4.9069,4.9069,4.9052,4.9369,4.9503,3.6171,3.698,3.7701,3.7936,3.8509,3.8986,3.8986,3.9152,3.9305,3.9305,3.8456,3.7873,0.0,0.0,0.0,3.8293,3.8768,0.0,3.9278,3.9305,0.0,0.0,0.0,4.1664,4.3292,4.4242,0.0,0.0,4.5547,4.5392,4.4851,4.5347,4.5634,4.5634,4.5104,4.4989,4.5361,4.4805,4.4897,4.5634,4.5281,4.5703,4.6719,4.6373,4.6107,4.5927,4.5927,4.5506,4.4828,4.4828,4.5112,4.5646,4.6388,4.7193,4.8016,4.8775,4.9434,4.9889,4.9342,4.9113,4.908,4.9548,4.9827,5.0084,5.0742,5.0951,5.0981,5.1146,5.1191,5.1191,5.1191,5.1191,5.1161,5.0981,5.0092,4.9247,4.9082,4.8139,4.7309,4.7309,4.7309,4.7309,4.7309,4.7309,4.7309,4.7309,4.8728,4.9805,4.9805,5.1162,5.2163,5.227,5.164,5.1361,5.1715,5.1294,5.1056,5.1185,5.1201,5.1201,5.1201,5.1015,5.0914,5.0914,5.0728,5.0643,5.0643,5.0084,4.9813,4.9812,4.9608,4.9503,3.6808,3.7598,3.8325,3.8705,3.9061,3.9237,3.8979,3.8925,3.8844,3.8551,3.7764,0.0,0.0,0.0,0.0,0.0,0.0,0.0,3.9264,3.9305,3.9656,0.0,4.1276,0.0,4.4484,4.5302,4.5969,0.0,4.6366,4.6016,4.5597,4.5972,4.6188,4.6188,4.5814,4.5642,4.571,4.531,4.5469,4.6188,4.6084,4.6543,4.7439,4.7563,4.7464,4.7251,0.0,4.7134,4.6466,4.6466,4.6683,4.7076,4.757,4.8371,4.9293,4.9719,5.0267,5.0799,5.0684,5.0436,5.0182,5.0533,5.0652,5.0712,5.1086,5.1191,5.1191,5.1191,5.1191,5.1191,5.1191,5.1191,5.1191,5.1191,5.0227,4.9366,4.9628,4.8431,4.7309,4.7309,4.7309,4.7309,4.7309,4.7309,4.7309,4.7309,4.8728,4.9825,4.9907,5.1422,5.2517,5.2589,5.2397,5.2335,5.2556,5.2286,5.2133,5.2199,5.2199,5.2199,5.2199,5.186,5.1674,5.1674,5.1353,5.1201,5.1201,5.0778,5.0639,5.0701,5.0526,5.0336,3.7466,3.8062,3.8646,3.9169,3.9305,3.9142,3.8537,3.8401,3.8225,3.7629,0.0,3.6822,3.7493,3.7127,3.71,3.8307,0.0,3.873,3.9356,3.9424,3.9958,4.1379,4.2102,4.3251,4.523,4.5984,4.6624,4.7251,4.6712,4.6358,4.6358,4.6358,4.6358,4.6358,4.6358,4.6039,4.5401,4.5386,4.571,4.6343,4.6821,4.7294,4.7753,4.8594,4.8912,4.8806,4.9149,0.0,4.8381,4.8372,4.8416,4.8536,4.8706,4.9588,5.0774,5.0751,5.1113,5.1564,5.1284,5.1214,5.1238,5.1214,5.1191,5.1191,5.1191,5.1191,5.1191,5.1191,5.1191,5.1191,5.1191,5.1191,5.1191,5.1191,5.0287,4.9576,5.0099,4.8738,4.7399,4.7346,4.7352,4.7337,4.7396,4.7381,4.7381,4.7381,4.881,4.9927,5.0126,5.1572,5.2606,5.2659,5.299,5.3196,5.3247,5.3399,5.3501,5.3501,5.3501,5.3501,5.3501,5.2841,5.2469,5.2469,5.1827,5.1505,5.1505,5.1404,5.145,5.1642,5.1665,5.1461,3.8076,3.8673,3.9169,3.9278,3.9305,3.9142,3.8537,3.8401,0.0,0.0,0.0,3.6944,3.8035,3.7751,0.0,3.8952,0.0,0.0,0.0,0.0,4.0806,0.0,0.0,0.0,0.0,0.0,0.0,0.0,0.0,4.7099,4.7099,4.7099,4.7099,4.7099,4.7099,4.7055,4.6909,4.6909,4.6975,4.7121,4.7581,4.8039,4.8431,4.8806,4.9278,4.9742,4.9434,0.0,4.9352,4.9186,4.9523,5.0184,5.023,5.0857,5.1728,5.1514,5.1505,5.1564,5.1284,5.1354,5.1494,5.1261,5.1191,5.1191,5.1191,5.1191,5.1191,5.1191,5.1191,5.1191,5.1191,5.1191,5.1191,5.1191,5.0607,5.0069,5.0166,4.9119,4.8018,4.7615,4.7553,4.7617,4.7837,4.788,4.788,4.788,4.9262,5.0316,5.0339,5.168,5.2729,5.3059,5.3161,5.3264,5.3416,5.3484,5.3501,5.3501,5.3501,5.3501,5.3501,5.3365,5.3298,5.3298,5.3179,5.3112,5.3112,5.2418,5.2212,5.2408,5.1921,5.1735,3.8239,3.8844,3.9305,3.9305,3.9305,3.8979,3.7745,0.0,0.0,0.0,3.611,3.6402,3.7311,0.0,0.0,0.0,0.0,0.0,0.0,0.0,0.0,0.0,0.0,0.0,0.0,0.0,0.0,0.0,0.0,4.7309,4.7309,4.7309,4.7309,4.7309,4.7309,4.7309,4.7309,4.7309,4.7309,4.7309,4.7788,4.8271,4.883,4.9417,5.0044,5.0662,5.0555,0.0,5.0638,5.0547,5.0727,5.1128,5.1402,5.1759,5.2132,5.1903,5.181,5.1764,5.1494,5.1494,5.1587,5.1448,5.1401,5.1401,5.1401,5.1308,5.1191,5.1191,5.1191,5.1191,5.1191,5.1191,5.1191,5.1191,5.0951,5.0466,4.9569,4.9164,4.8712,4.7776,4.7709,4.7837,4.7986,4.8007,4.8139,4.8568,4.9627,5.0589,5.1117,5.2186,5.299,5.3179,5.3281,5.3399,5.3484,5.3501,5.3501,5.3501,5.3501,5.3501,5.3501,5.3501,5.3501,5.3501,5.3501,5.3501,5.3501,5.3112,5.3058,5.332,5.3027,5.2842,3.8369,3.8952,3.9305,3.9305,3.9305,3.883,3.7075,3.7006,0.0,0.0,3.5247,3.575,3.6531,0.0,0.0,0.0,0.0,0.0,0.0,0.0,0.0,0.0,0.0,0.0,0.0,0.0,0.0,0.0,0.0,0.0,4.7309,4.7309,4.7309,4.7309,4.7309,4.7309,4.7309,4.7309,4.7309,4.7309,4.7788,4.8432,4.9237,4.9972,5.0791,5.1587,5.166,0.0,0.0,5.1703,5.1703,5.178,5.217,5.2352,5.2352,5.2155,5.2063,5.2033,5.1787,5.168,5.168,5.168,5.1657,5.1587,5.1541,5.1378,5.1214,5.1261,5.1284,5.1284,5.1284,5.1331,5.1369,5.1369,5.1369,5.0906,4.9258,4.9318,4.9309,4.7987,4.7922,4.807,4.8133,4.8133,4.8412,4.9228,5.0021,5.089,5.1849,5.2731,5.3264,5.3264,5.3416,5.3501,5.3501,5.3501,5.3501,5.3501,5.3501,5.3501,5.3501,5.3501,5.3501,5.3501,5.3501,5.3501,5.3501,5.3501,5.3668,5.3997,5.3997,5.3866,3.8806,3.9264,3.9305,3.9305,3.9305,3.8874,3.7241,0.0,0.0,3.5539,3.5104,3.5302,3.6634,3.6736,3.6878,0.0,0.0,3.847,0.0,0.0,0.0,0.0,0.0,0.0,0.0,0.0,0.0,0.0,0.0,0.0,4.7309,4.7309,4.7309,4.7309,4.7309,4.7309,4.7309,4.7309,4.7309,4.7309,4.7788,4.8675,4.9906,5.0186,5.1117,5.2554,5.2139,0.0,0.0,5.204,5.2063,5.2238,5.2268,5.2457,5.2631,5.2374,5.2261,5.2238,5.2056,5.1964,5.1964,5.1964,5.1787,5.1564,5.1308,5.1214,5.1238,5.1494,5.1564,5.1564,5.1564,5.1741,5.1918,5.1918,5.1918,5.1539,5.0166,4.9909,4.961,4.8456,4.826,4.8328,4.8516,4.8542,4.8831,4.971,5.0519,5.1331,5.2166,5.2972,5.3467,5.3467,5.3484,5.3501,5.3501,5.3501,5.3501,5.3501,5.3501,5.3501,5.3501,5.3501,5.3501,5.3501,5.3501,5.3501,5.3501,5.3501,5.3668,5.3997,5.3997,5.4141,3.8964,3.9305,3.9305,3.9305,3.9305,3.8757,3.6647,0.0,3.6839,3.5101,3.5294,3.5933,3.6493,3.6239,3.6158,3.6857,0.0,0.0,0.0,0.0,0.0,0.0,0.0,0.0,0.0,0.0,0.0,0.0,0.0,0.0,4.7309,4.7309,4.7309,4.7309,4.7309,4.7309,4.7309,4.7424,4.7424,4.7309,4.7901,4.86,4.9404,5.0201,5.1102,5.2106,5.2153,0.0,0.0,5.2193,5.2231,5.2329,5.248,5.2608,5.2669,5.2397,5.2306,5.2284,5.2208,5.2109,5.201,5.2139,5.204,5.181,5.1695,5.1579,5.1494,5.1764,5.1834,5.1834,5.1834,5.1918,5.2033,5.2155,5.2086,5.1668,5.0433,5.0188,4.9813,4.8546,4.8391,4.8516,4.8599,4.8599,4.9061,5.0419,5.09,5.157,5.2851,5.3297,5.3501,5.3501,5.3501,5.3501,5.3501,5.3501,5.3501,5.3501,5.3501,5.3501,5.3501,5.3501,5.3501,5.3501,5.3501,5.3501,5.3501,5.3501,5.3668,5.3997,5.3997,5.4192,3.895,3.9305,3.9305,3.9305,3.9091,3.832,0.0,0.0,3.6337,3.4608,3.512,3.5941,3.618,3.5814,3.5698,3.6373,3.6323,3.6959,0.0,0.0,0.0,0.0,0.0,0.0,0.0,0.0,0.0,0.0,0.0,0.0,4.7309,4.7359,4.7359,4.7309,4.7309,4.7309,4.7309,4.751,4.751,4.7309,4.7986,4.8547,4.9046,4.9966,5.0867,5.1728,5.1996,0.0,0.0,5.2435,5.2435,5.2435,5.2631,5.2691,5.2691,5.248,5.2435,5.2435,5.2435,5.2276,5.2109,5.2238,5.2162,5.201,5.2078,5.1926,5.1787,5.2017,5.2086,5.2124,5.2193,5.2147,5.2155,5.2367,5.2161,5.1651,5.0629,5.026,4.9785,4.8621,4.8495,4.8599,4.8599,4.8599,4.9168,5.0862,5.1107,5.168,5.3297,5.3501,5.3501,5.3501,5.3501,5.3501,5.3501,5.3501,5.3501,5.3501,5.3501,5.3501,5.3501,5.3501,5.3501,5.3501,5.3501,5.3501,5.3501,5.3501,5.3668,5.3997,5.3997,5.4192,3.8763,3.9305,3.9305,3.9305,3.854,3.7564,0.0,0.0,3.4472,3.4252,3.4409,3.486,3.5647,3.5576,3.5698,3.6551,3.7037,0.0,0.0,0.0,0.0,0.0,0.0,0.0,0.0,0.0,0.0,0.0,0.0,0.0,4.7309,4.7488,4.751,4.7309,4.7309,4.7309,4.7309,4.751,4.751,4.7309,4.7986,4.8547,4.9031,4.949,5.0436,0.0,0.0,0.0,0.0,5.2691,5.2691,5.2691,5.2691,5.2691,5.2691,5.2691,5.2691,5.2691,5.2691,5.2525,5.2306,5.2306,5.2162,5.2033,5.2253,5.2155,5.2033,5.2238,5.2306,5.2352,5.2608,5.2518,5.2352,5.2631,5.2183,5.1528,5.0836,5.0174,4.9481,4.8737,4.8599,4.8599,4.8599,4.8599,4.9168,5.0862,5.1107,5.168,5.3297,5.3501,5.3501,5.3501,5.3501,5.3501,5.3501,5.3501,5.3501,5.3501,5.3501,5.3501,5.3501,5.3501,5.3501,5.3501,5.3501,5.3501,5.3501,5.3501,5.3668,5.3997,5.3997,5.4192,3.6995,3.716,3.7036,3.7036,3.6709,3.6089,3.5086,0.0,3.491,3.4148,3.4533,3.5092,3.5344,3.5203,3.5367,3.6277,3.7178,0.0,0.0,0.0,0.0,0.0,0.0,0.0,0.0,0.0,0.0,0.0,0.0,0.0,4.7309,4.7359,4.7374,4.7309,4.7424,4.751,4.751,4.7767,4.7837,4.7773,4.8265,4.8498,4.8538,4.9324,4.9928,0.0,0.0,0.0,0.0,5.2021,5.2298,5.2691,5.2691,5.2691,5.2691,5.2691,5.2691,5.2691,5.2691,5.2525,5.2329,5.2503,5.2412,5.2253,5.2518,5.239,5.2162,5.195,5.2232,5.2478,5.2122,5.1954,5.1917,5.1999,5.1498,5.0836,5.0143,4.9857,4.9466,4.8743,4.8599,4.8599,4.8599,4.8599,4.9168,5.0862,5.1107,5.168,5.3297,5.3501,5.3501,5.3501,5.3501,5.3501,5.3501,5.3501,5.3501,5.3501,5.3501,5.3501,5.3501,5.3501,5.3501,5.3501,5.3501,5.3501,5.3501,5.3501,5.3668,5.4014,5.424,5.44,0.0,3.6211,3.6111,3.6111,3.5728,0.0,0.0,0.0,3.4432,3.3798,3.4293,3.4819,3.4819,3.4709,3.4976,3.6012,3.7268,0.0,0.0,0.0,0.0,0.0,0.0,0.0,0.0,0.0,0.0,0.0,0.0,0.0,4.7402,4.751,4.7553,4.7553,4.7596,4.7645,4.7752,4.7986,4.807,4.8007,4.8412,4.8495,4.8322,4.8977,4.9435,0.0,0.0,0.0,0.0,5.1328,5.1728,5.2306,5.2306,5.2483,5.2691,5.2691,5.2691,5.2691,5.2691,5.2586,5.248,5.2669,5.2586,5.2434,5.2361,5.2386,5.2342,5.1838,5.219,5.2583,5.219,5.2082,5.2021,5.1759,5.119,5.0513,4.9835,4.9466,4.9143,4.8696,4.8599,4.8599,4.8599,4.8599,4.9168,5.0862,5.1107,5.168,5.3297,5.3501,5.3501,5.3501,5.3501,5.3501,5.3501,5.3501,5.3501,5.3501,5.3501,5.3501,5.3501,5.3501,5.3501,5.3501,5.3501,5.3501,5.3501,5.3635,5.3801,5.4014,5.4335,5.4496,0.0,3.6081,0.0,0.0,0.0,0.0,0.0,0.0,0.0,3.3308,3.374,3.4147,3.4147,3.4193,3.4616,3.5755,3.733,0.0,0.0,0.0,0.0,0.0,0.0,0.0,0.0,0.0,0.0,0.0,0.0,0.0,4.7617,4.7858,4.8007,4.8028,4.7773,4.7773,4.8028,4.8202,4.8202,4.8049,4.8412,4.8495,4.8328,4.8516,4.8974,0.0,0.0,0.0,0.0,5.062,5.1021,5.1636,5.1636,5.2052,5.2637,5.2637,5.2645,5.2691,5.2691,5.2691,5.2691,5.2691,5.2691,5.2575,5.1852,5.2129,5.2537,5.1836,5.2159,5.2676,5.2652,5.2637,5.2445,5.179,5.1113,5.0436,4.978,4.9081,4.8599,4.8599,4.8599,4.8599,4.8599,4.8599,4.9168,5.0862,5.1107,5.168,5.3297,5.3501,5.3501,5.3501,5.3501,5.3501,5.3501,5.3501,5.3501,5.3501,5.3501,5.3501,5.3501,5.3501,5.3501,5.3501,5.3501,5.3501,5.3501,5.3833,5.3997,5.4014,5.4335,5.4496,3.3884,0.0,3.3779,3.3779,3.3466,3.3222,0.0,0.0,0.0,0.0,0.0,3.3519,3.3519,3.4143,3.4832,3.5392,3.7707,0.0,0.0,0.0,0.0,0.0,0.0,0.0,0.0,0.0,0.0,0.0,0.0,4.7858,4.7901,4.7964,4.807,4.8223,4.816,4.816,4.8223,4.8265,4.8349,4.8453,4.8557,4.8578,4.8537,4.8578,4.8676,0.0,0.0,0.0,4.9949,4.9949,5.0334,5.0928,5.0928,5.1344,5.1944,5.1944,5.2267,5.2691,5.2691,5.2691,5.2691,5.2691,5.2691,5.2483,5.1298,5.1759,5.2467,5.1267,5.179,5.2568,5.2067,5.1944,5.1775,5.1097,5.042,4.9728,4.902,4.8706,4.8599,4.8599,4.8599,4.8599,4.8599,4.8599,4.9168,5.0862,5.1107,5.168,5.3297,5.3501,5.3501,5.3501,5.3501,5.3501,5.3501,5.3501,5.3501,5.3501,5.3501,5.3501,5.3501,5.3501,5.3501,5.3501,5.3501,5.3501,5.3501,5.3833,5.3997,5.4014,5.4335,5.4496,3.3308,3.3224,3.3139,3.3139,3.3069,3.3002,3.3108,0.0,0.0,0.0,0.0,3.3382,3.3615,3.4052,0.0,3.5363,3.7409,0.0,0.0,0.0,0.0,0.0,0.0,0.0,0.0,0.0,0.0,0.0,0.0,4.8049,4.8133,4.8133,4.8223,4.8432,4.8432,4.8432,4.8432,4.8432,4.8495,4.8599,4.8599,4.8599,4.8599,4.8599,4.8599,0.0,0.0,0.0,4.9189,4.9189,4.9605,5.0236,5.0236,5.0651,5.1236,5.1236,5.1667,5.2252,5.2252,5.2452,5.2691,5.2691,5.2691,5.2506,5.1467,5.1667,5.2036,5.099,5.1451,5.2175,5.1805,5.1698,5.1451,5.0466,4.9964,4.9502,4.8753,4.8599,4.8599,4.8599,4.8599,4.8599,4.8599,4.8599,4.9168,5.0862,5.1107,5.168,5.3297,5.3501,5.3501,5.3501,5.3501,5.3501,5.3501,5.3501,5.3501,5.3501,5.3501,5.3501,5.3501,5.3501,5.3501,5.3501,5.3501,5.3501,5.3501,5.3751,5.3915,5.4014,5.4239,5.4399,3.3168,3.3347,3.3491,3.3354,3.3308,3.3308,3.3308,0.0,0.0,0.0,0.0,0.0,0.0,0.0,0.0,0.0,0.0,0.0,0.0,0.0,0.0,0.0,0.0,0.0,0.0,0.0,0.0,0.0,0.0,4.8175,4.8328,4.8349,4.8432,4.8599,4.8599,4.8599,4.8599,4.8599,4.8599,4.8599,4.8599,4.8599,4.8599,4.8599,4.8599,4.8599,0.0,0.0,4.8599,4.8599,4.8974,4.9528,4.9528,4.9943,5.0543,5.0543,5.1036,5.1713,5.1821,5.2236,5.2691,5.2691,5.2637,5.2414,5.1759,5.1482,5.1298,5.082,5.1113,5.1559,5.1559,5.1559,5.1236,4.9989,4.9703,4.9502,4.8753,4.8599,4.8599,4.8599,4.8599,4.8599,4.8599,4.8599,4.9127,5.0691,5.1013,5.1643,5.3127,5.3433,5.3501,5.3501,5.3501,5.3501,5.3501,5.3501,5.3501,5.3501,5.3501,5.3501,5.3501,5.3501,5.3501,5.3501,5.3501,5.3501,5.3501,5.3617,5.38,5.3997,5.4143,5.4303,3.2553,3.3528,3.437,3.3508,3.3308,3.3308,3.3308,0.0,0.0,0.0,0.0,0.0,0.0,0.0,0.0,0.0,0.0,0.0,0.0,0.0,0.0,0.0,0.0,0.0,0.0,0.0,0.0,0.0,0.0,4.8537,4.8557,4.8557,4.8578,4.8599,4.8599,4.8599,4.8599,4.8599,4.8599,4.8599,4.8599,4.8599,4.8599,4.8599,4.8599,4.8599,0.0,4.8599,4.8599,4.8599,4.866,4.8773,4.8773,4.9204,4.9857,4.9857,5.0636,5.1775,5.2359,5.2599,5.2691,5.2691,5.2329,5.1728,5.1051,5.0451,5.0103,5.0559,5.0774,5.0851,5.0851,5.0851,5.0651,4.9866,4.9703,4.9502,4.8753,4.8599,4.8599,4.8599,4.8599,4.8599,4.8599,4.8599,4.8954,4.9947,5.0653,5.144,5.2361,5.3075,5.3501,5.3501,5.3501,5.3501,5.3501,5.3501,5.3501,5.3501,5.3501,5.3501,5.3501,5.3501,5.3501,5.3501,5.3501,5.3501,5.3501,5.3617,5.38,5.3997,5.4143,5.4303,3.2314,3.2944,3.3605,3.4023,3.4554,3.4988,0.0,0.0,0.0,0.0,0.0,0.0,0.0,0.0,0.0,0.0,0.0,0.0,0.0,0.0,0.0,0.0,0.0,0.0,0.0,0.0,0.0,0.0,0.0,0.0,4.8599,4.8599,4.8599,4.8599,4.8599,4.8599,4.8599,4.8599,4.8599,4.8599,4.8599,4.8599,4.8599,4.8599,4.8599,4.8599,0.0,4.8599,4.8599,4.8599,4.8599,4.8599,4.8599,4.882,4.9204,4.9959,5.062,5.1313,5.2344,5.2691,5.2652,5.2283,5.2206,5.2129,5.1436,5.1021,5.0836,5.1144,5.0974,5.0697,5.0697,5.0974,5.0882,4.9451,4.9404,4.9502,4.8753,4.8599,4.8599,4.8599,4.8599,4.8599,4.8599,4.8599,4.8893,4.9769,5.0576,5.1403,5.22,5.3006,5.3501,5.3501,5.3501,5.3501,5.3501,5.3501,5.3501,5.3501,5.3501,5.3501,5.3501,5.3501,5.3501,5.3501,5.3501,5.3501,5.3501,5.3551,5.3734,5.3997,5.4062,5.4239,3.2019,3.2466,3.3129,3.4661,3.5429,0.0,0.0,0.0,0.0,0.0,0.0,0.0,0.0,0.0,0.0,0.0,0.0,0.0,0.0,0.0,0.0,0.0,0.0,0.0,0.0,0.0,0.0,0.0,0.0,0.0,4.8599,4.8599,4.8599,4.8599,4.8599,4.8599,4.8599,4.8599,4.8599,4.8599,4.8599,4.8599,4.8599,4.8599,4.8599,4.8599,4.8599,4.8599,4.8599,4.8599,4.8599,4.8599,4.8599,4.8599,4.8768,5.0174,5.059,5.0651,5.2006,5.2375,5.2159,5.1636,5.1713,5.1898,5.139,5.1113,5.1021,5.1174,5.0974,5.0697,5.0697,5.1082,5.1021,4.9281,4.9281,4.9502,4.8753,4.8599,4.8599,4.8599,4.8599,4.8599,4.8599,4.8599,4.8831,4.9506,5.0442,5.1313,5.1933,5.2886,5.3501,5.3501,5.3501,5.3501,5.3501,5.3501,5.3501,5.3501,5.3501,5.3501,5.3501,5.3501,5.3501,5.3501,5.3501,5.3501,5.3501,5.3501,5.3668,5.3997,5.3997,5.4192,3.1373,3.2659,3.4099,3.5404,3.4889,0.0,3.6046,3.6406,0.0,3.7715,0.0,0.0,0.0,0.0,0.0,0.0,0.0,0.0,0.0,0.0,0.0,0.0,0.0,0.0,0.0,0.0,0.0,0.0,0.0,0.0,4.8599,4.8599,4.8599,4.8599,4.8599,4.8599,4.8599,4.8599,4.8599,4.8599,4.8599,4.8599,4.8599,4.8599,4.8599,4.8599,4.8599,4.8599,4.8599,4.8599,4.8599,4.8599,4.8599,4.8599,4.8768,5.0174,5.0319,4.9964,5.1313,5.1359,5.0836,5.079,5.0374,4.9918,4.9872,4.9374,4.8974,4.9651,5.0251,5.0697,5.0697,5.0728,5.0574,4.9789,4.9672,4.9502,4.8753,4.8599,4.8599,4.8599,4.8599,4.8599,4.8599,4.8599,4.862,4.8687,5.0073,5.1126,5.1182,5.2538,5.3501,5.3501,5.3501,5.3501,5.3501,5.3501,5.3501,5.3501,5.3501,5.3501,5.3501,5.3501,5.3501,5.3501,5.3501,5.3501,5.3501,5.3501,5.3668,5.3997,5.3997,5.4192,3.1221,3.2409,3.3805,3.57,3.6057,0.0,0.0,3.8703,3.93,3.9433,3.9707,0.0,0.0,0.0,0.0,0.0,0.0,0.0,0.0,0.0,0.0,0.0,0.0,0.0,0.0,0.0,0.0,0.0,0.0,0.0,4.7357,4.7357,4.7357,4.7357,4.7773,4.7989,4.7989,4.8383,4.8599,4.8599,4.8599,4.8599,4.8599,4.8599,4.8599,4.8599,4.8599,4.8599,4.8599,4.8599,4.8599,4.8599,4.8599,4.8599,4.8706,4.9712,4.9918,4.982,5.0759,5.0913,5.062,5.0205,5.0195,5.0236,4.9841,4.9789,4.9959,5.0236,5.0497,5.059,5.0195,5.0697,5.0928,4.9389,4.9358,4.9502,4.8753,4.8599,4.8599,4.8599,4.8599,4.8599,4.8599,4.8599,4.846,4.805,4.9328,5.0209,4.9791,5.1106,5.2063,5.2063,5.2469,5.2959,5.3467,5.3501,5.3501,5.3501,5.3501,5.3501,5.3501,5.3501,5.3501,5.3501,5.3501,5.3534,5.3618,5.3618,5.38,5.4127,5.4127,5.4255,3.1365,3.2348,3.3562,3.5884,0.0,0.0,3.8824,4.0031,4.0872,4.0763,4.0982,0.0,0.0,0.0,0.0,0.0,0.0,0.0,0.0,0.0,0.0,0.0,0.0,0.0,0.0,0.0,0.0,0.0,0.0,0.0,0.0,4.6603,4.6603,4.6603,4.705,4.7281,4.7281,4.7742,4.7973,4.7973,4.7973,4.8081,4.8296,4.8081,4.7973,4.7973,4.7973,4.7973,4.7973,4.7973,4.7973,4.7973,4.7973,4.8112,4.8373,4.9081,4.9343,4.9435,5.0128,5.0236,4.9959,4.9497,4.9666,4.9959,4.9481,4.9666,5.0035,5.0035,5.0205,5.0242,4.9528,5.0359,5.0974,4.9343,4.9328,4.9502,4.8753,4.8599,4.8599,4.8599,4.8804,4.8881,4.863,4.8599,4.8456,4.8004,4.8875,4.9505,4.9285,5.0393,5.1201,5.1201,5.1641,5.2283,5.3061,5.3129,5.323,5.3484,5.3501,5.3501,5.3501,5.3501,5.3501,5.3501,5.3534,5.3601,5.37,5.375,5.3931,5.419,5.419,5.4303,3.1853,3.2598,0.0,0.0,0.0,0.0,3.8843,3.995,4.0886,4.1554,0.0,0.0,0.0,0.0,0.0,0.0,0.0,0.0,0.0,0.0,0.0,0.0,0.0,0.0,0.0,0.0,0.0,0.0,0.0,0.0,0.0,4.6573,4.6573,4.6573,4.6588,4.6588,4.6588,4.6603,4.6603,4.6603,4.6588,4.6942,4.7573,4.6896,4.6603,4.6603,4.6603,4.6603,4.6603,4.6603,4.6603,4.6603,4.6603,4.7004,4.7681,4.8337,4.8583,4.8676,4.942,4.9204,4.8599,4.8599,4.8599,4.8599,4.8599,4.8599,4.8599,4.8599,4.9127,4.9512,4.8804,4.9635,5.0497,4.9857,4.9703,4.9481,4.8773,4.8599,4.8599,4.8599,4.9189,4.9472,4.8743,4.8583,4.8609,4.8655,4.8802,4.9151,4.99,5.0676,5.1184,5.1184,5.1184,5.1488,5.2232,5.23,5.2638,5.345,5.3501,5.3501,5.3501,5.3501,5.3501,5.3501,5.3651,5.37,5.3717,5.3915,5.4094,5.4206,5.4206,5.4335,3.1348,3.2859,0.0,0.0,0.0,0.0,0.0,4.0341,0.0,0.0,0.0,0.0,0.0,0.0,0.0,0.0,0.0,0.0,0.0,0.0,0.0,0.0,0.0,0.0,0.0,0.0,0.0,0.0,0.0,0.0,0.0,4.5191,4.5191,4.5191,4.5653,4.5915,4.5915,4.6357,4.6603,4.6588,4.6111,4.6249,4.688,4.668,4.6603,4.6603,4.6603,4.6603,4.6603,4.6603,4.6603,4.6603,4.6603,4.6726,4.6927,4.7127,4.7496,4.7942,4.8158,4.8404,4.8599,4.8599,4.8599,4.8599,4.8599,4.8599,4.8599,4.8599,4.8773,4.8881,4.8645,4.8906,4.9174,4.8974,4.8943,4.8881,4.8666,4.8599,4.8737,4.9266,4.9127,4.8866,4.863,4.8199,4.7758,4.736,4.7778,4.8396,4.9186,4.9503,4.9847,5.0371,5.0422,5.0727,5.1455,5.2012,5.2401,5.2638,5.3196,5.3501,5.3501,5.3501,5.3701,5.4123,5.4171,5.4469,5.5039,5.5186,5.5352,5.5534,5.5629,5.5716,3.2401,0.0,0.0,0.0,0.0,0.0,0.0,0.0,0.0,0.0,0.0,0.0,0.0,0.0,0.0,0.0,0.0,0.0,0.0,0.0,0.0,0.0,0.0,0.0,0.0,0.0,0.0,0.0,0.0,0.0,0.0,4.4591,4.4591,4.4591,4.4991,4.5207,4.5207,4.5607,4.5807,4.5807,4.5407,4.5422,4.5807,4.5807,4.5807,4.5807,4.5807,4.5807,4.5807,4.5807,4.5807,4.5807,4.5807,4.5976,4.6188,4.6188,4.6619,4.7234,4.7511,4.7865,4.8245,4.8507,4.8599,4.8599,4.8599,4.8599,4.8599,4.8599,4.8599,4.8599,4.8599,4.8599,4.8599,4.8599,4.8599,4.8599,4.8599,4.8599,4.8722,4.9174,4.9143,4.8943,4.8645,4.8486,4.8207,4.762,4.7973,4.8448,4.8944,4.9001,4.9171,4.961,4.9661,4.9965,5.071,5.1166,5.1555,5.1827,5.2604,5.3027,5.3027,5.3331,5.3783,5.4391,5.4532,5.4946,5.5684,5.5879,5.6069,5.6188,5.6248,5.6303,3.4176,0.0,0.0,0.0,0.0,0.0,0.0,0.0,0.0,0.0,0.0,0.0,0.0,0.0,0.0,0.0,0.0,0.0,0.0,0.0,0.0,0.0,0.0,0.0,0.0,0.0,0.0,0.0,0.0,0.0,0.0,4.4591,4.4591,4.4591,4.4591,4.4591,4.4591,4.4591,4.4591,4.4591,4.4591,4.4591,4.4591,4.4591,4.4591,4.4591,4.4591,4.4591,4.4591,4.4591,4.4591,4.4591,4.4591,4.4976,4.5515,4.5515,4.5926,4.6603,4.7219,4.7465,4.7619,4.8214,4.846,4.8507,4.8507,4.8537,4.8599,4.8599,4.8599,4.8599,4.8599,4.8599,4.8599,4.8599,4.8599,4.8599,4.8599,4.8599,4.8614,4.8696,4.9189,4.941,4.8789,4.9152,4.9351,4.8847,4.8912,4.9001,4.9001,4.9001,4.9001,4.9001,4.9001,4.9272,4.9947,5.0066,5.0388,5.1049,5.1776,5.2198,5.2215,5.3061,5.38,5.4424,5.4797,5.5276,5.5879,5.6258,5.6438,5.6438,5.6452,5.6452,0.0,3.4884,0.0,0.0,0.0,0.0,0.0,0.0,0.0,0.0,0.0,0.0,0.0,0.0,0.0,0.0,0.0,0.0,0.0,0.0,0.0,0.0,0.0,0.0,0.0,0.0,0.0,0.0,0.0,0.0,4.4591,4.4591,4.4591,4.4591,4.4591,4.4591,4.4591,4.4591,4.4591,0.0,4.4591,4.4591,4.4591,4.4591,4.4591,4.4591,4.4591,4.4591,4.4591,4.4591,4.4591,4.4591,4.4591,4.4683,4.4822,4.4822,4.5237,4.5853,4.5992,4.6372,4.6834,4.6988,4.7388,4.7819,4.7819,4.8168,4.8599,4.8599,4.8599,4.8599,4.8599,4.8599,4.8599,4.8599,4.8599,4.8599,4.8599,4.8599,4.8773,4.9343,4.9127,4.8955,4.9311,4.9062,4.878,4.8723,4.8873,4.9001,4.9001,4.9001,4.9001,4.9001,4.9001,4.9069,4.9221,4.9763,5.0167,5.0321,5.1031,5.1503,5.168,5.2954,5.3963,5.4615,5.5261,5.5893,5.6519,5.7147,5.748,5.748,5.7595,5.7625,0.0,0.0,0.0,0.0,0.0,0.0,0.0,0.0,0.0,0.0,0.0,0.0,0.0,0.0,0.0,0.0,0.0,0.0,0.0,0.0,0.0,0.0,0.0,0.0,0.0,0.0,0.0,0.0,0.0,4.3633,4.3633,4.3944,4.4113,4.4113,4.4421,4.4591,4.4591,4.4591,4.4591,4.4591,4.4591,4.4591,4.4591,4.4591,4.4591,4.4591,4.4591,4.4591,4.4591,4.4591,4.4591,4.4591,4.4591,4.4591,4.4591,4.4591,4.4822,4.5176,4.5499,4.5838,4.6157,4.6496,4.6834,4.7127,4.7127,4.7588,4.8107,4.8107,4.8337,4.8599,4.8599,4.8599,4.8599,4.8599,4.8599,4.8599,4.8599,4.8599,4.8706,4.9097,4.8866,4.8811,4.9477,4.9587,4.957,4.9639,4.9504,4.9281,4.9037,4.9001,4.9001,4.9001,4.9001,4.9001,4.9001,4.9357,4.956,4.956,5.027,5.0724,5.0836,5.2317,5.3496,5.4246,5.5056,5.5907,5.6796,5.7247,5.7601,5.7904,5.7973,5.7997,0.0,0.0,0.0,0.0,0.0,0.0,0.0,0.0,0.0,0.0,0.0,0.0,0.0,0.0,0.0,0.0,0.0,0.0,0.0,0.0,0.0,0.0,0.0,0.0,0.0,0.0,0.0,0.0,0.0,4.2602,4.2602,4.3128,4.3421,4.3421,4.3975,4.4252,4.4252,4.436,4.4421,4.4421,4.4545,4.4591,4.4591,4.4591,4.4591,4.4591,4.4591,4.4591,4.4591,4.4591,4.4591,4.4591,4.4591,4.4591,4.4591,4.4591,4.4591,4.4683,4.5237,4.5438,4.553,4.6065,4.6326,4.6419,4.6419,4.6896,4.7434,4.7434,4.7835,4.8276,4.8399,4.8414,4.846,4.8568,4.8599,4.8599,4.8599,4.8599,4.8599,4.8599,4.8769,4.9138,4.9801,5.0373,5.074,5.071,5.0188,4.9625,4.9072,4.9001,4.9001,4.9001,4.9001,4.9001,4.9001,4.9001,4.9001,4.9001,4.956,4.9929,4.9992,5.1393,5.2577,5.3447,5.4487,5.5527,5.651,5.6742,5.7109,5.7586,5.7586,5.7586,0.0,0.0,0.0,0.0,0.0,0.0,0.0,0.0,0.0,0.0,0.0,0.0,0.0,0.0,0.0,0.0,0.0,0.0,0.0,0.0,0.0,0.0,0.0,0.0,0.0,0.0,0.0,0.0,4.2279,4.2602,4.2602,4.2694,4.274,4.274,4.2817,4.2879,4.2879,4.3436,4.3728,4.3747,4.4314,4.4591,4.4591,4.4591,4.4591,4.4591,4.4591,4.4591,4.4591,4.4591,4.4591,4.4591,4.4591,4.4591,4.4591,4.4591,4.4591,4.4606,4.4699,4.4729,4.4745,4.4837,4.5268,4.5726,4.5726,4.6188,4.6726,4.6726,4.6803,4.7004,4.7588,4.7742,4.7881,4.846,4.8599,4.8599,4.8599,4.8599,4.8599,4.8599,4.9486,5.0451,5.1048,5.1287,5.1241,5.0777,5.0188,4.9625,4.9072,4.9001,4.9001,4.9001,4.9001,4.9001,4.9001,4.9001,4.9001,4.9001,4.9086,4.9277,4.9564,5.0401,5.1262,5.2131,5.3866,5.4825,5.4991,5.5532,5.5849,5.5915,5.5915,5.5915,3.504,0.0,0.0,0.0,0.0,0.0,0.0,0.0,0.0,0.0,0.0,0.0,0.0,0.0,0.0,0.0,0.0,0.0,0.0,0.0,0.0,0.0,0.0,0.0,0.0,0.0,0.0,0.0,4.1261,4.1414,4.1414,4.1832,4.2048,4.2048,4.2402,4.2602,4.2602,4.2879,4.3236,4.3624,4.4267,4.4591,4.4591,4.4591,4.4591,4.4591,4.4591,4.4591,4.4591,4.4591,4.4591,4.4591,4.4591,4.4591,4.4591,4.4591,4.4591,4.4591,4.4591,4.4591,4.4591,4.4591,4.4806,4.5037,4.5037,4.5515,4.6053,4.6053,4.6311,4.6665,4.6957,4.7034,4.7111,4.7419,4.7481,4.7588,4.7973,4.8322,4.8599,4.8599,4.9892,5.0989,5.0914,5.1159,5.124,5.0777,5.0123,4.9513,4.9072,4.9001,4.9001,4.9001,4.9001,4.9001,4.9001,4.9001,4.9032,4.9109,4.9107,4.9229,4.9488,5.0174,5.0868,5.1547,5.2998,5.4059,5.4707,5.4964,5.5268,5.5603,5.5603,5.5603,0.0,0.0,0.0,0.0,0.0,0.0,0.0,0.0,0.0,0.0,0.0,0.0,0.0,0.0,0.0,0.0,0.0,0.0,0.0,0.0,0.0,0.0,0.0,0.0,0.0,0.0,0.0,0.0,4.0489,4.0489,4.0489,4.1014,4.1324,4.1324,4.1817,4.2061,4.2061,4.2245,4.2679,4.3344,4.3852,4.4175,4.4344,4.4344,4.4437,4.4591,4.4591,4.4591,4.4591,4.4591,4.4591,4.4591,4.4591,4.4591,4.4591,4.4591,4.4591,4.4591,4.4591,4.4591,4.4591,4.4591,4.4591,4.4591,4.4591,4.4945,4.5361,4.5361,4.5715,4.6146,4.6296,4.6342,4.6388,4.6557,4.6603,4.6788,4.7465,4.8142,4.8641,4.8783,4.9935,5.0797,5.0467,5.0762,5.0871,5.041,4.9924,4.945,4.901,4.897,4.9001,4.9001,4.9001,4.9017,4.9048,4.9048,4.9124,4.926,4.9409,4.957,4.9747,5.0363,5.0977,5.1567,5.2409,5.334,5.4318,5.4318,5.4545,5.4987,5.4987,5.4987,0.0,0.0,0.0,0.0,0.0,0.0,0.0,0.0,0.0,0.0,0.0,0.0,0.0,0.0,0.0,0.0,0.0,0.0,0.0,0.0,0.0,0.0,0.0,0.0,0.0,0.0,0.0,0.0,4.0489,4.0489,4.0489,4.0536,4.0568,4.0568,4.0582,4.0614,4.0614,4.1291,4.1986,4.2663,4.2694,4.3033,4.3655,4.3655,4.399,4.4591,4.4591,4.4591,4.4591,4.4591,4.4591,4.4591,4.4591,4.4591,4.4591,4.4591,4.4591,4.4591,4.4591,4.4591,4.4591,4.4591,4.4591,4.4591,4.4591,4.4622,4.4652,4.4652,4.4683,4.4852,4.5499,4.5653,4.5823,4.6449,4.6603,4.6788,4.7465,4.8142,4.8753,4.9247,4.9425,4.9664,5.0125,5.0235,5.0056,4.946,4.9507,4.9402,4.887,4.8925,4.9001,4.9001,4.9001,4.9048,4.9184,4.9184,4.9275,4.9473,4.9959,5.0307,5.0446,5.0977,5.161,5.2338,5.2399,5.2713,5.3282,5.3282,5.3303,5.3324,5.3324,5.3324,0.0,0.0,0.0,0.0,0.0,0.0,0.0,0.0,0.0,0.0,0.0,0.0,0.0,0.0,0.0,0.0,0.0,0.0,0.0,0.0,0.0,0.0,0.0,0.0,0.0,0.0,0.0,0.0,0.0,4.0489,4.0489,4.0489,4.0489,4.0489,4.0489,4.0489,4.0489,4.1232,4.1724,4.1971,4.2384,4.274,4.2956,4.2956,4.3328,4.3959,4.3959,4.419,4.4591,4.4591,4.4591,4.4591,4.4591,4.4591,4.4591,4.4591,4.4591,4.4591,4.4591,4.4591,4.4591,4.4591,4.4591,4.4591,4.4591,4.4591,4.4591,4.4591,4.4591,4.4652,4.4899,4.496,4.5102,4.5699,4.618,4.67,4.7281,4.7975,4.842,4.8222,4.913,4.984,4.9597,4.9517,4.9476,4.9491,4.9154,4.8896,4.8928,4.9048,4.9123,4.9123,4.9229,4.9352,4.9398,4.9381,4.9456,4.9619,4.9823,5.0148,5.0677,5.0875,5.1419,5.2384,5.2396,5.2654,5.3196,5.3196,5.3196,5.3196,5.3196,5.3196,3.1967,0.0,0.0,0.0,0.0,0.0,0.0,0.0,0.0,0.0,0.0,0.0,0.0,0.0,0.0,0.0,0.0,0.0,0.0,0.0,0.0,0.0,0.0,0.0,0.0,0.0,0.0,0.0,0.0,0.0,4.0489,4.0489,4.0489,4.0489,4.0489,4.0489,4.0489,4.0984,4.1232,4.123,4.1676,4.2014,4.2263,4.2263,4.2633,4.3282,4.3498,4.3994,4.4591,4.4591,4.4591,4.4591,4.4591,4.4591,4.4591,4.4591,4.4591,4.4591,4.4591,4.4591,4.4591,4.4591,4.4591,4.4591,4.4591,4.4591,4.4591,4.4591,4.4742,4.4877,4.4877,4.5027,4.5271,4.5663,4.6151,4.6627,4.7045,4.778,4.8241,4.7813,4.8709,4.9364,4.8878,4.8809,4.8862,4.9091,4.8865,4.8736,4.897,4.9185,4.9305,4.9305,4.9411,4.9532,4.956,4.9577,4.9619,4.9784,5.0137,5.0567,5.1039,5.1398,5.1952,5.2642,5.2672,5.2839,5.3196,5.3196,5.3196,5.3196,5.3196,5.3196,0.0,0.0,0.0,0.0,0.0,0.0,0.0,0.0,0.0,0.0,0.0,0.0,0.0,0.0,0.0,0.0,0.0,0.0,0.0,0.0,0.0,0.0,0.0,0.0,0.0,0.0,0.0,0.0,4.0489,4.0489,4.0489,4.0489,4.0489,4.0489,4.0489,4.0489,4.0489,4.0489,4.0489,4.0489,4.0489,4.0876,4.1571,4.1571,4.194,4.2617,4.3267,4.3929,4.4575,4.4591,4.4591,4.4591,4.4591,4.4591,4.4591,4.4591,4.4591,4.4591,4.4591,4.4591,4.4591,4.4591,4.4591,4.4591,4.4591,4.461,4.4629,4.4629,4.5011,4.5424,4.5424,4.5859,4.6338,4.6499,4.6535,4.6588,4.6811,4.7611,4.8272,4.8199,4.8192,4.817,4.8035,4.8131,4.8211,4.8227,4.8674,4.9001,4.9001,4.9307,4.9518,4.9518,4.9518,4.9577,4.9693,4.9708,4.9799,5.0008,5.1004,5.1576,5.1613,5.262,5.3175,5.3196,5.3196,5.3196,5.3196,5.3196,5.3196,5.3196,5.3196,5.3196,3.034,0.0,0.0,0.0,0.0,0.0,0.0,0.0,0.0,0.0,0.0,0.0,0.0,0.0,0.0,0.0,0.0,0.0,0.0,0.0,0.0,0.0,0.0,0.0,0.0,0.0,0.0,0.0,4.0489,4.0489,4.0489,4.0489,4.0489,4.0489,4.0489,4.0489,4.0489,4.0489,4.0489,4.0489,4.0489,4.0614,4.0799,4.0799,4.1199,4.1894,4.2063,4.2805,4.3898,4.4391,4.4591,4.4591,4.4591,4.4591,4.4591,4.4591,4.4591,4.4591,4.4591,4.4591,4.4591,4.4591,4.4591,4.4591,4.4591,4.4862,4.5182,4.5182,4.5588,4.6054,4.6054,4.6179,4.6463,4.7154,4.7306,4.7473,4.8048,4.8315,4.8315,4.785,4.8117,4.8444,4.8484,4.8468,4.8499,4.8753,4.8909,4.9032,4.9123,4.9441,4.9649,4.9649,4.9772,4.9877,4.9921,4.9921,5.012,5.0551,5.0857,5.1378,5.2144,5.2454,5.2794,5.3185,5.3196,5.3196,5.3196,5.3196,5.3196,5.3196,5.3196,5.3196,0.0,0.0,0.0,0.0,0.0,0.0,3.33,3.4358,0.0,0.0,0.0,0.0,0.0,0.0,0.0,0.0,0.0,0.0,0.0,0.0,0.0,0.0,0.0,0.0,0.0,4.0489,4.0489,4.0489,4.0489,4.0489,4.0489,4.0489,4.0489,4.0489,4.0489,4.0489,4.0489,4.0489,4.0489,4.0489,4.0489,4.0489,4.0489,4.0489,4.0737,4.117,4.1536,4.2142,4.2929,4.396,4.4461,4.4591,4.4591,4.4421,4.4225,4.4498,4.4421,4.4221,4.4498,4.4591,4.4591,4.4591,4.4746,4.488,4.4667,4.516,4.5715,4.5478,4.6056,4.6827,4.7135,4.722,4.7371,4.795,4.8145,4.8305,4.8735,4.8814,4.8609,4.7983,4.813,4.8404,4.8483,4.8563,4.869,4.8894,4.9001,4.9107,4.9184,4.9441,4.9634,4.9693,4.9799,4.9921,4.9996,5.0011,5.012,5.0457,5.0884,5.1398,5.2036,5.2506,5.2879,5.3185,5.3196,5.3196,5.3196,5.3196,5.3196,5.3196,5.3196,5.3196,0.0,0.0,0.0,0.0,0.0,0.0,3.3489,3.409,3.4659,0.0,0.0,0.0,0.0,0.0,0.0,0.0,0.0,0.0,0.0,0.0,0.0,0.0,0.0,0.0,4.0489,4.0489,4.0489,4.0489,4.0489,4.0489,4.0489,4.0489,4.0507,4.0524,4.0507,4.0507,4.0524,4.0507,4.0489,4.0489,4.0489,4.0489,4.0489,4.0524,4.0524,4.0587,4.138,4.1761,4.1934,4.3321,4.4123,4.4521,4.4613,4.4209,4.3685,4.4286,4.4089,4.3612,4.4308,4.454,4.4555,4.4613,4.4955,4.5255,4.4746,4.54,4.625,4.5843,4.6586,4.7671,4.8323,4.8499,4.8547,4.8769,4.891,4.9001,4.9017,4.9092,4.9,4.8404,4.8308,4.8324,4.834,4.8627,4.8832,4.8832,4.9078,4.9229,4.9229,4.9411,4.9607,4.9708,4.9723,4.9799,4.9979,5.0011,5.0037,5.0163,5.1066,5.1638,5.1763,5.2676,5.3196,5.3196,5.3196,5.3196,5.3196,5.3196,5.3196,5.3196,5.3196,5.3196,0.0,0.0,0.0,0.0,0.0,0.0,3.1076,3.1613,3.2119,0.0,0.0,0.0,0.0,0.0,0.0,0.0,0.0,0.0,0.0,0.0,0.0,0.0,0.0,0.0,4.0443,4.0489,4.0489,4.0489,4.0489,4.0489,4.0489,4.0489,4.0576,4.0747,4.0576,4.0576,4.0747,4.0576,4.0489,4.0489,4.0489,4.0489,4.0507,4.0662,4.0747,4.0747,4.109,4.1532,4.2048,4.2363,4.308,4.4007,4.4601,4.4325,4.3642,4.3877,4.3527,4.3069,4.3915,4.4203,4.4259,4.4688,4.4896,4.4952,4.4685,4.5476,4.6657,4.7622,4.8081,4.8307,4.8468,4.8499,4.8578,4.8893,4.897,4.9032,4.9138,4.9109,4.9001,4.8877,4.8923,4.9061,4.9214,4.9185,4.9107,4.9107,4.929,4.9443,4.9443,4.9713,4.9906,4.9935,4.9935,4.995,5.0011,5.0011,5.0373,5.1236,5.1475,5.1988,5.2839,5.3082,5.3196,5.3196,5.3196,5.3196,5.3196,5.3196,5.3196,5.3196,5.3196,5.3196,0.0,0.0,0.0,3.1476,0.0,0.0,0.0,3.1905,3.2103,0.0,0.0,0.0,0.0,0.0,0.0,0.0,0.0,0.0,0.0,0.0,0.0,0.0,0.0,0.0,3.9937,3.9999,4.0187,4.0629,4.0645,4.0645,4.0645,4.0645,4.0645,4.0645,4.0541,4.0593,4.0799,4.0696,4.0696,4.0797,4.0797,4.0797,4.0797,4.0899,4.095,4.095,4.1137,4.1543,4.2126,4.2573,4.3163,4.3812,4.3937,4.3741,4.3358,4.343,4.3031,4.2552,4.3325,4.3611,4.3756,4.4658,4.4878,4.492,4.5588,4.645,4.7406,4.8388,4.8643,4.8658,4.8737,4.8736,4.8798,4.9031,4.9185,4.9277,4.9352,4.9307,4.9246,4.9246,4.9214,4.9214,4.9229,4.9214,4.9199,4.9199,4.929,4.9398,4.9488,4.9654,4.9772,4.9845,5.01,5.0282,5.0383,5.0643,5.103,5.1569,5.1854,5.2244,5.2772,5.306,5.3196,5.3196,5.3196,5.3196,5.3196,5.3196,5.3196,5.3196,5.3196,5.3196,0.0,0.0,0.0,0.0,0.0,3.1898,0.0,0.0,0.0,0.0,0.0,0.0,0.0,0.0,0.0,0.0,0.0,0.0,0.0,0.0,0.0,0.0,0.0,0.0,0.0,3.9307,3.9622,4.0363,4.0377,4.0439,4.0597,4.0597,4.0608,4.0626,4.0626,4.0712,4.0885,4.0867,4.0933,4.11,4.11,4.11,4.11,4.1118,4.1135,4.1137,4.1232,4.153,4.1965,4.2639,4.3072,4.3298,4.3282,4.3196,4.3052,4.2981,4.2612,4.2214,4.2906,4.3211,4.3477,4.4606,4.4936,4.5161,4.655,4.7408,4.8032,4.8658,4.8832,4.8863,4.897,4.9001,4.9032,4.9168,4.932,4.9458,4.9503,4.9503,4.9518,4.953,4.9411,4.926,4.9124,4.9201,4.926,4.926,4.9275,4.935,4.9532,4.9577,4.9637,4.9755,5.0148,5.0467,5.063,5.1131,5.1493,5.1588,5.2096,5.246,5.2552,5.2966,5.3196,5.3196,5.3196,5.3122,5.2957,5.2957,5.3049,5.3196,5.3196,5.3196,0.0,0.0,0.0,0.0,3.2532,0.0,0.0,0.0,0.0,0.0,0.0,0.0,0.0,0.0,0.0,0.0,0.0,0.0,0.0,0.0,0.0,0.0,0.0,0.0,0.0,3.8599,3.8727,3.9016,3.8853,3.9099,3.9867,3.9915,4.0246,4.1001,4.1017,4.1103,4.124,4.1135,4.1083,4.11,4.11,4.11,4.1085,4.1222,4.1273,4.1275,4.1231,4.126,4.1305,4.123,4.13,4.1658,4.3339,4.3504,4.2813,4.2569,4.2314,4.222,4.307,4.3654,4.4089,4.4707,4.5209,4.5729,4.6568,4.7339,4.8048,4.8767,4.8987,4.897,4.8986,4.9001,4.9032,4.9168,4.9214,4.9275,4.9456,4.9503,4.9547,4.9649,4.9664,4.9605,4.9473,4.9458,4.9473,4.9473,4.956,4.9649,4.9679,4.983,4.995,4.9964,5.0022,5.008,5.0094,5.0575,5.1092,5.1581,5.2096,5.2608,5.3082,5.3164,5.3196,5.3196,5.3196,5.2858,5.2152,5.2152,5.2509,5.3196,5.3196,5.3196,0.0,0.0,0.0,0.0,0.0,0.0,0.0,0.0,3.2233,0.0,0.0,0.0,0.0,0.0,0.0,0.0,0.0,0.0,0.0,0.0,0.0,0.0,0.0,0.0,0.0,0.0,0.0,0.0,3.885,3.9006,3.948,3.9512,3.9603,3.9751,3.9835,3.9918,3.9952,4.0031,4.008,4.0178,4.0178,4.0307,4.0579,4.0642,4.0815,4.1079,4.1032,4.1172,4.1435,4.1342,4.152,4.1893,4.2451,4.2616,4.2494,4.1948,4.2157,4.2728,4.3099,4.3646,4.4241,4.474,4.5615,4.6423,4.6312,4.6849,4.7558,4.7861,4.7893,4.7834,4.7834,4.7834,4.7997,4.8588,4.8794,4.9032,4.9639,4.9696,4.9634,4.9693,4.9634,4.959,4.9605,4.9605,4.9605,4.9605,4.9664,4.9737,4.986,4.995,5.0011,5.0011,5.0495,5.0843,5.0924,5.1626,5.2203,5.2518,5.2739,5.2765,5.2517,5.2509,5.2289,5.182,5.1801,5.1646,5.1298,5.1298,5.1481,5.1801,5.1801,5.1801,3.3138,0.0,0.0,0.0,0.0,0.0,0.0,0.0,0.0,0.0,0.0,0.0,0.0,0.0,0.0,0.0,0.0,0.0,0.0,0.0,0.0,0.0,0.0,0.0,0.0,0.0,0.0,3.7826,3.7888,3.82,3.8968,3.9031,3.8999,3.8946,3.9075,3.9155,3.9155,3.9424,3.9612,3.9689,3.9813,4.0058,4.0391,4.0391,4.0584,4.0893,4.0826,4.0984,4.1289,4.1229,4.1305,4.1479,4.1129,4.136,4.1848,4.1372,4.1824,4.2719,4.2917,4.3581,4.4373,4.4718,4.5679,4.6612,4.6053,4.6507,4.7201,4.7201,4.713,4.706,4.706,4.706,4.724,4.7979,4.8232,4.8498,4.9209,4.9255,4.9148,4.9148,4.925,4.9326,4.9428,4.9585,4.9708,4.9784,4.9784,4.9828,4.9982,5.0011,5.0037,5.0149,5.0758,5.1283,5.1525,5.2297,5.2802,5.2873,5.2865,5.2509,5.1712,5.1675,5.1389,5.082,5.0802,5.0692,5.0472,5.0472,5.0343,5.0141,5.06,5.0802,0.0,0.0,0.0,3.3668,0.0,0.0,0.0,0.0,3.3282,0.0,0.0,0.0,0.0,0.0,0.0,0.0,0.0,0.0,0.0,0.0,0.0,0.0,0.0,0.0,0.0,0.0,0.0,3.491,3.5034,3.5981,3.8121,3.8293,3.8623,3.925,3.9409,3.9487,3.9487,3.9936,4.0164,4.0179,4.0643,4.0849,4.088,4.088,4.0894,4.0889,4.0635,4.0513,4.0517,4.0263,3.9896,3.9501,3.9488,3.9971,4.0682,4.0855,4.1216,4.1746,4.2473,4.3537,4.459,4.459,4.521,4.5934,4.59,4.6507,4.7201,4.7201,4.7201,4.7187,4.7187,4.7187,4.7247,4.7486,4.7531,4.7573,4.7744,4.7758,4.7758,4.7758,4.8344,4.8827,4.8827,4.9315,4.9769,4.9964,4.9996,4.9996,5.0011,5.0011,5.0149,5.0547,5.0612,5.0839,5.1373,5.1922,5.2166,5.2037,5.2042,5.1675,5.0875,5.0839,5.0839,5.0802,5.0802,5.0417,4.9647,4.9647,4.9197,4.8406,5.004,5.0802,0.0,0.0,3.4845,3.414,0.0,0.0,0.0,0.0,0.0,0.0,0.0,0.0,0.0,0.0,0.0,0.0,0.0,0.0,0.0,0.0,0.0,0.0,0.0,0.0,0.0,0.0,0.0,3.5048,3.6131,3.7068,3.7824,3.7887,3.7908,3.7916,3.8084,3.8098,3.7976,3.8264,3.8415,3.8415,3.8579,3.8943,3.9498,3.9498,3.9831,4.0367,4.026,4.0237,4.0233,4.0151,4.0007,3.985,3.985,4.0031,4.0299,4.0596,4.1271,4.2176,4.2916,4.3168,4.3386,4.4398,4.4664,4.4685,4.5258,4.5634,4.5894,4.5976,4.5935,4.5881,4.5881,4.5881,4.6014,4.6584,4.6808,4.7045,4.7586,4.7703,4.7703,4.7703,4.791,4.8065,4.8065,4.8247,4.875,4.9841,5.0011,5.0094,5.0355,5.0397,5.0547,5.0946,5.1231,5.1551,5.1909,5.201,5.1814,5.1251,5.1206,5.0839,5.0041,5.0004,4.9719,4.9159,4.915,4.9022,4.8746,4.8746,4.86,4.8315,4.8884,4.915,3.5421,3.5635,0.0,3.4959,3.4826,0.0,3.3997,0.0,0.0,0.0,0.0,0.0,0.0,0.0,0.0,0.0,0.0,0.0,0.0,0.0,0.0,0.0,0.0,0.0,0.0,0.0,3.3226,3.4429,3.557,3.6428,0.0,0.0,3.7612,3.7373,3.7464,3.7435,3.7315,3.7743,3.7961,3.7961,3.8288,3.872,3.9262,3.9262,3.9566,4.0096,4.0096,4.0096,4.0096,4.0096,4.0096,4.0096,4.0096,4.0096,4.0126,4.0341,4.1062,4.1978,4.2509,4.2566,4.2605,4.364,4.3717,4.3534,4.4127,4.4549,4.489,4.5302,4.5344,4.5343,4.5618,4.548,4.5394,4.5876,4.6067,4.6307,4.6789,4.6893,4.6893,4.6893,4.7117,4.7307,4.7307,4.7531,4.8134,4.9375,4.9565,4.9766,5.0321,5.014,5.0183,5.0707,5.0779,5.097,5.1522,5.1578,5.1234,5.0417,5.0362,5.0004,4.9178,4.9142,4.9031,4.8765,4.8765,4.8746,4.8728,4.8746,4.86,4.8296,4.8296,4.8296]}]]